[[{"header":{"parameterUnit":"m.s-1","parameterCategory":1,"la1":31.0,"la2":29.5877,"lo1":-88.7671,"lo2":-86.6584,"dx":0.0162,"dy":0.0185,"nx":115,"ny":88,"refTime":"2022-11-18T18:00:00:Z","depth":0,"parameterNumber":2,"parameterNumberName":"U-component_of_WINDS"},"data":[0.0,0.0,0.0,0.0,0.0,0.0,0.0,0.0,0.0,0.0,0.0,0.0,0.0,0.0,0.0,0.0,0.0,0.0,0.0,0.0,0.0,0.0,0.0,0.0,0.0,0.0,0.0,0.0,0.0,0.0,0.0,0.0,0.0,0.0,0.0,0.0,0.0,0.0,0.0,0.0,0.0,0.0,0.0,0.0,0.0,0.0,0.0,0.0,0.0,0.0,0.0,0.0,0.0,0.0,0.0,0.0,0.0,0.0,0.0,0.0,0.0,0.0,0.0,0.0,0.0,0.0,0.0,0.0,0.0,0.0,0.0,0.0,0.0,0.0,0.0,0.0,0.0,0.0,0.0,0.0,0.0,0.0,0.0,0.0,0.0,0.0,0.0,0.0,0.0,0.0,0.0,0.0,0.0,0.0,0.0,0.0,0.0,0.0,0.0,0.0,0.0,0.0,0.0,0.0,0.0,0.0,0.0,0.0,0.0,0.0,0.0,0.0,0.0,0.0,0.0,0.0,0.0,0.0,0.0,0.0,0.0,0.0,0.0,0.0,0.0,0.0,0.0,0.0,0.0,0.0,0.0,0.0,0.0,0.0,0.0,0.0,0.0,0.0,0.0,0.0,0.0,0.0,0.0,0.0,0.0,0.0,0.0,0.0,0.0,0.0,0.0,0.0,0.0,0.0,0.0,0.0,0.0,0.0,0.0,0.0,0.0,0.0,0.0,0.0,0.0,0.0,0.0,0.0,0.0,0.0,0.0,0.0,0.0,0.0,0.0,0.0,0.0,0.0,0.0,0.0,0.0,0.0,0.0,0.0,0.0,0.0,0.0,0.0,0.0,0.0,0.0,0.0,0.0,0.0,0.0,0.0,0.0,0.0,0.0,0.0,0.0,0.0,0.0,0.0,0.0,0.0,0.0,0.0,0.0,0.0,0.0,0.0,0.0,0.0,0.0,0.0,0.0,0.0,0.0,0.0,0.0,0.0,0.0,0.0,0.0,0.0,0.0,0.0,0.0,0.0,0.0,0.0,0.0,0.0,0.0,0.0,0.0,0.0,0.0,0.0,0.0,0.0,0.0,0.0,0.0,0.0,0.0,0.0,0.0,0.0,0.0,0.0,0.0,0.0,0.0,0.0,0.0,0.0,0.0,0.0,0.0,0.0,0.0,0.0,0.0,0.0,0.0,0.0,0.0,0.0,0.0,0.0,0.0,0.0,0.0,0.0,0.0,0.0,0.0,0.0,0.0,0.0,0.0,0.0,0.0,0.0,0.0,0.0,0.0,0.0,0.0,0.0,0.0,0.0,0.0,0.0,0.0,0.0,0.0,0.0,0.0,0.0,0.0,0.0,0.0,0.0,0.0,0.0,0.0,0.0,0.0,0.0,0.0,0.0,0.0,0.0,0.0,0.0,0.0,0.0,0.0,0.0,0.0,0.0,0.0,0.0,0.0,0.0,0.0,0.0,0.0,0.0,0.0,0.0,0.0,0.0,0.0,0.0,0.0,0.0,0.0,0.0,0.0,0.0,0.0,0.0,0.0,0.0,0.0,0.0,0.0,0.0,0.0,0.0,0.0,0.0,0.0,0.0,0.0,0.0,0.0,0.0,0.0,0.0,0.0,0.0,0.0,0.0,0.0,0.0,0.0,0.0,0.0,0.0,0.0,0.0,0.0,0.0,0.0,0.0,0.0,0.0,0.0,0.0,0.0,0.0,0.0,0.0,0.0,0.0,0.0,0.0,0.0,0.0,0.0,0.0,0.0,0.0,0.0,0.0,0.0,0.0,0.0,0.0,0.0,0.0,0.0,0.0,0.0,0.0,0.0,0.0,0.0,0.0,0.0,0.0,0.0,0.0,0.0,0.0,0.0,0.0,0.0,0.0,0.0,0.0,0.0,0.0,0.0,0.0,0.0,0.0,0.0,0.0,0.0,0.0,0.0,0.0,0.0,0.0,0.0,0.0,0.0,0.0,0.0,0.0,0.0,0.0,0.0,0.0,0.0,0.0,0.0,0.0,0.0,0.0,0.0,0.0,0.0,0.0,0.0,0.0,0.0,0.0,0.0,0.0,0.0,0.0,0.0,0.0,0.0,0.0,0.0,0.0,0.0,0.0,0.0,0.0,0.0,0.0,0.0,0.0,0.0,0.0,0.0,0.0,0.0,0.0,0.0,0.0,0.0,0.0,0.0,0.0,0.0,0.0,0.0,0.0,0.0,0.0,0.0,0.0,0.0,0.0,0.0,0.0,0.0,0.0,0.0,0.0,0.0,0.0,0.0,0.0,0.0,0.0,0.0,0.0,0.0,0.0,0.0,0.0,0.0,0.0,0.0,0.0,0.0,0.0,0.0,0.0,0.0,0.0,0.0,0.0,0.0,0.0,0.0,0.0,0.0,0.0,0.0,0.0,0.0,0.0,0.0,0.0,0.0,0.0,0.0,0.0,0.0,0.0,0.0,0.0,0.0,0.0,0.0,0.0,0.0,0.0,0.0,0.0,0.0,0.0,0.0,0.0,0.0,0.0,0.0,0.0,0.0,0.0,0.0,0.0,0.0,0.0,0.0,0.0,0.0,0.0,0.0,0.0,0.0,0.0,0.0,0.0,0.0,0.0,0.0,0.0,0.0,0.0,0.0,0.0,0.0,0.0,0.0,0.0,0.0,0.0,0.0,0.0,0.0,0.0,0.0,0.0,0.0,0.0,0.0,0.0,0.0,0.0,0.0,0.0,0.0,0.0,0.0,0.0,0.0,0.0,0.0,0.0,0.0,0.0,0.0,0.0,0.0,0.0,0.0,0.0,0.0,0.0,0.0,0.0,0.0,0.0,0.0,0.0,0.0,0.0,0.0,0.0,0.0,0.0,0.0,0.0,0.0,0.0,0.0,0.0,0.0,0.0,0.0,0.0,0.0,0.0,0.0,0.0,0.0,0.0,0.0,0.0,0.0,0.0,0.0,0.0,0.0,0.0,0.0,0.0,0.0,0.0,0.0,0.0,0.0,0.0,0.0,0.0,0.0,0.0,0.0,0.0,0.0,0.0,0.0,0.0,0.0,0.0,0.0,0.0,0.0,0.0,0.0,0.0,0.0,0.0,0.0,0.0,0.0,0.0,0.0,0.0,0.0,0.0,0.0,0.0,0.0,0.0,0.0,0.0,0.0,0.0,0.0,0.0,0.0,0.0,0.0,0.0,0.0,0.0,0.0,0.0,0.0,0.0,0.0,0.0,0.0,0.0,0.0,0.0,0.0,0.0,0.0,0.0,0.0,0.0,0.0,0.0,0.0,0.0,0.0,0.0,0.0,0.0,0.0,0.0,0.0,0.0,0.0,0.0,0.0,0.0,0.0,0.0,0.0,0.0,0.0,0.0,0.0,0.0,0.0,0.0,0.0,0.0,0.0,0.0,0.0,0.0,0.0,0.0,0.0,0.0,0.0,0.0,0.0,0.0,0.0,0.0,0.0,0.0,0.0,0.0,0.0,0.0,0.0,0.0,0.0,0.0,0.0,0.0,0.0,0.0,0.0,0.0,0.0,0.0,0.0,0.0,0.0,0.0,0.0,0.0,0.0,0.0,0.0,0.0,0.0,0.0,0.0,0.0,0.0,0.0,0.0,0.0,0.0,0.0,0.0,0.0,0.0,0.0,0.0,0.0,0.0,0.0,0.0,0.0,0.0,0.0,0.0,0.0,0.0,0.0,0.0,0.0,0.0,0.0,0.0,0.0,0.0,0.0,0.0,0.0,0.0,0.0,0.0,0.0,0.0,0.0,0.0,0.0,0.0,0.0,0.0,0.0,0.0,0.0,0.0,0.0,0.0,0.0,0.0,0.0,0.0,0.0,0.0,0.0,0.0,0.0,0.0,0.0,0.0,0.0,0.0,0.0,0.0,0.0,0.0,0.0,0.0,0.0,0.0,0.0,0.0,0.0,0.0,0.0,0.0,0.0,0.0,0.0,0.0,0.0,0.0,0.0,0.0,0.0,0.0,0.0,0.0,0.0,0.0,0.0,0.0,0.0,0.0,0.0,0.0,0.0,0.0,0.0,0.0,0.0,0.0,0.0,0.0,0.0,0.0,0.0,0.0,0.0,0.0,0.0,0.0,0.0,0.0,0.0,0.0,0.0,0.0,0.0,0.0,0.0,0.0,0.0,0.0,0.0,0.0,0.0,0.0,0.0,0.0,0.0,0.0,0.0,0.0,0.0,0.0,0.0,0.0,0.0,0.0,0.0,0.0,0.0,0.0,0.0,0.0,0.0,0.0,0.0,0.0,0.0,2.8557,0.0,0.0,0.0,2.8261,0.0,0.0,0.0,0.0,0.0,0.0,0.0,0.0,0.0,0.0,0.0,0.0,0.0,0.0,0.0,0.0,0.0,0.0,0.0,0.0,0.0,0.0,0.0,0.0,0.0,0.0,0.0,0.0,0.0,0.0,0.0,0.0,0.0,0.0,0.0,0.0,0.0,0.0,0.0,0.0,0.0,0.0,0.0,0.0,0.0,0.0,0.0,0.0,0.0,0.0,0.0,0.0,0.0,0.0,0.0,0.0,0.0,0.0,0.0,0.0,0.0,0.0,0.0,0.0,0.0,0.0,0.0,0.0,0.0,0.0,0.0,0.0,0.0,0.0,0.0,0.0,0.0,0.0,0.0,0.0,0.0,0.0,0.0,0.0,0.0,0.0,0.0,0.0,0.0,0.0,0.0,0.0,0.0,0.0,0.0,0.0,0.0,0.0,0.0,0.0,0.0,0.0,0.0,0.0,0.0,0.0,0.0,0.0,0.0,0.0,2.86,2.86,2.86,2.86,2.8587,0.0,0.0,0.0,0.0,0.0,0.0,0.0,0.0,0.0,0.0,0.0,0.0,0.0,0.0,0.0,0.0,0.0,0.0,0.0,0.0,0.0,0.0,0.0,0.0,0.0,0.0,0.0,0.0,0.0,0.0,0.0,0.0,0.0,0.0,0.0,0.0,0.0,0.0,0.0,0.0,0.0,0.0,0.0,0.0,0.0,0.0,0.0,0.0,0.0,0.0,0.0,0.0,0.0,0.0,0.0,0.0,0.0,0.0,0.0,0.0,0.0,0.0,0.0,0.0,0.0,0.0,0.0,0.0,0.0,0.0,0.0,0.0,0.0,0.0,0.0,0.0,0.0,0.0,0.0,0.0,0.0,0.0,0.0,0.0,0.0,0.0,0.0,0.0,0.0,0.0,0.0,0.0,0.0,0.0,0.0,0.0,0.0,0.0,0.0,0.0,0.0,0.0,0.0,0.0,0.0,0.0,0.0,0.0,0.0,0.0,0.0,0.0,2.86,2.8536,2.837,0.0,0.0,0.0,0.0,0.0,0.0,0.0,0.0,0.0,0.0,0.0,0.0,0.0,0.0,0.0,0.0,0.0,0.0,0.0,0.0,0.0,0.0,0.0,0.0,0.0,0.0,0.0,0.0,0.0,0.0,0.0,0.0,0.0,0.0,0.0,0.0,0.0,0.0,0.0,0.0,0.0,0.0,0.0,0.0,0.0,0.0,0.0,0.0,0.0,0.0,0.0,0.0,0.0,0.0,0.0,0.0,0.0,0.0,0.0,0.0,0.0,0.0,0.0,0.0,0.0,0.0,0.0,0.0,0.0,0.0,0.0,0.0,0.0,0.0,0.0,0.0,0.0,0.0,0.0,0.0,0.0,0.0,0.0,0.0,0.0,0.0,0.0,0.0,0.0,0.0,0.0,0.0,0.0,0.0,0.0,0.0,0.0,0.0,0.0,0.0,0.0,0.0,0.0,0.0,0.0,0.0,0.0,0.0,0.0,0.0,2.86,2.86,2.86,0.0,2.7825,0.0,0.0,0.0,0.0,0.0,0.0,0.0,0.0,0.0,0.0,0.0,0.0,0.0,0.0,0.0,0.0,0.0,0.0,0.0,0.0,0.0,0.0,0.0,0.0,0.0,0.0,0.0,0.0,0.0,0.0,0.0,0.0,0.0,0.0,0.0,0.0,0.0,0.0,0.0,0.0,0.0,0.0,0.0,0.0,0.0,0.0,0.0,0.0,0.0,0.0,0.0,0.0,0.0,0.0,0.0,0.0,0.0,0.0,0.0,0.0,0.0,0.0,0.0,0.0,0.0,0.0,0.0,0.0,0.0,0.0,0.0,0.0,0.0,0.0,0.0,0.0,0.0,0.0,0.0,0.0,0.0,0.0,0.0,0.0,0.0,0.0,0.0,0.0,0.0,0.0,0.0,0.0,0.0,0.0,0.0,0.0,0.0,0.0,0.0,0.0,0.0,0.0,0.0,0.0,0.0,0.0,0.0,0.0,0.0,0.0,2.86,2.86,2.86,2.8311,0.0,0.0,0.0,0.0,0.0,0.0,0.0,0.0,0.0,0.0,0.0,0.0,0.0,0.0,0.0,0.0,0.0,0.0,0.0,0.0,0.0,0.0,0.0,0.0,0.0,0.0,0.0,0.0,0.0,0.0,0.0,0.0,0.0,0.0,0.0,0.0,0.0,0.0,0.0,0.0,0.0,0.0,0.0,0.0,0.0,0.0,0.0,0.0,0.0,0.0,0.0,0.0,0.0,0.0,0.0,0.0,0.0,0.0,0.0,0.0,0.0,0.0,0.0,0.0,0.0,0.0,0.0,0.0,0.0,0.0,0.0,0.0,0.0,0.0,0.0,0.0,0.0,0.0,0.0,0.0,0.0,0.0,0.0,0.0,0.0,0.0,0.0,0.0,0.0,0.0,0.0,0.0,0.0,0.0,0.0,0.0,0.0,0.0,0.0,0.0,0.0,0.0,0.0,0.0,0.0,0.0,0.0,0.0,0.0,0.0,2.86,2.8562,2.8455,2.8383,2.8108,2.7582,0.0,0.0,0.0,0.0,0.0,0.0,0.0,0.0,0.0,0.0,0.0,0.0,0.0,0.0,0.0,0.0,0.0,0.0,0.0,0.0,0.0,0.0,0.0,0.0,0.0,0.0,0.0,0.0,0.0,0.0,0.0,0.0,0.0,0.0,0.0,0.0,0.0,0.0,0.0,0.0,0.0,0.0,0.0,0.0,0.0,0.0,0.0,0.0,0.0,0.0,0.0,0.0,0.0,0.0,0.0,0.0,0.0,0.0,0.0,0.0,0.0,0.0,0.0,0.0,0.0,0.0,0.0,0.0,0.0,0.0,0.0,0.0,0.0,0.0,0.0,0.0,0.0,0.0,0.0,0.0,0.0,0.0,0.0,0.0,0.0,0.0,0.0,0.0,0.0,0.0,0.0,0.0,0.0,0.0,0.0,0.0,0.0,0.0,0.0,0.0,0.0,0.0,0.0,0.0,0.0,0.0,0.0,0.0,2.8593,2.86,2.8442,2.8154,2.7862,2.7582,0.0,0.0,0.0,0.0,0.0,0.0,0.0,0.0,0.0,0.0,0.0,0.0,0.0,0.0,0.0,0.0,0.0,0.0,0.0,0.0,0.0,0.0,0.0,0.0,0.0,0.0,0.0,0.0,0.0,0.0,0.0,0.0,0.0,0.0,0.0,0.0,0.0,0.0,0.0,0.0,0.0,0.0,0.0,0.0,0.0,0.0,0.0,0.0,0.0,0.0,0.0,0.0,0.0,0.0,0.0,0.0,0.0,0.0,0.0,0.0,0.0,0.0,0.0,0.0,0.0,0.0,0.0,0.0,0.0,0.0,0.0,0.0,0.0,0.0,0.0,0.0,0.0,0.0,0.0,0.0,0.0,0.0,0.0,0.0,0.0,0.0,0.0,0.0,0.0,0.0,0.0,0.0,0.0,0.0,0.0,0.0,0.0,0.0,0.0,0.0,0.0,0.0,0.0,0.0,0.0,0.0,0.0,0.0,0.0,2.8268,2.8474,2.8435,2.8134,2.8024,2.7717,0.0,0.0,0.0,0.0,0.0,0.0,0.0,0.0,0.0,0.0,0.0,0.0,0.0,0.0,0.0,0.0,0.0,0.0,0.0,0.0,0.0,0.0,0.0,0.0,0.0,0.0,0.0,0.0,0.0,0.0,0.0,0.0,0.0,0.0,0.0,0.0,0.0,0.0,0.0,0.0,0.0,0.0,0.0,0.0,0.0,0.0,0.0,0.0,0.0,0.0,0.0,0.0,0.0,0.0,0.0,0.0,0.0,0.0,0.0,0.0,0.0,0.0,0.0,0.0,0.0,0.0,0.0,0.0,0.0,0.0,0.0,0.0,0.0,0.0,0.0,0.0,0.0,0.0,0.0,0.0,0.0,0.0,0.0,0.0,0.0,0.0,0.0,0.0,0.0,0.0,0.0,0.0,0.0,0.0,0.0,0.0,0.0,0.0,0.0,0.0,0.0,0.0,0.0,0.0,0.0,0.0,0.0,0.0,0.0,2.8492,2.8818,2.887,2.8517,2.8306,2.7912,0.0,0.0,0.0,0.0,0.0,0.0,0.0,0.0,0.0,0.0,0.0,0.0,0.0,0.0,0.0,0.0,0.0,0.0,0.0,0.0,0.0,0.0,0.0,0.0,0.0,0.0,0.0,0.0,0.0,0.0,0.0,0.0,0.0,0.0,0.0,0.0,0.0,0.0,0.0,0.0,0.0,0.0,0.0,0.0,0.0,0.0,0.0,0.0,0.0,0.0,0.0,0.0,0.0,0.0,0.0,0.0,0.0,0.0,0.0,0.0,0.0,0.0,0.0,0.0,0.0,0.0,0.0,0.0,0.0,0.0,0.0,0.0,0.0,0.0,0.0,0.0,0.0,0.0,0.0,0.0,0.0,0.0,0.0,0.0,0.0,0.0,0.0,0.0,0.0,0.0,0.0,0.0,0.0,0.0,0.0,0.0,0.0,0.0,0.0,0.0,0.0,0.0,0.0,0.0,0.0,0.0,0.0,0.0,2.8542,2.9304,2.9742,2.9781,2.942,2.8739,2.8185,0.0,0.0,0.0,0.0,0.0,0.0,0.0,0.0,0.0,0.0,0.0,0.0,0.0,0.0,0.0,0.0,0.0,0.0,0.0,0.0,0.0,0.0,0.0,0.0,0.0,0.0,0.0,0.0,0.0,0.0,0.0,0.0,0.0,0.0,0.0,0.0,0.0,0.0,0.0,0.0,0.0,0.0,0.0,0.0,0.0,0.0,0.0,0.0,0.0,0.0,0.0,0.0,0.0,0.0,0.0,0.0,0.0,0.0,0.0,0.0,0.0,0.0,0.0,0.0,0.0,0.0,0.0,0.0,0.0,0.0,0.0,0.0,0.0,0.0,0.0,0.0,0.0,0.0,0.0,0.0,0.0,0.0,0.0,0.0,0.0,0.0,0.0,0.0,0.0,0.0,0.0,0.0,0.0,0.0,0.0,0.0,0.0,0.0,0.0,0.0,0.0,0.0,0.0,0.0,0.0,0.0,0.0,0.0,0.0,3.096,3.1259,3.1166,3.0668,3.011,2.9178,0.0,0.0,0.0,0.0,0.0,0.0,0.0,0.0,0.0,0.0,0.0,0.0,0.0,0.0,0.0,0.0,0.0,0.0,0.0,0.0,0.0,0.0,0.0,0.0,0.0,0.0,0.0,0.0,0.0,0.0,0.0,0.0,0.0,0.0,0.0,0.0,0.0,0.0,0.0,0.0,0.0,0.0,0.0,0.0,0.0,0.0,0.0,0.0,0.0,0.0,0.0,0.0,0.0,0.0,0.0,0.0,0.0,0.0,0.0,0.0,0.0,0.0,0.0,0.0,0.0,0.0,0.0,0.0,0.0,0.0,0.0,0.0,0.0,0.0,0.0,0.0,0.0,0.0,0.0,0.0,0.0,0.0,0.0,0.0,0.0,0.0,0.0,0.0,0.0,0.0,0.0,0.0,0.0,0.0,0.0,0.0,0.0,0.0,0.0,0.0,0.0,0.0,0.0,0.0,0.0,0.0,0.0,0.0,0.0,3.4809,3.39,3.3218,3.2854,3.2038,3.0801,2.9127,0.0,0.0,0.0,0.0,0.0,0.0,0.0,0.0,0.0,0.0,0.0,0.0,0.0,0.0,0.0,0.0,0.0,0.0,0.0,0.0,0.0,0.0,0.0,0.0,0.0,0.0,0.0,0.0,0.0,0.0,0.0,0.0,0.0,0.0,0.0,0.0,0.0,0.0,0.0,0.0,0.0,0.0,0.0,0.0,0.0,0.0,0.0,0.0,0.0,0.0,0.0,0.0,0.0,0.0,0.0,0.0,0.0,0.0,0.0,0.0,0.0,0.0,0.0,0.0,0.0,0.0,0.0,0.0,0.0,0.0,0.0,0.0,0.0,0.0,0.0,0.0,0.0,0.0,0.0,0.0,0.0,0.0,0.0,0.0,0.0,0.0,0.0,0.0,0.0,0.0,0.0,0.0,0.0,0.0,0.0,0.0,0.0,0.0,0.0,0.0,0.0,0.0,0.0,0.0,0.0,0.0,0.0,0.0,4.0232,3.749,3.6039,3.587,3.4426,3.2871,0.0,0.0,0.0,0.0,0.0,0.0,0.0,0.0,0.0,0.0,0.0,0.0,0.0,0.0,0.0,0.0,0.0,0.0,0.0,0.0,0.0,0.0,0.0,0.0,0.0,0.0,0.0,0.0,0.0,0.0,0.0,0.0,0.0,0.0,0.0,0.0,0.0,0.0,0.0,0.0,0.0,0.0,0.0,0.0,0.0,0.0,0.0,0.0,0.0,0.0,0.0,0.0,0.0,0.0,0.0,0.0,0.0,0.0,0.0,0.0,0.0,0.0,0.0,0.0,0.0,0.0,0.0,0.0,0.0,0.0,0.0,0.0,0.0,0.0,0.0,0.0,0.0,0.0,0.0,0.0,0.0,0.0,0.0,0.0,0.0,0.0,0.0,0.0,0.0,0.0,0.0,0.0,0.0,0.0,0.0,0.0,0.0,0.0,0.0,0.0,0.0,0.0,0.0,0.0,0.0,0.0,0.0,0.0,0.0,4.0821,4.1205,4.0713,3.9372,3.7126,3.4956,0.0,0.0,0.0,0.0,0.0,0.0,0.0,0.0,0.0,0.0,0.0,0.0,0.0,0.0,0.0,0.0,0.0,0.0,0.0,0.0,0.0,0.0,0.0,0.0,0.0,0.0,0.0,0.0,0.0,0.0,0.0,0.0,0.0,0.0,0.0,0.0,0.0,0.0,0.0,0.0,0.0,0.0,0.0,0.0,0.0,0.0,0.0,0.0,0.0,0.0,0.0,0.0,0.0,0.0,0.0,0.0,0.0,0.0,0.0,0.0,0.0,0.0,0.0,0.0,0.0,0.0,0.0,0.0,0.0,0.0,0.0,0.0,0.0,0.0,0.0,0.0,0.0,0.0,0.0,0.0,0.0,0.0,0.0,0.0,0.0,0.0,0.0,0.0,0.0,0.0,0.0,0.0,0.0,0.0,0.0,0.0,0.0,0.0,0.0,0.0,0.0,0.0,0.0,0.0,0.0,0.0,0.0,0.0,4.0819,4.2104,4.3592,4.4034,4.3282,3.9661,3.6975,0.0,0.0,0.0,0.0,0.0,0.0,0.0,0.0,0.0,0.0,0.0,0.0,0.0,0.0,0.0,0.0,0.0,0.0,0.0,0.0,0.0,0.0,0.0,0.0,0.0,0.0,0.0,0.0,0.0,0.0,0.0,0.0,0.0,0.0,0.0,0.0,0.0,0.0,0.0,0.0,0.0,0.0,0.0,0.0,0.0,0.0,0.0,0.0,0.0,0.0,0.0,0.0,0.0,0.0,0.0,0.0,0.0,0.0,0.0,0.0,0.0,0.0,0.0,0.0,0.0,0.0,0.0,0.0,0.0,0.0,0.0,0.0,0.0,0.0,0.0,0.0,0.0,0.0,0.0,0.0,0.0,0.0,0.0,0.0,0.0,0.0,0.0,0.0,0.0,0.0,0.0,0.0,0.0,0.0,0.0,0.0,0.0,0.0,0.0,0.0,0.0,0.0,0.0,0.0,0.0,0.0,0.0,0.0,4.3389,4.366,4.4978,4.6041,4.6616,4.1867,3.8857,0.0,0.0,0.0,0.0,0.0,0.0,0.0,0.0,0.0,0.0,0.0,0.0,0.0,0.0,0.0,0.0,0.0,0.0,0.0,0.0,0.0,0.0,0.0,0.0,0.0,0.0,0.0,0.0,0.0,0.0,0.0,0.0,0.0,0.0,0.0,0.0,0.0,0.0,0.0,0.0,0.0,0.0,0.0,0.0,0.0,0.0,0.0,0.0,0.0,0.0,0.0,0.0,0.0,0.0,0.0,0.0,0.0,0.0,0.0,0.0,0.0,0.0,0.0,0.0,0.0,0.0,0.0,0.0,0.0,0.0,0.0,0.0,0.0,0.0,0.0,0.0,0.0,0.0,0.0,0.0,0.0,0.0,0.0,0.0,0.0,0.0,0.0,0.0,0.0,0.0,0.0,0.0,0.0,0.0,0.0,0.0,0.0,0.0,0.0,0.0,0.0,0.0,0.0,0.0,0.0,0.0,0.0,0.0,4.3403,4.5148,4.5534,4.6041,4.6766,4.2767,4.0251,0.0,0.0,0.0,0.0,0.0,0.0,0.0,0.0,0.0,0.0,0.0,0.0,0.0,0.0,0.0,0.0,0.0,0.0,0.0,0.0,0.0,0.0,0.0,0.0,0.0,0.0,0.0,0.0,0.0,0.0,0.0,0.0,0.0,0.0,0.0,0.0,0.0,0.0,0.0,0.0,0.0,0.0,0.0,0.0,0.0,0.0,0.0,0.0,3.039,0.0,0.0,0.0,0.0,0.0,0.0,0.0,0.0,0.0,0.0,0.0,0.0,0.0,0.0,0.0,0.0,0.0,0.0,0.0,0.0,0.0,0.0,0.0,0.0,0.0,0.0,0.0,0.0,0.0,0.0,0.0,0.0,0.0,0.0,0.0,0.0,0.0,0.0,0.0,0.0,0.0,0.0,0.0,0.0,0.0,0.0,0.0,0.0,0.0,0.0,0.0,0.0,0.0,0.0,0.0,0.0,0.0,0.0,0.0,4.3741,4.5635,4.6041,4.6384,4.6547,4.4245,4.2186,0.0,0.0,0.0,0.0,0.0,0.0,0.0,0.0,0.0,0.0,0.0,0.0,0.0,0.0,0.0,0.0,0.0,0.0,0.0,0.0,0.0,0.0,0.0,0.0,0.0,0.0,0.0,0.0,0.0,0.0,0.0,0.0,0.0,0.0,0.0,0.0,0.0,0.0,0.0,0.0,0.0,0.0,0.0,0.0,0.0,0.0,0.0,0.0,0.0,0.0,0.0,0.0,0.0,0.0,0.0,0.0,0.0,0.0,0.0,0.0,0.0,0.0,0.0,0.0,0.0,0.0,0.0,0.0,0.0,0.0,0.0,0.0,0.0,0.0,0.0,0.0,0.0,0.0,0.0,0.0,0.0,0.0,0.0,0.0,0.0,0.0,0.0,0.0,0.0,0.0,0.0,0.0,0.0,0.0,0.0,0.0,0.0,0.0,0.0,0.0,0.0,0.0,0.0,0.0,0.0,0.0,0.0,4.2564,4.4457,4.6268,4.6722,4.6885,4.6817,4.5731,4.3872,4.1177,0.0,0.0,0.0,0.0,0.0,0.0,0.0,0.0,0.0,0.0,0.0,0.0,0.0,0.0,0.0,0.0,0.0,0.0,0.0,0.0,0.0,0.0,0.0,0.0,0.0,0.0,0.0,0.0,0.0,0.0,0.0,0.0,0.0,0.0,0.0,0.0,0.0,0.0,2.6957,2.8492,0.0,0.0,0.0,0.0,0.0,0.0,0.0,0.0,3.1512,0.0,0.0,0.0,0.0,0.0,0.0,0.0,0.0,0.0,0.0,0.0,0.0,0.0,0.0,0.0,0.0,0.0,0.0,0.0,0.0,0.0,0.0,0.0,0.0,0.0,0.0,0.0,0.0,0.0,0.0,0.0,0.0,0.0,0.0,0.0,0.0,0.0,0.0,0.0,0.0,0.0,0.0,0.0,0.0,0.0,0.0,0.0,0.0,0.0,0.0,0.0,0.0,0.0,0.0,0.0,0.0,4.2624,4.3821,4.5983,4.9104,4.806,4.7775,4.8314,4.6161,4.3908,4.1616,0.0,0.0,0.0,0.0,0.0,0.0,0.0,0.0,0.0,0.0,0.0,0.0,0.0,0.0,0.0,0.0,0.0,0.0,0.0,0.0,0.0,0.0,0.0,0.0,0.0,0.0,0.0,0.0,0.0,0.0,0.0,0.0,0.0,0.0,0.0,0.0,0.0,0.0,0.0,3.0569,3.1572,0.0,0.0,0.0,0.0,0.0,0.0,0.0,0.0,3.2528,0.0,0.0,0.0,0.0,0.0,0.0,0.0,0.0,0.0,0.0,0.0,0.0,0.0,0.0,0.0,0.0,0.0,0.0,0.0,0.0,0.0,0.0,0.0,0.0,0.0,0.0,0.0,0.0,0.0,0.0,0.0,0.0,0.0,0.0,0.0,0.0,0.0,0.0,0.0,0.0,0.0,0.0,0.0,0.0,0.0,0.0,0.0,0.0,0.0,0.0,0.0,0.0,0.0,0.0,0.0,4.3732,4.5346,4.7677,5.0806,4.9835,4.915,4.9019,4.714,4.4667,0.0,0.0,0.0,0.0,0.0,0.0,0.0,0.0,0.0,0.0,0.0,0.0,0.0,0.0,0.0,0.0,0.0,0.0,0.0,0.0,0.0,0.0,0.0,0.0,0.0,0.0,0.0,0.0,0.0,0.0,0.0,0.0,0.0,0.0,0.0,0.0,0.0,0.0,0.0,0.0,3.2846,3.3788,3.5634,0.0,0.0,0.0,0.0,0.0,0.0,3.4278,3.2962,0.0,0.0,0.0,0.0,0.0,0.0,0.0,0.0,0.0,0.0,0.0,0.0,0.0,0.0,0.0,0.0,0.0,0.0,0.0,0.0,0.0,0.0,0.0,0.0,0.0,0.0,0.0,0.0,0.0,0.0,0.0,0.0,0.0,0.0,0.0,0.0,0.0,0.0,0.0,0.0,0.0,0.0,0.0,0.0,0.0,0.0,0.0,0.0,0.0,0.0,0.0,0.0,0.0,0.0,0.0,4.4623,4.6782,4.9219,5.195,5.1597,5.0894,4.9959,4.7962,4.5389,0.0,0.0,0.0,0.0,0.0,0.0,0.0,0.0,0.0,0.0,0.0,0.0,0.0,0.0,0.0,0.0,0.0,0.0,0.0,0.0,0.0,0.0,0.0,0.0,0.0,0.0,0.0,0.0,0.0,0.0,0.0,0.0,0.0,0.0,0.0,0.0,0.0,0.0,0.0,0.0,0.0,3.5922,3.7667,3.7331,0.0,0.0,0.0,0.0,3.5533,3.4532,0.0,0.0,0.0,0.0,0.0,0.0,0.0,0.0,0.0,0.0,0.0,0.0,0.0,0.0,0.0,0.0,0.0,0.0,0.0,0.0,0.0,0.0,0.0,0.0,0.0,0.0,0.0,0.0,0.0,0.0,0.0,0.0,0.0,0.0,0.0,0.0,0.0,0.0,0.0,0.0,0.0,0.0,0.0,0.0,0.0,0.0,0.0,0.0,0.0,0.0,0.0,0.0,0.0,0.0,0.0,0.0,4.4982,4.7898,5.0393,5.2426,5.3059,5.3008,5.2189,4.8148,4.5448,0.0,0.0,0.0,0.0,0.0,0.0,0.0,0.0,0.0,0.0,0.0,0.0,0.0,0.0,0.0,0.0,0.0,0.0,0.0,0.0,0.0,0.0,0.0,0.0,0.0,0.0,0.0,0.0,0.0,0.0,0.0,0.0,0.0,0.0,0.0,0.0,0.0,0.0,0.0,0.0,0.0,3.7182,3.8576,3.8421,3.7977,0.0,0.0,3.7463,3.6447,3.6252,0.0,0.0,0.0,0.0,0.0,0.0,0.0,0.0,0.0,0.0,0.0,0.0,0.0,0.0,0.0,0.0,0.0,0.0,0.0,0.0,0.0,0.0,0.0,0.0,0.0,0.0,0.0,0.0,0.0,0.0,0.0,0.0,0.0,0.0,0.0,0.0,0.0,0.0,0.0,0.0,0.0,0.0,0.0,0.0,0.0,0.0,0.0,0.0,0.0,0.0,0.0,0.0,0.0,0.0,0.0,4.2959,4.5775,4.9359,5.2056,5.3771,5.4029,5.3574,5.2393,4.8126,4.5276,0.0,0.0,0.0,0.0,0.0,0.0,0.0,0.0,0.0,0.0,0.0,0.0,0.0,0.0,0.0,0.0,0.0,0.0,0.0,0.0,0.0,0.0,0.0,0.0,0.0,0.0,0.0,0.0,0.0,0.0,0.0,0.0,0.0,0.0,0.0,0.0,0.0,0.0,0.0,0.0,0.0,0.0,3.9559,3.948,0.0,0.0,0.0,3.7689,3.5736,0.0,0.0,0.0,0.0,0.0,0.0,0.0,0.0,0.0,0.0,0.0,0.0,0.0,0.0,0.0,0.0,0.0,0.0,0.0,0.0,0.0,0.0,0.0,0.0,0.0,0.0,0.0,0.0,0.0,0.0,0.0,0.0,0.0,0.0,0.0,0.0,0.0,0.0,0.0,0.0,0.0,0.0,0.0,0.0,0.0,0.0,0.0,0.0,0.0,0.0,0.0,0.0,0.0,0.0,0.0,0.0,0.0,4.6532,5.0334,5.3162,5.4826,5.4569,5.3792,5.259,4.8679,0.0,0.0,0.0,0.0,0.0,0.0,0.0,0.0,0.0,0.0,0.0,0.0,0.0,0.0,0.0,0.0,0.0,0.0,0.0,0.0,0.0,0.0,0.0,0.0,0.0,0.0,0.0,0.0,0.0,0.0,0.0,0.0,0.0,0.0,0.0,0.0,0.0,0.0,0.0,0.0,0.0,0.0,3.9007,4.0085,4.0127,4.0155,0.0,0.0,3.8012,3.6213,3.6911,3.6724,0.0,0.0,0.0,0.0,0.0,0.0,0.0,0.0,0.0,0.0,0.0,0.0,0.0,0.0,0.0,0.0,0.0,0.0,0.0,0.0,0.0,0.0,0.0,0.0,0.0,0.0,0.0,0.0,0.0,0.0,0.0,0.0,0.0,0.0,0.0,0.0,0.0,0.0,0.0,0.0,0.0,0.0,0.0,0.0,0.0,0.0,0.0,0.0,0.0,0.0,0.0,0.0,0.0,0.0,0.0,4.7049,5.0391,5.313,5.5065,5.4441,5.3946,5.3755,5.0282,4.7189,0.0,0.0,0.0,0.0,0.0,0.0,0.0,0.0,0.0,0.0,0.0,0.0,0.0,0.0,0.0,0.0,0.0,0.0,0.0,0.0,0.0,0.0,0.0,0.0,0.0,0.0,0.0,0.0,0.0,0.0,0.0,0.0,0.0,0.0,0.0,0.0,0.0,0.0,0.0,0.0,0.0,3.9324,3.9767,4.0203,4.0733,0.0,0.0,3.9101,3.9236,3.9359,3.8632,3.6253,0.0,0.0,0.0,0.0,0.0,0.0,0.0,0.0,0.0,0.0,0.0,0.0,0.0,0.0,0.0,0.0,0.0,0.0,0.0,0.0,0.0,0.0,0.0,0.0,0.0,0.0,0.0,0.0,0.0,0.0,0.0,0.0,0.0,0.0,0.0,0.0,0.0,0.0,0.0,0.0,0.0,0.0,0.0,0.0,0.0,0.0,0.0,0.0,0.0,0.0,0.0,0.0,0.0,4.4744,4.6989,5.0693,5.3253,5.4596,5.4964,5.4314,5.2527,5.0351,4.7712,0.0,0.0,0.0,0.0,0.0,0.0,0.0,0.0,0.0,0.0,0.0,0.0,0.0,0.0,0.0,0.0,0.0,0.0,0.0,0.0,0.0,0.0,0.0,0.0,0.0,0.0,0.0,0.0,3.0025,3.043,2.9924,0.0,0.0,0.0,0.0,0.0,0.0,0.0,0.0,0.0,0.0,3.9479,4.1982,4.2293,0.0,0.0,4.2295,4.1105,3.9299,3.9651,3.9157,3.6541,3.6096,0.0,0.0,0.0,0.0,0.0,0.0,0.0,0.0,0.0,0.0,0.0,0.0,0.0,0.0,0.0,0.0,0.0,0.0,0.0,0.0,0.0,0.0,0.0,0.0,0.0,0.0,0.0,0.0,0.0,0.0,0.0,0.0,0.0,0.0,0.0,0.0,0.0,0.0,0.0,0.0,0.0,0.0,0.0,0.0,0.0,0.0,0.0,0.0,0.0,0.0,0.0,0.0,4.513,4.7144,5.087,5.3196,5.407,5.4549,5.3919,5.2139,5.0589,4.8441,0.0,0.0,0.0,0.0,0.0,0.0,0.0,0.0,0.0,0.0,0.0,0.0,0.0,0.0,0.0,0.0,0.0,0.0,0.0,0.0,0.0,0.0,0.0,0.0,0.0,0.0,0.0,0.0,3.1721,3.2198,3.2152,0.0,0.0,0.0,0.0,0.0,0.0,0.0,0.0,0.0,0.0,4.0363,4.2757,4.3062,4.3147,4.3434,4.3091,4.2071,4.0035,4.0362,4.0054,3.7843,0.0,0.0,0.0,0.0,0.0,0.0,0.0,0.0,0.0,0.0,0.0,0.0,0.0,0.0,0.0,0.0,0.0,0.0,0.0,0.0,0.0,0.0,0.0,0.0,0.0,0.0,0.0,0.0,0.0,0.0,0.0,0.0,0.0,0.0,0.0,0.0,0.0,0.0,0.0,0.0,0.0,0.0,0.0,0.0,0.0,0.0,0.0,0.0,0.0,0.0,0.0,0.0,0.0,0.0,4.7702,5.0851,5.286,5.3598,5.2779,5.2636,5.3067,5.1253,4.9576,4.8161,0.0,0.0,0.0,0.0,0.0,0.0,0.0,0.0,0.0,0.0,0.0,0.0,0.0,0.0,0.0,0.0,0.0,0.0,0.0,0.0,0.0,0.0,0.0,0.0,0.0,0.0,2.862,3.0959,3.3246,0.0,0.0,0.0,0.0,0.0,0.0,0.0,0.0,0.0,0.0,4.0187,4.2081,4.1524,4.1897,4.2473,4.2996,4.2107,4.1558,4.1977,4.1878,4.1517,0.0,0.0,0.0,0.0,0.0,0.0,0.0,0.0,0.0,0.0,0.0,0.0,0.0,0.0,0.0,0.0,0.0,0.0,0.0,0.0,0.0,0.0,0.0,0.0,0.0,0.0,0.0,3.6182,3.6182,0.0,0.0,0.0,0.0,0.0,0.0,0.0,0.0,0.0,0.0,0.0,4.5417,4.5107,0.0,0.0,0.0,0.0,0.0,0.0,0.0,0.0,0.0,0.0,0.0,0.0,4.6666,4.9038,5.0765,5.2504,5.4175,5.3373,5.2989,5.3198,5.2516,5.096,4.8379,0.0,0.0,0.0,0.0,0.0,0.0,0.0,0.0,0.0,0.0,0.0,0.0,0.0,0.0,0.0,0.0,0.0,0.0,0.0,0.0,0.0,0.0,0.0,0.0,0.0,3.195,0.0,0.0,0.0,0.0,0.0,0.0,0.0,0.0,0.0,0.0,0.0,3.8276,3.9932,4.0686,4.1544,4.2839,4.3049,4.3255,0.0,0.0,0.0,0.0,0.0,0.0,0.0,0.0,0.0,0.0,0.0,0.0,0.0,0.0,3.8288,3.6824,3.7176,3.7682,3.7584,0.0,0.0,0.0,0.0,0.0,0.0,0.0,0.0,0.0,0.0,0.0,0.0,0.0,0.0,0.0,0.0,4.0333,0.0,0.0,0.0,0.0,0.0,0.0,0.0,0.0,4.6367,4.8066,4.9238,4.8641,4.8246,0.0,4.6723,4.4242,0.0,0.0,0.0,0.0,0.0,0.0,0.0,0.0,4.7249,4.9584,5.1347,5.2857,5.4027,5.3754,5.3533,5.3533,5.3533,5.2426,5.0062,4.7219,4.4496,0.0,0.0,0.0,0.0,0.0,0.0,0.0,0.0,0.0,0.0,0.0,0.0,0.0,0.0,0.0,0.0,0.0,0.0,0.0,0.0,0.0,0.0,0.0,3.4469,0.0,0.0,0.0,0.0,0.0,0.0,0.0,0.0,0.0,3.7858,3.8745,3.9857,4.1317,4.1912,4.2501,4.3335,0.0,0.0,0.0,0.0,0.0,0.0,0.0,4.1312,4.0747,4.09,4.1156,4.1304,4.15,4.1668,4.1884,0.0,0.0,3.9546,3.9772,4.0275,4.0248,4.04,4.0501,4.03,4.0852,4.1352,0.0,0.0,0.0,0.0,0.0,0.0,0.0,0.0,4.4259,4.3509,0.0,4.3676,0.0,0.0,0.0,0.0,0.0,0.0,0.0,0.0,5.2094,5.2946,5.1192,5.1487,5.1307,5.0565,4.8778,4.7742,4.7364,4.609,0.0,0.0,0.0,0.0,0.0,0.0,4.8058,4.9549,5.256,5.3862,5.3402,5.3862,5.4192,5.4192,5.4192,5.3862,5.3139,5.0145,4.8386,4.8169,4.2211,0.0,0.0,0.0,0.0,0.0,0.0,0.0,0.0,0.0,0.0,0.0,0.0,0.0,0.0,0.0,0.0,0.0,0.0,0.0,0.0,3.556,0.0,0.0,0.0,0.0,0.0,0.0,0.0,0.0,0.0,0.0,3.8431,4.0172,4.1525,4.1398,0.0,0.0,0.0,0.0,4.441,4.2489,4.2153,4.2153,4.2179,4.245,4.2973,4.3934,0.0,0.0,4.4644,4.379,4.319,4.3162,4.4066,4.4012,4.1955,4.1654,4.1654,4.1679,4.2158,4.2185,4.1779,4.2685,4.3366,5.0343,0.0,0.0,0.0,0.0,4.6544,4.7637,4.936,4.936,4.9127,4.876,4.916,0.0,0.0,0.0,0.0,0.0,0.0,4.9581,5.0684,5.2336,5.3576,5.4432,5.3979,5.3635,5.3376,5.22,5.1591,5.1466,5.1107,4.9068,4.5489,0.0,0.0,0.0,0.0,4.9864,5.2129,5.3067,5.4097,5.5324,5.4127,5.3713,5.4192,5.4221,5.4077,5.3922,5.254,5.0714,4.8386,4.6471,0.0,0.0,0.0,0.0,0.0,0.0,0.0,0.0,0.0,0.0,0.0,0.0,0.0,0.0,0.0,0.0,0.0,0.0,0.0,3.7682,3.8726,3.8964,0.0,0.0,0.0,0.0,0.0,0.0,0.0,0.0,0.0,4.132,4.1165,4.1452,0.0,0.0,4.2575,4.2578,4.3032,4.3271,4.3032,0.0,0.0,0.0,4.3546,4.365,4.3378,4.4019,4.4865,4.5668,4.5874,4.6045,4.6401,4.6753,4.6697,4.617,4.5693,4.5568,4.5949,4.615,4.6225,4.6095,4.6627,4.711,5.4564,5.3223,5.0443,4.9758,5.0476,5.051,5.1658,5.3579,5.3579,5.3229,5.273,5.3295,5.2219,4.9993,4.9976,0.0,0.0,0.0,5.1945,5.3278,5.3393,5.4291,5.5703,5.5408,5.525,5.5226,5.5001,5.4827,5.4755,5.4339,5.2709,4.9852,0.0,0.0,4.9148,5.0014,5.1531,5.3648,5.4163,5.5114,5.6521,5.5144,5.4456,5.4581,5.4581,5.4491,5.4221,5.3803,5.2546,5.0324,4.9007,4.6471,0.0,0.0,0.0,0.0,0.0,0.0,0.0,0.0,0.0,0.0,0.0,3.0714,0.0,0.0,0.0,0.0,3.6759,3.7929,3.9633,4.0101,0.0,0.0,0.0,0.0,0.0,0.0,0.0,4.0808,4.1731,4.258,4.3174,4.2651,4.2573,4.3536,4.3447,4.336,4.3517,0.0,4.4567,4.4551,4.4432,4.4418,4.4744,4.5112,4.5246,4.4999,4.5472,4.607,4.6803,4.7375,4.7883,4.8184,4.8435,4.8661,4.8862,4.8604,4.8228,4.7983,4.8284,4.851,4.8309,4.8862,4.949,5.7892,5.7514,5.3108,5.2327,5.3935,5.4002,5.5073,5.6766,5.6832,5.6117,5.4972,5.6302,5.5407,5.2922,5.2882,0.0,0.0,5.3737,5.4358,5.5902,5.5093,5.5095,5.5722,5.6083,5.6282,5.6278,5.7076,5.7329,5.7023,5.6163,5.5585,5.5204,5.2815,5.1206,5.0548,5.1678,5.2935,5.4281,5.5474,5.6432,5.7064,5.6611,5.6013,5.5299,5.5269,5.497,5.4341,5.4281,5.3982,5.3228,5.0391,4.8678,4.8207,0.0,0.0,0.0,0.0,0.0,0.0,0.0,0.0,0.0,0.0,0.0,0.0,0.0,0.0,0.0,3.9667,0.0,4.0783,4.0484,0.0,0.0,0.0,4.0829,4.0591,4.1196,4.1822,4.2318,0.0,0.0,4.4332,0.0,4.4526,4.4911,4.5706,4.5974,4.5229,4.6446,4.7293,4.6461,4.6451,4.6496,4.6627,4.6979,4.7456,4.7983,4.8134,4.8134,4.8309,4.8636,4.8994,4.917,4.9471,4.9866,5.0393,5.0393,4.9992,4.8535,4.9038,4.9597,4.9245,4.9841,5.067,5.8634,5.8535,5.7387,5.6577,5.6027,5.6591,5.7083,5.7574,5.8138,5.8171,5.7873,5.8204,5.7972,5.7356,5.7119,5.6797,5.6284,5.5954,5.5909,5.6117,5.5927,5.6159,5.674,5.6839,5.6911,5.6911,5.7114,5.7148,5.709,5.6848,5.6483,5.5953,5.5324,5.4162,5.2546,5.2785,5.3648,5.494,5.5294,5.5957,5.7064,5.7453,5.7094,5.6013,5.5953,5.5653,5.4999,5.497,5.464,5.3982,5.3204,5.1648,4.9157,4.6292,0.0,0.0,0.0,0.0,0.0,0.0,0.0,0.0,0.0,3.4344,3.4962,0.0,3.7815,0.0,4.0978,4.289,4.4419,4.3218,0.0,0.0,4.2077,4.192,4.2061,4.3331,4.4129,4.4039,4.4827,4.5585,4.6097,4.6125,4.6382,4.7015,4.6284,4.5839,4.6235,4.6763,4.7291,4.7531,4.7933,4.8366,4.8686,4.8912,4.9314,5.0318,5.0092,5.0092,5.0946,5.087,5.082,5.1172,5.1046,5.0971,5.1096,5.1071,5.0996,5.0569,5.0728,5.0845,5.0753,5.1222,5.1749,6.0854,6.0875,6.0875,6.0212,5.9151,5.8866,5.8966,5.9277,5.923,5.9371,5.9624,5.9491,5.9426,5.9414,5.9261,5.8672,5.7714,5.7232,5.6877,5.6607,5.6342,5.6701,5.7543,5.7842,5.8141,5.8411,5.874,5.889,5.889,5.889,5.871,5.8408,5.8381,5.7513,5.5837,5.467,5.4606,5.5653,5.6196,5.6855,5.7543,5.7905,5.7363,5.5833,5.5773,5.5174,5.3922,5.4132,5.3862,5.2911,5.2851,5.1697,4.9212,4.6875,4.4632,0.0,0.0,0.0,0.0,0.0,0.0,0.0,0.0,0.0,0.0,0.0,4.0233,0.0,4.2325,0.0,4.4534,4.3856,4.3651,4.4332,4.4281,4.4424,4.4803,4.5773,4.6322,4.6148,4.6564,4.7133,4.7714,4.7915,4.8245,4.8912,4.846,4.8045,4.8044,4.8529,4.9088,4.9389,4.969,4.9999,5.0318,5.0343,5.0544,5.1096,5.1021,5.1021,5.1624,5.1699,5.1825,5.2352,5.2603,5.2788,5.2788,5.3014,5.3105,5.308,5.2904,5.2578,5.2126,5.2653,5.3306,6.3229,6.3088,6.3121,6.2638,6.1838,6.0565,6.0376,6.0967,6.0043,5.998,6.0525,6.0233,6.0083,6.0083,5.9963,5.9492,5.8681,5.7978,5.7608,5.745,5.6941,5.7334,5.8504,5.9069,5.9668,6.0236,6.0835,6.1076,6.1076,6.1076,6.1074,6.0984,6.0984,6.0356,5.9069,5.6825,5.5923,5.6342,5.7603,5.8234,5.8234,5.8055,5.7124,5.5444,5.5239,5.4341,5.2576,5.2959,5.2587,5.1339,5.128,5.0585,4.9098,4.6587,4.4571,0.0,4.1289,0.0,0.0,0.0,0.0,0.0,0.0,0.0,0.0,4.2296,4.2758,4.3105,4.386,4.4174,4.3729,4.4199,4.5114,4.6469,4.689,4.7205,4.7659,4.7953,4.8181,4.8171,4.8059,4.8362,4.9318,4.9675,5.0017,5.0393,5.0845,5.0803,5.0193,5.0569,5.1096,5.1373,5.1498,5.1599,5.1682,5.1674,5.1808,5.1783,5.1825,5.1758,5.1975,5.2251,5.2628,5.3206,5.3909,5.4471,5.4597,5.4924,5.5164,5.5074,5.4773,5.4295,5.3582,5.3934,5.4938,6.2804,6.2005,6.2005,6.1432,6.0508,6.0198,6.0307,6.0659,6.0201,6.0075,6.0179,6.0115,6.0083,6.0035,5.9234,5.9072,5.9369,5.8434,5.8567,5.9545,5.9425,5.9787,6.0508,6.0685,6.0805,6.0924,6.1044,6.1076,6.1076,6.1076,6.0835,6.0324,6.0296,5.9877,5.9129,0.0,0.0,0.0,5.8231,5.8919,5.8863,5.7842,5.6885,5.6042,5.5504,0.0,5.3862,5.3414,5.2688,5.1578,5.1529,0.0,0.0,0.0,0.0,0.0,0.0,0.0,0.0,0.0,0.0,0.0,4.4174,4.3825,4.2552,4.274,4.3704,4.5571,4.6296,4.6839,4.7179,4.7783,4.7954,4.7532,4.791,4.806,4.7703,4.8415,4.9052,4.9311,4.9643,5.0107,5.0743,5.0954,5.1029,5.1172,5.1599,5.185,5.1674,5.1473,5.1473,5.19,5.2653,5.3206,5.3231,5.3592,5.3768,5.3969,5.3969,5.4094,5.4336,5.4195,5.4295,5.4737,5.4773,5.4622,5.4622,5.4697,5.4898,5.4737,5.5013,5.52,5.4963,5.5089,5.5164,6.5847,0.0,6.4866,6.4046,0.0,6.214,6.1841,6.154,6.0358,5.9935,6.0101,6.0444,6.0598,6.0572,6.0049,6.0024,6.0331,5.9795,5.9939,6.0595,6.0595,6.0954,6.1583,6.1583,6.1762,6.2061,6.2061,6.2061,6.2091,6.2091,6.194,6.1611,6.1581,6.1403,6.1074,6.1044,6.0236,5.859,5.9249,5.9578,5.9578,5.8919,5.7958,5.6701,0.0,0.0,0.0,0.0,0.0,0.0,0.0,0.0,0.0,0.0,0.0,4.6781,4.5811,4.5516,4.6083,4.6137,4.6303,4.6698,4.7016,4.6537,4.5024,4.5307,4.6159,4.7626,4.8041,4.8244,4.8354,4.9105,4.9399,4.8777,4.9286,4.9555,4.9343,4.981,5.0287,5.0434,5.067,5.1046,5.1624,5.1674,5.1925,5.2402,5.2703,5.298,5.3206,5.2829,5.2678,5.3265,5.3743,5.4145,5.416,5.4371,5.4622,5.4597,5.4597,5.4723,5.4938,5.4798,5.4798,5.5265,5.5365,5.5365,5.5426,5.5591,5.5767,5.5767,5.5792,5.5917,5.6093,5.5993,5.5817,6.8169,6.7156,6.713,6.6172,6.4522,6.3826,6.3268,6.2785,0.0,0.0,0.0,6.1224,6.1403,6.1283,6.1255,6.1373,6.1463,6.1463,6.1583,6.1764,6.1822,6.2091,6.26,6.26,6.2899,6.3408,6.3467,6.3438,6.3467,6.3408,6.3408,6.3408,6.3437,6.3378,6.3257,6.3287,6.2419,6.0713,6.0294,6.0114,6.0084,5.9727,5.877,5.7124,5.6765,5.6095,5.5058,5.371,5.2627,5.1874,5.0438,4.9005,4.754,4.6974,4.6408,4.5773,4.5637,4.6027,4.7024,4.7103,4.7757,4.9326,4.9509,4.9035,4.7856,4.8224,4.8777,4.9352,4.9527,4.9477,4.9153,4.9961,5.045,5.0135,5.0664,5.1003,5.0988,5.1262,5.1456,5.1548,5.1674,5.1925,5.2503,5.2603,5.2829,5.3607,5.3808,5.4059,5.4522,5.4135,5.3909,5.4371,5.4597,5.4748,5.4748,5.4898,5.4873,5.4938,5.4949,5.4898,5.4898,5.4898,5.5074,5.5491,5.5917,5.6118,5.6219,5.6408,5.6835,5.686,5.6508,5.6344,5.6684,5.6483,5.6319,6.4427,6.3464,6.3464,6.2764,6.1727,6.216,6.2887,6.367,6.2348,6.2083,6.2689,6.2778,6.2509,6.1942,6.1972,6.2271,6.278,6.281,6.3408,0.0,6.4456,6.4486,6.4575,6.4575,6.4635,6.4725,6.4725,6.4725,6.4725,6.4755,6.4725,6.4695,6.4725,6.4425,6.3917,6.3857,6.3468,6.2689,6.0954,6.0114,6.0084,5.8411,5.7393,5.7068,5.5586,5.4619,5.4417,5.2692,5.1209,5.0213,4.9908,4.9478,4.8861,4.872,4.8816,4.9143,4.9165,4.9244,4.9401,4.9427,4.977,5.0498,5.0969,5.076,4.9662,4.961,4.9897,5.0524,5.1132,5.1566,5.1528,5.1762,5.1797,5.1529,5.1608,5.1578,5.138,5.1758,5.2226,5.2653,5.3105,5.3532,5.3994,5.4145,5.417,5.4421,5.4522,5.4697,5.5039,5.4848,5.4547,5.4647,5.4999,5.5239,5.5315,5.5691,5.5842,5.5968,5.5917,5.5842,5.5842,5.5842,5.5892,5.6043,5.6143,5.6194,5.6219,5.6269,5.6369,5.6394,5.6269,5.6269,5.6358,5.6196,5.6171,6.5839,6.4918,6.4863,6.4223,6.3229,6.3529,6.4216,6.5024,6.4485,6.4186,6.4126,6.4156,6.3977,6.3707,6.3677,6.3857,6.4126,6.4156,6.4455,6.4964,6.4994,6.4994,6.4994,6.4994,6.4994,6.4994,6.4994,6.4994,6.4994,6.4994,6.4815,6.4485,6.4126,6.3797,6.3557,6.3527,6.3377,6.3108,6.221,6.1581,6.1164,6.0266,5.9638,5.9251,5.7715,5.6899,5.69,5.4677,5.3221,5.2745,5.1787,5.1152,5.0952,5.0629,5.0551,5.0812,5.0812,5.0812,5.0812,5.1126,5.1346,5.1476,5.1938,5.1946,5.1238,5.1273,5.1388,5.1612,5.2149,5.2278,5.1946,5.2236,5.2462,5.2396,5.264,5.2909,5.3099,5.3256,5.3567,5.3783,5.4034,5.4321,5.4572,5.4597,5.4748,5.4974,5.5275,5.5541,5.5792,5.5616,5.5465,5.5491,5.5666,5.5817,5.5842,5.6018,5.6194,5.6219,5.6219,5.6219,5.6219,5.6219,5.6219,5.6219,5.6219,5.6219,5.6219,5.6219,5.6219,5.6219,5.6219,5.6219,5.6157,5.5545,5.5214,6.7103,6.6308,6.6308,6.5879,6.5233,6.5054,6.5532,6.64,6.6281,6.6011,6.5682,6.5503,6.5353,6.5233,6.5383,6.5353,6.5263,6.5383,6.5443,6.5443,6.5443,6.5473,6.5443,6.5473,6.5443,6.5443,6.5443,6.5443,6.5473,6.5443,6.5203,6.4665,6.4186,6.3887,6.3766,6.3737,6.3501,6.3089,6.306,6.273,6.2093,6.1686,6.1158,6.0598,5.9045,5.8223,5.8106,5.6019,5.4799,5.4741,5.3477,5.2694,5.2668,5.2276,5.2014,5.2014,5.1988,5.1988,5.204,5.2468,5.273,5.2595,5.2989,5.3152,5.2989,5.3092,5.3049,5.2789,5.295,5.2979,5.275,5.2877,5.3112,5.3316,5.3658,5.4019,5.4496,5.4597,5.4672,5.4748,5.4773,5.4823,5.4924,5.4974,5.5175,5.5566,5.5942,5.6194,5.6219,5.6219,5.6219,5.6219,5.6219,5.6194,5.6219,5.6194,5.6219,5.6219,5.6219,5.6219,5.6219,5.6219,5.6219,5.6219,5.6219,5.6219,5.6182,5.5791,5.5607,5.5435,5.5078,5.488,5.4745,5.3975,5.375,6.5291,6.5172,6.5232,6.5443,6.5832,6.5263,6.6071,6.7568,6.7179,6.7208,6.7508,6.7059,6.643,6.6041,6.652,6.643,6.5981,6.652,6.6759,6.6759,6.6819,6.6789,6.6759,6.6759,6.6819,6.6759,6.6729,6.67,6.667,6.67,6.676,6.6729,6.664,6.6161,6.5712,6.5622,6.4751,6.2973,6.2911,6.2672,6.2039,6.0293,5.9335,5.9248,5.6905,5.5527,5.5764,5.4283,5.3593,5.3567,5.347,5.3321,5.3321,5.3269,5.3217,5.3243,5.3243,5.3243,5.3263,5.3472,5.3786,5.4211,5.4397,5.4602,5.474,5.5044,5.4851,5.4108,5.4022,5.4267,5.4711,5.4517,5.4316,5.4346,5.4471,5.4547,5.4672,5.4597,5.4798,5.5265,5.5315,5.5491,5.5842,5.5917,5.5993,5.6018,5.6118,5.6219,5.6219,5.6219,5.6219,5.6219,5.6219,5.6219,5.6219,5.6219,5.6219,5.6219,5.6219,5.6219,5.6219,5.6219,5.6219,5.6219,5.6011,5.5937,5.5717,5.5078,5.3975,5.4171,5.3394,5.2054,5.1816,5.1693,5.2139,6.6191,6.6191,6.6191,6.634,6.652,6.6311,6.664,6.7328,6.7119,6.7148,6.7358,6.7089,6.688,6.661,6.6879,6.6849,6.661,6.6879,6.6999,6.6999,6.6999,6.6999,6.6999,6.6999,6.6999,6.6999,6.6999,6.6999,6.6909,6.661,6.64,6.637,6.6041,6.529,6.4263,6.4172,6.3349,6.1744,6.1652,6.1534,6.1221,6.0194,5.9548,5.9366,5.7445,5.63,5.6173,5.5093,5.4393,5.4393,5.4419,5.4393,5.4393,5.4419,5.455,5.483,5.4969,5.505,5.5042,5.491,5.4843,5.4858,5.4949,5.4934,5.4819,5.4951,5.492,5.4869,5.4803,5.4819,5.4845,5.4693,5.4723,5.4999,5.5074,5.52,5.5516,5.5541,5.5641,5.5842,5.5892,5.5942,5.6143,5.6219,5.6219,5.6219,5.6219,5.6219,5.6219,5.6219,5.6219,5.6219,5.6219,5.6219,5.6219,5.6219,5.6219,5.6219,5.6219,5.6219,5.6047,5.6219,5.6219,5.6146,5.5349,5.4806,5.467,5.3549,5.245,5.2785,5.3424,5.2596,5.1515,5.0485,5.0366,6.6999,6.6999,6.6999,6.6999,6.6999,6.6999,6.7089,6.7269,6.7268,6.7299,6.7299,6.7299,6.7148,6.7029,6.7178,6.7178,6.7029,6.7209,6.7148,6.6999,6.6999,6.6999,6.6999,6.6999,6.6999,6.6999,6.6907,6.6876,6.6786,6.6092,6.5702,6.5582,6.4831,6.3888,6.2985,6.2891,6.2164,6.0905,6.0741,6.0572,6.016,5.9604,5.9386,5.9418,5.7928,5.7019,5.7019,5.6113,5.5569,5.5569,5.5569,5.5569,5.5569,5.5569,5.5684,5.5914,5.5986,5.6011,5.6037,5.5662,5.5449,5.533,5.5249,5.5148,5.506,5.5013,5.5225,5.5527,5.548,5.5289,5.5085,5.5049,5.5214,5.5566,5.5616,5.5792,5.6118,5.6219,5.6168,5.6219,5.6168,5.6219,5.6219,5.6219,5.6219,5.6219,5.6219,5.6219,5.6219,5.6219,5.6219,5.6219,5.6219,5.6219,5.6219,5.6219,5.612,5.5545,5.5398,5.5177,5.5066,5.4819,5.4819,5.3812,5.3446,5.321,5.2985,5.1963,5.0659,5.1436,5.1798,5.1487,4.9741,4.8767,4.8293,6.6999,6.6999,6.6999,6.6999,6.6999,6.6999,6.7358,6.7838,6.7898,6.7928,6.7838,6.7868,6.7567,6.7059,6.7567,6.7567,6.7119,6.7567,6.7477,6.6967,6.6968,6.6999,6.6999,6.6999,6.6968,6.6876,6.666,6.6506,6.6445,6.5482,6.4946,6.4888,6.365,6.2863,6.2671,6.2643,6.2031,6.0573,6.0464,5.9962,5.8806,5.8166,5.8274,5.8677,5.7554,5.6846,5.6804,5.6762,5.6693,5.6719,5.6667,5.6667,5.6693,5.6659,5.6513,5.6219,5.5863,5.5679,5.5669,5.5404,5.5371,5.574,5.5591,5.5602,5.5917,5.5968,5.6018,5.6143,5.6079,5.6054,5.6018,5.5942,5.6018,5.6093,5.6143,5.6168,5.6194,5.6219,5.6219,5.6219,5.6219,5.6219,5.6219,5.6219,5.6219,5.6219,5.6219,5.6219,5.6219,5.6219,5.6219,5.6219,5.6219,5.6219,5.6219,5.6219,5.5509,5.5041,5.4782,5.3836,5.2389,5.1524,5.1777,5.1916,5.2163,5.2044,5.1407,5.0339,4.8965,4.8624,4.8336,4.7754,4.792,4.6939,4.6705,6.6999,6.6999,6.6999,6.6999,6.6999,6.6999,6.7119,6.7328,6.7389,6.7328,6.7358,6.7358,6.7116,6.6691,6.6929,6.69,6.6721,6.6929,6.6776,6.6382,6.6382,6.6351,6.6351,6.6351,6.6351,6.6351,6.6226,6.6164,6.6039,6.4848,6.4307,6.4303,6.3108,6.2014,6.1301,6.1301,6.0551,5.9079,5.9114,5.9,5.8532,5.8314,5.8359,5.8514,5.744,5.6789,5.6789,5.6789,5.6789,5.6789,5.6789,5.6694,5.6444,5.6547,5.6552,5.6428,5.6382,5.6372,5.6336,5.6013,5.5872,5.6049,5.599,5.5968,5.6168,5.6219,5.6219,5.6219,5.6219,5.6219,5.6219,5.6219,5.6219,5.6219,5.6219,5.6219,5.6219,5.6219,5.6219,5.6219,5.6219,5.6219,5.6219,5.6219,5.6219,5.6219,5.6219,5.6219,5.6219,5.6219,5.6219,5.6219,5.6219,5.6219,5.6219,5.6219,5.5937,5.5681,5.5337,5.515,5.4224,5.3371,5.3556,5.1917,5.1741,5.0783,5.0087,4.9471,4.8003,4.7115,4.6643,4.6741,4.6511,4.6333,4.6306,6.7149,6.7298,6.7298,6.7448,6.7627,6.7627,6.7657,6.7627,6.7503,6.7472,6.7441,6.7348,6.7161,6.6914,6.6736,6.6553,6.6461,6.6407,6.6226,6.6007,6.6037,6.6037,6.6037,6.6037,6.6037,6.6007,6.6037,6.5727,6.5002,6.3785,6.307,6.2679,6.1375,6.0208,5.9402,5.9437,5.8903,5.7963,5.8025,5.8167,5.8132,5.8132,5.8132,5.8063,5.7414,5.7129,5.7312,5.7233,5.7138,5.7138,5.7059,5.6884,5.663,5.6585,5.6612,5.6627,5.6573,5.662,5.6583,5.6365,5.6194,5.6219,5.6219,5.6219,5.6219,5.6219,5.6219,5.6219,5.6219,5.6219,5.6219,5.6219,5.6219,5.6219,5.6219,5.6219,5.6219,5.6219,5.6219,5.6219,5.6219,5.6219,5.6219,5.6219,5.6219,5.6219,5.6219,5.6219,5.6219,5.6219,5.6219,5.6244,5.642,5.6127,5.5708,5.5396,5.4547,5.4183,5.4035,5.4592,5.4339,5.406,5.3491,5.2019,5.0755,4.9621,4.8839,4.8355,4.7545,4.6617,4.661,4.6753,4.6544,4.6318,4.6283,6.7449,6.7987,6.8017,6.8347,6.8794,6.8763,6.8882,6.873,6.8413,6.8197,6.8135,6.7996,6.7749,6.7685,6.7125,6.676,6.6481,6.626,6.6031,6.5912,6.5913,6.5913,6.5882,6.5882,6.5756,6.5694,6.5851,6.4938,6.3296,6.2142,6.0968,5.9654,5.848,5.7856,5.7487,5.7641,5.7559,5.7415,5.7451,5.7451,5.7415,5.7487,5.7487,5.7487,5.741,5.762,5.8312,5.7992,5.7736,5.7752,5.7528,5.739,5.7215,5.6942,5.675,5.6653,5.6412,5.6255,5.6255,5.6219,5.6219,5.6219,5.6219,5.6219,5.6219,5.6219,5.6219,5.6219,5.6219,5.6219,5.6219,5.6219,5.6219,5.6219,5.6219,5.6219,5.6219,5.6219,5.6219,5.6219,5.6219,5.6219,5.6219,5.6219,5.6219,5.6219,5.6219,5.6219,5.6219,5.6219,5.6219,5.6161,5.6054,5.5719,5.5058,5.4342,5.3062,5.2055,5.1963,5.2009,5.1006,5.0542,5.0612,4.9479,4.8819,4.7783,4.7734,4.729,4.7028,4.637,4.6575,4.6682,4.6464,4.6308,4.6308,6.8495,6.8675,6.8706,6.8794,6.8942,6.8721,6.8593,6.8562,6.821,6.8052,6.805,6.7953,6.7792,6.7568,6.7331,6.7081,6.6759,6.6591,6.616,6.5492,6.5346,6.5346,6.5346,6.5314,6.4778,6.3915,6.3785,6.2972,6.147,6.0112,5.9236,5.8877,5.7651,5.7019,5.7019,5.7235,5.7271,5.7055,5.7271,5.7379,5.7405,5.7379,5.7379,5.7405,5.7379,5.7523,5.7703,5.7631,5.7559,5.7559,5.7451,5.7271,5.6982,5.662,5.6401,5.634,5.6292,5.6219,5.6219,5.6219,5.6219,5.6219,5.6219,5.6219,5.6219,5.6219,5.6219,5.6219,5.6219,5.6219,5.6219,5.6219,5.6219,5.6219,5.6219,5.6194,5.6168,5.6194,5.6219,5.6219,5.6219,5.6219,5.6219,5.6219,5.6219,5.6219,5.6194,5.6168,5.6182,5.6036,5.5781,5.5234,5.514,5.4684,5.3538,5.2633,5.168,5.0848,5.0535,5.0274,4.9002,4.8253,4.8147,4.7783,4.7021,4.6639,4.6555,4.6483,4.6352,4.6308,4.642,4.642,4.6352,4.6308,4.6308,6.9153,6.9363,6.9236,6.9291,6.9468,6.9114,6.8953,6.892,6.8596,6.8432,6.84,6.8269,6.8137,6.791,6.7673,6.7458,6.7264,6.6999,6.648,6.5722,6.5402,6.5344,6.5158,6.4479,6.3394,6.2242,6.1975,6.1206,5.9793,5.8912,5.8241,5.783,5.7029,5.6583,5.6583,5.6801,5.6801,5.6656,5.6801,5.6946,5.6946,5.6946,5.6946,5.6946,5.6946,5.6946,5.6946,5.6946,5.7019,5.7127,5.7055,5.6837,5.6583,5.6328,5.6219,5.6219,5.6219,5.6219,5.6219,5.6219,5.6219,5.6219,5.6219,5.6219,5.6219,5.6219,5.6219,5.6219,5.6219,5.6219,5.6219,5.6219,5.6219,5.6219,5.6219,5.6118,5.5993,5.5892,5.5892,5.5917,5.6068,5.6168,5.6219,5.6219,5.6219,5.6194,5.6043,5.5729,5.5583,5.53,5.466,5.408,5.3897,5.303,5.1653,5.0819,5.0213,4.9714,4.9339,4.9028,4.8311,4.7947,4.777,4.7316,4.6651,4.6477,4.6396,4.6396,4.6308,4.6308,4.6308,4.6308,4.6308,4.6308,4.6308,6.9451,6.9895,6.9605,6.9803,7.0183,6.9884,6.9689,6.9744,6.9349,6.9153,6.9115,6.8826,6.8745,6.8625,6.8198,6.7961,6.7874,6.7405,6.7173,6.6788,6.6222,6.5712,6.5376,6.3801,6.2151,6.079,6.0618,5.9742,5.8347,5.8099,5.759,5.651,5.634,5.6219,5.6292,5.6255,5.6292,5.6292,5.6292,5.6292,5.6292,5.6255,5.6292,5.6292,5.6292,5.6328,5.6328,5.6328,5.6438,5.6692,5.6474,5.6328,5.6255,5.6219,5.6219,5.6219,5.6219,5.6219,5.6219,5.6219,5.6219,5.6219,5.6219,5.6219,5.6219,5.6219,5.6219,5.6219,5.6219,5.6219,5.6219,5.6219,5.6194,5.6143,5.6068,5.5867,5.5415,5.534,5.534,5.5415,5.5792,5.6093,5.5968,5.5968,5.6018,5.597,5.561,5.5004,5.4662,5.4251,5.3377,5.2873,5.2582,5.1519,5.0173,4.9427,4.8815,4.8371,4.8096,4.7901,4.7637,4.7437,4.7238,4.6817,4.6527,4.6396,4.6308,4.6308,4.6308,4.6308,4.6308,4.6308,4.6308,4.6308,4.6308,7.0209,6.9963,7.0064,7.0117,7.0002,6.9637,6.947,6.9404,6.9098,6.8963,6.8929,6.8862,6.8794,6.8765,6.862,6.8596,6.8446,6.8296,6.8272,6.7988,6.6377,6.5402,6.4725,6.3218,6.1399,5.981,5.9518,5.8586,5.691,5.6946,5.6656,5.6255,5.6219,5.6219,5.6219,5.6219,5.6219,5.6219,5.6219,5.6219,5.6219,5.6219,5.6219,5.6219,5.6219,5.6219,5.6219,5.6219,5.6255,5.6328,5.6292,5.6219,5.6219,5.6219,5.6219,5.6219,5.6219,5.6219,5.6219,5.6219,5.6219,5.6219,5.6219,5.6219,5.6219,5.6219,5.6219,5.6219,5.6219,5.6219,5.6219,5.6194,5.6043,5.5691,5.5591,5.534,5.4949,5.4823,5.4823,5.4848,5.4974,5.5099,5.5125,5.5175,5.5229,5.5313,5.4831,5.4036,5.3666,5.3086,5.2228,5.1528,5.0936,4.9868,4.8877,4.8123,4.7428,4.6931,4.6805,4.6872,4.6757,4.671,4.6555,4.6352,4.6396,4.6308,4.6308,4.6308,4.6308,4.6308,4.6308,4.6308,4.6308,4.6308,4.6308,7.0265,6.9903,6.9936,6.9836,6.9604,6.9236,6.9068,6.9064,6.8895,6.8794,6.8794,6.8794,6.8794,6.8794,6.8794,6.8794,6.8726,6.8124,6.7788,6.7323,6.5052,6.3526,6.2609,6.1639,6.0405,5.8852,5.8654,5.787,5.6793,5.6508,5.6445,5.6244,5.6219,5.6219,5.6219,5.6219,5.6219,5.6219,5.6219,5.6219,5.6219,5.6219,5.6219,5.6219,5.6219,5.6219,5.6219,5.6219,5.6219,5.6219,5.6219,5.6219,5.6219,5.6219,5.6219,5.6219,5.6219,5.6219,5.6219,5.6219,5.6219,5.6219,5.6219,5.6219,5.6219,5.6219,5.6219,5.6219,5.6219,5.6219,5.6168,5.6018,5.5616,5.5175,5.4838,5.4561,5.421,5.421,5.4245,5.427,5.4446,5.4597,5.4622,5.4773,5.4655,5.4399,5.4019,5.3129,5.229,5.169,5.0987,5.0154,4.947,4.8556,4.8016,4.7361,4.703,4.6464,4.6333,4.6308,4.6308,4.6308,4.6308,4.6308,4.6308,4.6308,4.6308,4.6308,4.6308,4.6308,4.6308,4.6308,4.6308,4.6308,4.6308,6.9748,6.9652,6.9261,6.9153,6.9174,6.8842,6.8712,6.8794,6.8794,6.8794,6.8794,6.8794,6.8794,6.8794,6.8794,6.8794,6.8697,6.7374,6.6307,6.5289,6.3321,6.1563,6.0551,6.0388,5.9473,5.8352,5.8014,5.77,5.7211,5.7085,5.6784,5.6495,5.6344,5.6269,5.6244,5.6219,5.6219,5.6219,5.6219,5.6219,5.6219,5.6219,5.6219,5.6219,5.6219,5.6219,5.6219,5.6219,5.6219,5.6219,5.6219,5.6219,5.6219,5.6219,5.6219,5.6219,5.6219,5.6219,5.6219,5.6219,5.6219,5.6219,5.6219,5.6219,5.6219,5.6219,5.6219,5.6219,5.6219,5.6168,5.5968,5.5616,5.5089,5.4572,5.3984,5.3683,5.3632,5.3632,5.3607,5.3632,5.4084,5.4371,5.4612,5.4663,5.4495,5.3751,5.3072,5.18,5.0898,5.0158,4.9385,4.8534,4.7883,4.7295,4.6967,4.6682,4.6551,4.6308,4.6308,4.6308,4.6308,4.6308,4.6308,4.6308,4.6308,4.6308,4.6308,4.6308,4.6308,4.6308,4.6308,4.6308,4.6308,4.6308,4.6308,6.8774,6.8282,6.7955,6.8235,6.8755,6.8339,6.8363,6.8794,6.8794,6.8794,6.8794,6.8794,6.8794,6.8794,6.8726,6.8794,6.8426,6.693,6.5324,6.2783,6.2338,6.0936,5.9896,5.9681,5.9237,5.8629,5.8529,5.8227,5.7826,5.7675,5.7387,5.6885,5.6809,5.6609,5.6294,5.6294,5.6219,5.6219,5.6219,5.6219,5.6219,5.6219,5.6219,5.6219,5.6219,5.6219,5.6219,5.6219,5.6219,5.6219,5.6219,5.6219,5.6219,5.6219,5.6219,5.6219,5.6219,5.6219,5.6219,5.6219,5.6219,5.6219,5.6269,5.6219,5.6219,5.6269,5.6269,5.6219,5.6194,5.6143,5.5717,5.515,5.4597,5.4034,5.3482,5.3096,5.3071,5.3071,5.3096,5.3146,5.3221,5.3422,5.3753,5.3152,5.3046,5.2989,5.1977,5.0491,4.9521,4.865,4.811,4.7441,4.7181,4.6832,4.6745,4.6571,4.6396,4.6308,4.6308,4.6308,4.6308,4.6308,4.6308,4.6308,4.6308,4.6308,4.6308,4.6308,4.6308,4.6308,4.6308,4.6308,4.6308,4.6308,4.6308,6.841,6.8281,6.7807,6.8065,6.8683,6.8479,6.8509,6.8736,6.8794,6.8794,6.8794,6.8794,6.8794,6.8726,6.8056,6.7684,6.7138,6.5289,6.3042,6.1153,6.0698,6.0265,5.9753,5.9483,5.9332,5.9106,5.9081,5.878,5.8428,5.8227,5.8001,5.7437,5.7412,5.7111,5.6634,5.6559,5.6445,5.6244,5.6219,5.6219,5.6219,5.6219,5.6219,5.6219,5.6219,5.6219,5.6219,5.6219,5.6219,5.6219,5.6219,5.6219,5.6219,5.6219,5.6219,5.6219,5.6219,5.6219,5.6219,5.6219,5.6219,5.6244,5.6408,5.6533,5.6696,5.6821,5.6997,5.6997,5.6947,5.6721,5.5867,5.5024,5.4396,5.3758,5.3196,5.292,5.2895,5.2895,5.2895,5.2895,5.2945,5.2874,5.2659,5.2162,5.1361,5.1275,5.1316,4.9895,4.8148,4.7412,4.7374,4.6963,4.6789,4.6614,4.6571,4.6483,4.6352,4.6308,4.6308,4.6308,4.6308,4.6308,4.6308,4.6308,4.6308,4.6308,4.6308,4.6308,4.6308,4.6308,4.6308,4.6308,4.6308,4.6308,4.6308,6.8189,6.8625,6.7986,6.8131,6.8707,6.8678,6.8649,6.8794,6.8794,6.8794,6.8692,6.8625,6.8193,6.8056,6.679,6.6131,6.5074,6.3482,6.1316,5.9946,5.9792,5.9676,5.9508,5.9483,5.9483,5.9508,5.9433,5.9182,5.893,5.8805,5.8554,5.8102,5.8027,5.77,5.7261,5.7111,5.6885,5.6495,5.642,5.6319,5.6244,5.6219,5.6219,5.6219,5.6219,5.6319,5.6369,5.642,5.642,5.647,5.647,5.647,5.6445,5.6244,5.6294,5.6319,5.642,5.652,5.6646,5.6595,5.6595,5.6495,5.6835,5.7085,5.7273,5.7474,5.7675,5.7775,5.7675,5.7298,5.6319,5.5365,5.4486,5.3808,5.3196,5.2817,5.2619,5.2575,5.2501,5.2412,5.2386,5.2397,5.2076,5.1601,5.0527,4.9647,4.9702,4.928,4.7541,4.652,4.6627,4.6658,4.6527,4.6483,4.644,4.644,4.6308,4.6308,4.6308,4.6308,4.6308,4.6308,4.6308,4.6308,4.6308,4.6308,4.6308,4.6308,4.6308,4.6308,4.6308,4.6308,4.6308,4.6308,4.6308,6.7961,6.7986,6.7318,6.7725,6.862,6.8276,6.8392,6.8736,6.8726,6.8794,6.8562,6.7443,6.6895,6.6483,6.5253,6.3929,6.282,6.173,6.085,5.9676,5.9508,5.9508,5.9508,5.9508,5.9508,5.9508,5.9508,5.9408,5.9357,5.9332,5.9031,5.8679,5.8541,5.8303,5.7901,5.7725,5.7474,5.6997,5.6897,5.6684,5.647,5.6394,5.6394,5.6394,5.642,5.657,5.6784,5.6885,5.7085,5.7549,5.7625,5.76,5.7349,5.6721,5.6545,5.6784,5.6885,5.701,5.7349,5.7524,5.7575,5.7625,5.77,5.775,5.7775,5.7876,5.8077,5.8027,5.7901,5.7474,5.6344,5.5666,5.4813,5.3984,5.3138,5.2442,5.1603,5.1399,5.1355,5.0937,5.1345,5.1725,5.1257,5.0734,4.9971,4.9037,4.8693,4.8387,4.7221,4.6501,4.6381,4.6396,4.6352,4.6352,4.6308,4.6352,4.6308,4.6308,4.6308,4.6308,4.6308,4.6308,4.6308,4.6308,4.6308,4.6308,4.6308,4.6308,4.6308,4.6308,4.6308,4.6308,4.6308,4.6308,4.6308,6.8073,6.8276,6.7667,6.7957,6.8683,6.8509,6.8538,6.8663,6.7988,6.7616,6.7138,6.6061,6.5324,6.4895,6.3665,6.2078,6.0976,6.0584,6.015,5.9521,5.9508,5.9508,5.9508,5.9508,5.9508,5.9508,5.9508,5.9508,5.9508,5.9483,5.9357,5.9207,5.9131,5.8855,5.8453,5.8303,5.8001,5.76,5.7449,5.7349,5.7097,5.7072,5.7072,5.7072,5.7072,5.7223,5.7374,5.7474,5.76,5.7826,5.7876,5.7901,5.7675,5.7298,5.6897,5.7374,5.7437,5.7575,5.7851,5.7901,5.7851,5.7926,5.8152,5.8303,5.8403,5.8554,5.8654,5.8654,5.834,5.8001,5.7198,5.6344,5.5465,5.457,5.3424,5.2252,5.1513,5.1037,5.0215,4.9508,5.0155,5.0445,5.0137,4.9667,4.925,4.8586,4.7888,4.7295,4.6789,4.6527,4.6308,4.6308,4.6308,4.6308,4.6308,4.6308,4.6308,4.6308,4.6308,4.6308,4.6308,4.6308,4.6308,4.6308,4.6308,4.6308,4.6308,4.6308,4.6308,4.6308,4.6308,4.6308,4.6308,4.6308,4.6308,6.8247,6.8736,6.816,6.8247,6.8736,6.8794,6.8794,6.8494,6.7173,6.6616,6.6237,6.4644,6.3711,6.3336,6.2078,6.066,5.9547,5.956,5.956,5.9521,5.9508,5.9508,5.9508,5.9508,5.9508,5.9508,5.9508,5.9508,5.9508,5.9508,5.9508,5.9433,5.9458,5.9332,5.8956,5.8842,5.8529,5.8227,5.8052,5.8027,5.7926,5.7901,5.7901,5.7901,5.7901,5.7901,5.8027,5.8052,5.8052,5.8102,5.8102,5.8102,5.8001,5.7625,5.765,5.8077,5.8027,5.7976,5.8102,5.8278,5.8378,5.8428,5.8679,5.883,5.893,5.9131,5.9408,5.9433,5.9156,5.8616,5.7976,5.7173,5.6394,5.544,5.3851,5.2206,5.1524,5.0641,4.9146,4.8857,4.9218,4.9074,4.8631,4.8857,4.8459,4.8073,4.7338,4.7034,4.6614,4.644,4.6308,4.6308,4.6308,4.6308,4.6308,4.6308,4.6308,4.6308,4.6308,4.6308,4.6308,4.6308,4.6308,4.6308,4.6308,4.6308,4.6308,4.6308,4.6308,4.6308,4.6308,4.6308,4.6308,4.6308,4.6308,6.8247,6.8736,6.816,6.8247,6.8736,6.8697,6.876,6.8494,6.693,6.6483,6.592,6.3482,6.2078,6.1767,6.0584,5.9753,5.9521,5.9508,5.9508,5.9508,5.9508,5.9508,5.9508,5.9508,5.9508,5.9508,5.9508,5.9508,5.9508,5.9508,5.9508,5.9508,5.9483,5.9433,5.9332,5.9282,5.9131,5.8666,5.8591,5.8403,5.8077,5.8001,5.8001,5.8001,5.8027,5.8202,5.8579,5.8629,5.8629,5.8566,5.8591,5.8591,5.8604,5.8566,5.8805,5.8855,5.8579,5.8127,5.8579,5.8905,5.9106,5.9081,5.9282,5.9382,5.9357,5.9382,5.9508,5.9508,5.9382,5.8964,5.8362,5.7901,5.7374,5.5917,5.4007,5.24,5.1432,4.9728,4.8266,4.7729,4.7997,4.7506,4.7021,4.7419,4.7687,4.7271,4.692,4.6658,4.6483,4.6352,4.6308,4.6308,4.6308,4.6308,4.6308,4.6308,4.6308,4.6308,4.6308,4.6308,4.6308,4.6308,4.6308,4.6308,4.6308,4.6308,4.6308,4.6308,4.6308,4.6308,4.6308,4.6308,4.6308,4.6308,4.6308,6.7492,6.7754,6.7841,6.8015,6.8205,6.7747,6.7512,6.6964,6.4931,6.3847,6.3446,6.1579,6.0469,6.038,5.9714,5.9521,5.9508,5.9508,5.9508,5.9508,5.9508,5.9508,5.9508,5.9508,5.9508,5.9508,5.9508,5.9508,5.9508,5.9508,5.9508,5.9508,5.9508,5.9483,5.9508,5.9508,5.9357,5.9207,5.9131,5.9056,5.8855,5.8805,5.878,5.878,5.878,5.8905,5.9056,5.9156,5.9156,5.9156,5.9156,5.9156,5.9081,5.8905,5.8792,5.893,5.8654,5.8654,5.9081,5.9382,5.9458,5.9508,5.9508,5.9483,5.9508,5.9444,5.9444,5.9508,5.9508,5.8907,5.7819,5.7197,5.6197,5.4911,5.3218,5.1921,5.0415,4.8805,4.744,4.7091,4.6758,4.657,4.6421,4.6826,4.7184,4.6856,4.6658,4.6527,4.6396,4.6352,4.6308,4.6308,4.6308,4.6308,4.6308,4.6308,4.6308,4.6308,4.6308,4.6308,4.6308,4.6308,4.6308,4.6308,4.6308,4.6308,4.6308,4.6308,4.6308,4.6308,4.6308,4.6308,4.6308,4.6328,4.6406,6.6632,6.6186,6.6647,6.7051,6.717,6.6025,6.5648,6.5573,6.2928,6.1723,6.1365,6.0304,5.956,5.9508,5.9521,5.9508,5.9508,5.9508,5.9508,5.9508,5.9508,5.9508,5.9508,5.9508,5.9508,5.9508,5.9508,5.9508,5.9508,5.9508,5.9508,5.9508,5.9508,5.9508,5.9508,5.9508,5.9458,5.9433,5.9433,5.9433,5.9408,5.9433,5.9433,5.9458,5.9483,5.9508,5.9508,5.9483,5.9458,5.9232,5.9182,5.9156,5.9131,5.8842,5.8855,5.8981,5.893,5.9056,5.9307,5.9483,5.9508,5.9508,5.9508,5.9508,5.9405,5.9289,5.8837,5.8642,5.7952,5.7297,5.6526,5.5732,5.5033,5.3463,5.1664,5.0513,4.9398,4.8084,4.7208,4.7004,4.6753,4.6548,4.6524,4.6647,4.6658,4.6396,4.6308,4.6308,4.6308,4.6308,4.6308,4.6308,4.6308,4.6308,4.6308,4.6308,4.6308,4.6308,4.6308,4.6308,4.6308,4.6308,4.6308,4.6308,4.6308,4.6308,4.6308,4.6308,4.6308,4.6308,4.6308,4.6308,4.6308,4.6367,4.6621,6.5749,6.4014,6.4099,6.468,6.5505,6.3589,6.342,6.4129,6.1995,6.1275,6.1328,6.0265,5.9508,5.9508,5.9508,5.9508,5.9508,5.9508,5.9508,5.9508,5.9508,5.9508,5.9508,5.9508,5.9508,5.9508,5.9508,5.9508,5.9508,5.9508,5.9508,5.9508,5.9508,5.9508,5.9508,5.9508,5.9508,5.9508,5.9508,5.9508,5.9508,5.9508,5.9508,5.9508,5.9508,5.9508,5.9508,5.9508,5.9357,5.8981,5.9006,5.9006,5.9031,5.8892,5.9006,5.9232,5.9307,5.9382,5.9483,5.9508,5.9508,5.9508,5.9328,5.9134,5.8993,5.777,5.7257,5.6956,5.6175,5.513,5.4499,5.4006,5.3379,5.208,5.0456,4.9744,4.8731,4.7791,4.7025,4.6927,4.6726,4.6464,4.6396,4.6527,4.6527,4.6352,4.6308,4.6308,4.6308,4.6308,4.6308,4.6308,4.6308,4.6308,4.6308,4.6308,4.6308,4.6308,4.6308,4.6308,4.6308,4.6308,4.6308,4.6308,4.6308,4.6308,4.6308,4.6308,4.6308,4.6308,4.6308,4.6348,4.6543,4.6719,4.7031,6.5199,6.3628,6.1792,6.2011,6.3511,6.2158,6.2003,6.2355,6.0883,6.0189,6.0393,5.9792,5.9508,5.9508,5.9508,5.9508,5.9508,5.9508,5.9508,5.9508,5.9508,5.9508,5.9508,5.9508,5.9508,5.9508,5.9508,5.9508,5.9508,5.9508,5.9508,5.9508,5.9508,5.9508,5.9508,5.9508,5.9508,5.9508,5.9508,5.9508,5.9508,5.9508,5.9508,5.9508,5.9508,5.9508,5.9508,5.9508,5.9357,5.9257,5.9182,5.9156,5.9156,5.9156,5.9257,5.9458,5.9483,5.9508,5.9469,5.9508,5.9508,5.9212,5.8603,5.7913,5.781,5.6319,5.5493,5.4969,5.4319,5.3314,5.2282,5.1783,5.1134,5.0104,4.9296,4.8697,4.8073,4.7161,4.6813,4.6638,4.6507,4.6352,4.6308,4.6308,4.6352,4.6308,4.6308,4.6308,4.6308,4.6308,4.6308,4.6308,4.6308,4.6308,4.6308,4.6308,4.6308,4.6308,4.6308,4.6308,4.6308,4.6308,4.6308,4.6308,4.6308,4.6308,4.6308,4.6308,4.6308,4.6308,4.6367,4.6426,4.668,4.7051,4.7461,6.4506,6.2755,6.0429,6.0222,6.1247,6.0117,5.9965,6.0345,5.9288,5.9006,5.9257,5.9382,5.9508,5.9508,5.9508,5.9508,5.9508,5.9508,5.9508,5.9508,5.9508,5.9508,5.9508,5.9508,5.9508,5.9508,5.9508,5.9508,5.9508,5.9508,5.9508,5.9508,5.9508,5.9508,5.9508,5.9508,5.9508,5.9508,5.9508,5.9508,5.9508,5.9508,5.9508,5.9508,5.9508,5.9508,5.9508,5.9508,5.9483,5.9458,5.9458,5.9483,5.9483,5.9508,5.9508,5.9508,5.9508,5.9508,5.9405,5.8954,5.8759,5.8344,5.702,5.6319,5.5734,5.4563,5.3583,5.3172,5.2489,5.1513,5.0104,4.9573,4.9147,4.8288,4.7771,4.7228,4.7141,4.6595,4.6483,4.6333,4.6308,4.6308,4.6308,4.6308,4.6308,4.6308,4.6308,4.6308,4.6308,4.6308,4.6308,4.6308,4.6308,4.6308,4.6308,4.6308,4.6308,4.6308,4.6308,4.6308,4.6308,4.6308,4.6308,4.6308,4.6308,4.6308,4.6308,4.6308,4.6308,4.6308,4.6465,4.6719,4.7266,4.7656,4.793,6.3723,6.1133,6.0326,5.9757,5.9205,5.7226,5.717,5.8277,5.7675,5.7838,5.8755,5.9182,5.9433,5.9433,5.9433,5.9508,5.9508,5.9508,5.9508,5.9508,5.9508,5.9508,5.9508,5.9508,5.9508,5.9508,5.9508,5.9508,5.9508,5.9508,5.9508,5.9508,5.9508,5.9508,5.9508,5.9508,5.9508,5.9508,5.9508,5.9508,5.9508,5.9508,5.9508,5.9508,5.9508,5.9508,5.9508,5.9508,5.9508,5.9508,5.9508,5.9508,5.9508,5.9508,5.9508,5.9508,5.9508,5.9469,5.9328,5.7834,5.7035,5.6916,5.5734,5.4441,5.3993,5.2865,5.1534,5.1199,4.9955,4.8803,4.7941,4.7508,4.7248,4.703,4.6595,4.642,4.644,4.6396,4.6352,4.6308,4.6308,4.6308,4.6308,4.6308,4.6308,4.6308,4.6308,4.6308,4.6308,4.6308,4.6308,4.6308,4.6308,4.6308,4.6308,4.6308,4.6308,4.6308,4.6308,4.6308,4.6308,4.6308,4.6308,4.6308,4.6308,4.6308,4.6308,4.6328,4.6543,4.6797,4.6914,4.7162,4.7773,4.8203,4.8398,6.2252,6.088,5.9672,5.8866,5.8282,5.766,5.7575,5.7826,5.7725,5.7826,5.8227,5.8755,5.8981,5.9056,5.9357,5.9508,5.9508,5.9508,5.9508,5.9508,5.9508,5.9508,5.9508,5.9508,5.9508,5.9508,5.9508,5.9508,5.9508,5.9508,5.9508,5.9508,5.9508,5.9508,5.9508,5.9508,5.9508,5.9508,5.9508,5.9508,5.9508,5.9508,5.9508,5.9508,5.9508,5.9508,5.9508,5.9508,5.9508,5.9508,5.9508,5.9508,5.9508,5.9508,5.9444,5.9444,5.9405,5.8876,5.7415,5.5637,5.4766,5.4969,5.4278,5.2658,5.2368,5.0632,4.9679,4.921,4.8351,4.7508,4.7224,4.6876,4.6614,4.6571,4.6352,4.6352,4.6352,4.6352,4.6308,4.6308,4.6308,4.6308,4.6308,4.6308,4.6308,4.6308,4.6308,4.6308,4.6308,4.6308,4.6308,4.6308,4.6308,4.6308,4.6308,4.6308,4.6308,4.6308,4.6308,4.6308,4.6308,4.6308,4.6308,4.6308,4.6308,4.6308,4.6426,4.6621,4.709,4.7363,4.7519,4.7656,4.8066,4.8437,4.8718,6.1296,6.0385,5.9414,5.8679,5.8202,5.8001,5.7801,5.7675,5.7801,5.7901,5.8027,5.8478,5.888,5.9056,5.9307,5.9508,5.9508,5.9508,5.9508,5.9508,5.9508,5.9508,5.9508,5.9508,5.9508,5.9508,5.9508,5.9508,5.9508,5.9508,5.9508,5.9508,5.9508,5.9508,5.9508,5.9508,5.9508,5.9508,5.9508,5.9508,5.9508,5.9508,5.9508,5.9508,5.9508,5.9508,5.9508,5.9508,5.9508,5.9508,5.9508,5.9483,5.9483,5.9444,5.9173,5.8837,5.7834,5.7138,5.5533,5.3665,5.3296,5.4011,5.2077,5.0885,5.0485,4.9317,4.8523,4.7941,4.7291,4.6987,4.6745,4.6352,4.6352,4.6308,4.6308,4.6308,4.6308,4.6308,4.6308,4.6308,4.6308,4.6308,4.6308,4.6308,4.6308,4.6308,4.6308,4.6308,4.6308,4.6308,4.6308,4.6308,4.6308,4.6308,4.6308,4.6308,4.6308,4.6308,4.6308,4.6308,4.6308,4.6308,4.6308,4.6308,4.6328,4.6406,4.666,4.6928,4.75,4.793,4.8183,4.832,4.8437,4.8613,4.8874,6.085,5.9599,5.9508,5.9182,5.8704,5.8278,5.77,5.7136,5.7675,5.7901,5.7926,5.8478,5.8905,5.9332,5.9458,5.9508,5.9508,5.9508,5.9508,5.9508,5.9508,5.9508,5.9508,5.9508,5.9508,5.9508,5.9508,5.9508,5.9508,5.9508,5.9508,5.9508,5.9508,5.9508,5.9508,5.9508,5.9508,5.9508,5.9508,5.9508,5.9508,5.9508,5.9508,5.9508,5.9508,5.9508,5.9508,5.9508,5.9508,5.9508,5.9508,5.9405,5.9367,5.9367,5.8305,5.6916,5.5355,5.4563,5.3952,5.2201,5.1283,5.1492,5.0146,4.9038,4.8609,4.8415,4.7897,4.7421,4.6963,4.6682,4.6396,4.6352,4.6308,4.6308,4.6308,4.6308,4.6308,4.6308,4.6308,4.6308,4.6308,4.6308,4.6308,4.6308,4.6308,4.6308,4.6308,4.6308,4.6308,4.6308,4.6308,4.6308,4.6308,4.6308,4.6308,4.6308,4.6308,4.6308,4.6308,4.6308,4.6308,4.6308,4.6308,4.6308,4.6348,4.6562,4.709,4.7558,4.8008,4.8359,4.862,4.8679,4.8679,4.8737,4.8894,5.9882,5.9508,5.9508,5.9408,5.9257,5.9106,5.8504,5.775,5.7851,5.7901,5.7926,5.8478,5.8855,5.8981,5.9307,5.9458,5.9508,5.9508,5.9508,5.9508,5.9508,5.9508,5.9508,5.9508,5.9508,5.9508,5.9508,5.9508,5.9508,5.9508,5.9508,5.9508,5.9508,5.9508,5.9508,5.9508,5.9508,5.9508,5.9508,5.9508,5.9508,5.9508,5.9508,5.9508,5.9508,5.9508,5.9508,5.9508,5.9508,5.9508,5.9483,5.9109,5.7652,5.7573,5.6876,5.513,5.3583,5.2409,5.216,5.0822,4.9743,4.9402,4.8781,4.8458,4.8004,4.7615,4.7354,4.7007,4.6745,4.644,4.6352,4.6308,4.6308,4.6308,4.6308,4.6308,4.6308,4.6308,4.6308,4.6308,4.6308,4.6308,4.6308,4.6308,4.6308,4.6308,4.6308,4.6308,4.6308,4.6308,4.6308,4.6308,4.6308,4.6308,4.6308,4.6308,4.6308,4.6308,4.6308,4.6308,4.6308,4.6308,4.6308,4.6445,4.666,4.7168,4.7773,4.8144,4.8379,4.8574,4.8815,4.8855,4.8894,4.8894,4.8894,5.9508,5.9508,5.9508,5.9508,5.9508,5.9483,5.9081,5.8554,5.8303,5.8227,5.8252,5.8579,5.8792,5.9106,5.9382,5.9508,5.9508,5.9508,5.9508,5.9508,5.9508,5.9508,5.9508,5.9508,5.9508,5.9508,5.9508,5.9508,5.9508,5.9508,5.9508,5.9508,5.9508,5.9508,5.9508,5.9508,5.9508,5.9508,5.9508,5.9508,5.9508,5.9508,5.9508,5.9508,5.9508,5.9508,5.9508,5.9508,5.9483,5.9251,5.9109,5.807,5.6479,5.5775,5.4685,5.303,5.1682,5.0864,5.0442,4.9658,4.8759,4.8199,4.7984,4.7571,4.7398,4.7094,4.692,4.6702,4.6483,4.6308,4.6308,4.6308,4.6308,4.6308,4.6308,4.6308,4.6308,4.6308,4.6308,4.6308,4.6308,4.6308,4.6308,4.6308,4.6308,4.6308,4.6308,4.6308,4.6308,4.6308,4.6308,4.6308,4.6308,4.6308,4.6308,4.6308,4.6308,4.6308,4.6308,4.6308,4.6308,4.6367,4.6445,4.6738,4.7065,4.7637,4.8144,4.8379,4.8594,4.8815,4.8894,4.8894,4.8894,4.8894,4.8894,5.9508,5.9508,5.9508,5.9508,5.9508,5.9508,5.9458,5.9458,5.8956,5.8742,5.8767,5.8805,5.9056,5.9357,5.9483,5.9508,5.9508,5.9508,5.9508,5.9508,5.9508,5.9508,5.9508,5.9508,5.9508,5.9508,5.9508,5.9508,5.9508,5.9508,5.9508,5.9508,5.9508,5.9508,5.9508,5.9508,5.9508,5.9508,5.9508,5.9508,5.9508,5.9508,5.9508,5.9508,5.9508,5.9508,5.9508,5.9483,5.9405,5.8798,5.807,5.7059,5.5211,5.3419,5.2015,5.1221,5.0082,4.9636,4.9252,4.8716,4.8199,4.7701,4.7268,4.6963,4.6832,4.6745,4.6614,4.6527,4.6352,4.6308,4.6308,4.6308,4.6308,4.6308,4.6308,4.6308,4.6308,4.6308,4.6308,4.6308,4.6308,4.6308,4.6308,4.6308,4.6308,4.6308,4.6308,4.6308,4.6308,4.6308,4.6308,4.6308,4.6308,4.6308,4.6308,4.6308,4.6308,4.6308,4.6328,4.6426,4.6523,4.6562,4.6601,4.709,4.7598,4.793,4.834,4.8555,4.8711,4.8835,4.8894,4.8894,4.8894,4.8894,4.8894,5.9508,5.9508,5.9508,5.9508,5.9508,5.9508,5.9508,5.9483,5.9382,5.9282,5.9307,5.9307,5.9332,5.9458,5.9508,5.9508,5.9508,5.9508,5.9508,5.9508,5.9508,5.9508,5.9508,5.9508,5.9508,5.9508,5.9508,5.9508,5.9508,5.9508,5.9508,5.9508,5.9508,5.9508,5.9508,5.9508,5.9508,5.9508,5.9508,5.9508,5.9508,5.9508,5.9508,5.9508,5.9508,5.9431,5.9392,5.9392,5.8603,5.7652,5.7257,5.5597,5.303,5.0906,4.9934,4.9551,4.9059,4.8716,4.8458,4.8113,4.7701,4.7354,4.7007,4.6745,4.6527,4.6483,4.644,4.6352,4.6308,4.6308,4.6308,4.6308,4.6308,4.6308,4.6308,4.6308,4.6308,4.6308,4.6308,4.6308,4.6308,4.6308,4.6308,4.6308,4.6308,4.6308,4.6308,4.6308,4.6308,4.6308,4.6308,4.6308,4.6308,4.6308,4.6308,4.6387,4.6445,4.6445,4.6484,4.6582,4.6738,4.6992,4.7246,4.7676,4.8125,4.8359,4.8535,4.8757,4.8874,4.8894,4.8894,4.8894,4.8894,4.8894,4.8894,5.9508,5.9508,5.9508,5.9508,5.9508,5.9508,5.9508,5.9508,5.9508,5.9508,5.9508,5.9508,5.9508,5.9508,5.9508,5.9508,5.9508,5.9508,5.9508,5.9508,5.9508,5.9508,5.9508,5.9508,5.9508,5.9508,5.9508,5.9508,5.9508,5.9508,5.9508,5.9508,5.9508,5.9508,5.9508,5.9508,5.9508,5.9508,5.9508,5.9508,5.9508,5.9508,5.9508,5.9508,5.9469,5.9237,5.8447,5.8227,5.7297,5.5879,5.4928,5.3213,5.1095,4.9593,4.893,4.8716,4.8415,4.809,4.7961,4.7658,4.7268,4.705,4.6745,4.642,4.6396,4.6396,4.6396,4.6308,4.6308,4.6308,4.6308,4.6308,4.6308,4.6308,4.6308,4.6308,4.6308,4.6308,4.6308,4.6308,4.6308,4.6308,4.6308,4.6308,4.6308,4.6308,4.6308,4.6308,4.6308,4.6308,4.6308,4.6328,4.6348,4.6328,4.6308,4.6484,4.6616,4.666,4.668,4.6953,4.7246,4.7598,4.7949,4.8164,4.8359,4.864,4.8815,4.8894,4.8894,4.8894,4.8894,4.8894,4.8894,4.8894,4.8894,5.9508,5.9508,5.9508,5.9508,5.9508,5.9508,5.9508,5.9508,5.9508,5.9508,5.9508,5.9508,5.9508,5.9508,5.9508,5.9508,5.9508,5.9508,5.9508,5.9508,5.9508,5.9508,5.9508,5.9508,5.9508,5.9508,5.9508,5.9508,5.9508,5.9508,5.9508,5.9508,5.9508,5.9508,5.9508,5.9508,5.9508,5.9508,5.9508,5.9508,5.9508,5.9558,5.9583,5.9558,5.9223,5.8418,5.7424,5.6399,5.5678,5.4074,5.2534,5.0969,4.987,4.8802,4.8544,4.8243,4.7874,4.7658,4.7528,4.7181,4.6963,4.6789,4.6483,4.6308,4.6308,4.6308,4.6308,4.6308,4.6308,4.6308,4.6308,4.6308,4.6308,4.6308,4.6308,4.6308,4.6308,4.6308,4.6308,4.6308,4.6308,4.6308,4.6308,4.6308,4.6308,4.6308,4.6308,4.6308,4.6308,4.6308,4.6308,4.6387,4.6465,4.6426,4.6426,4.6621,4.685,4.7051,4.7148,4.7422,4.7734,4.8066,4.8281,4.8359,4.862,4.8796,4.8855,4.8894,4.8894,4.8894,4.8894,4.8894,4.8894,4.8894,4.8894,5.9508,5.9508,5.9508,5.9508,5.9508,5.9508,5.9508,5.9508,5.9508,5.9508,5.9508,5.9508,5.9508,5.9508,5.9508,5.9508,5.9508,5.9508,5.9508,5.9508,5.9508,5.9508,5.9508,5.9508,5.9508,5.9508,5.9508,5.9508,5.9508,5.9508,5.9508,5.9508,5.9508,5.9508,5.9508,5.9508,5.9508,5.9508,5.9444,5.9444,5.9503,5.9578,5.9809,5.9366,5.8526,5.7746,5.6782,5.5476,5.3952,5.2243,5.0738,4.9593,4.893,4.8458,4.8199,4.7874,4.7485,4.7181,4.6963,4.6745,4.6571,4.6527,4.6308,4.6308,4.6308,4.6308,4.6308,4.6308,4.6308,4.6308,4.6308,4.6308,4.6308,4.6308,4.6308,4.6308,4.6308,4.6308,4.6308,4.6308,4.6308,4.6308,4.6308,4.6308,4.6308,4.6308,4.6308,4.6308,4.6308,4.6308,4.6348,4.6484,4.6621,4.6694,4.6816,4.6933,4.7148,4.7363,4.7598,4.7851,4.8144,4.8522,4.8698,4.8659,4.8718,4.8855,4.8894,4.8894,4.8894,4.8894,4.8894,4.8894,4.8894,4.8894,4.8894]},{"header":{"parameterUnit":"m.s-1","parameterCategory":1,"la1":31.0,"la2":29.5877,"lo1":-88.7671,"lo2":-86.6584,"dx":0.0162,"dy":0.0185,"nx":115,"ny":88,"refTime":"2022-11-18T18:00:00:Z","depth":0,"parameterNumber":3,"parameterNumberName":"V-component_of_WINDS"},"data":[0.0,0.0,0.0,0.0,0.0,0.0,0.0,0.0,0.0,0.0,0.0,0.0,0.0,0.0,0.0,0.0,0.0,0.0,0.0,0.0,0.0,0.0,0.0,0.0,0.0,0.0,0.0,0.0,0.0,0.0,0.0,0.0,0.0,0.0,0.0,0.0,0.0,0.0,0.0,0.0,0.0,0.0,0.0,0.0,0.0,0.0,0.0,0.0,0.0,0.0,0.0,0.0,0.0,0.0,0.0,0.0,0.0,0.0,0.0,0.0,0.0,0.0,0.0,0.0,0.0,0.0,0.0,0.0,0.0,0.0,0.0,0.0,0.0,0.0,0.0,0.0,0.0,0.0,0.0,0.0,0.0,0.0,0.0,0.0,0.0,0.0,0.0,0.0,0.0,0.0,0.0,0.0,0.0,0.0,0.0,0.0,0.0,0.0,0.0,0.0,0.0,0.0,0.0,0.0,0.0,0.0,0.0,0.0,0.0,0.0,0.0,0.0,0.0,0.0,0.0,0.0,0.0,0.0,0.0,0.0,0.0,0.0,0.0,0.0,0.0,0.0,0.0,0.0,0.0,0.0,0.0,0.0,0.0,0.0,0.0,0.0,0.0,0.0,0.0,0.0,0.0,0.0,0.0,0.0,0.0,0.0,0.0,0.0,0.0,0.0,0.0,0.0,0.0,0.0,0.0,0.0,0.0,0.0,0.0,0.0,0.0,0.0,0.0,0.0,0.0,0.0,0.0,0.0,0.0,0.0,0.0,0.0,0.0,0.0,0.0,0.0,0.0,0.0,0.0,0.0,0.0,0.0,0.0,0.0,0.0,0.0,0.0,0.0,0.0,0.0,0.0,0.0,0.0,0.0,0.0,0.0,0.0,0.0,0.0,0.0,0.0,0.0,0.0,0.0,0.0,0.0,0.0,0.0,0.0,0.0,0.0,0.0,0.0,0.0,0.0,0.0,0.0,0.0,0.0,0.0,0.0,0.0,0.0,0.0,0.0,0.0,0.0,0.0,0.0,0.0,0.0,0.0,0.0,0.0,0.0,0.0,0.0,0.0,0.0,0.0,0.0,0.0,0.0,0.0,0.0,0.0,0.0,0.0,0.0,0.0,0.0,0.0,0.0,0.0,0.0,0.0,0.0,0.0,0.0,0.0,0.0,0.0,0.0,0.0,0.0,0.0,0.0,0.0,0.0,0.0,0.0,0.0,0.0,0.0,0.0,0.0,0.0,0.0,0.0,0.0,0.0,0.0,0.0,0.0,0.0,0.0,0.0,0.0,0.0,0.0,0.0,0.0,0.0,0.0,0.0,0.0,0.0,0.0,0.0,0.0,0.0,0.0,0.0,0.0,0.0,0.0,0.0,0.0,0.0,0.0,0.0,0.0,0.0,0.0,0.0,0.0,0.0,0.0,0.0,0.0,0.0,0.0,0.0,0.0,0.0,0.0,0.0,0.0,0.0,0.0,0.0,0.0,0.0,0.0,0.0,0.0,0.0,0.0,0.0,0.0,0.0,0.0,0.0,0.0,0.0,0.0,0.0,0.0,0.0,0.0,0.0,0.0,0.0,0.0,0.0,0.0,0.0,0.0,0.0,0.0,0.0,0.0,0.0,0.0,0.0,0.0,0.0,0.0,0.0,0.0,0.0,0.0,0.0,0.0,0.0,0.0,0.0,0.0,0.0,0.0,0.0,0.0,0.0,0.0,0.0,0.0,0.0,0.0,0.0,0.0,0.0,0.0,0.0,0.0,0.0,0.0,0.0,0.0,0.0,0.0,0.0,0.0,0.0,0.0,0.0,0.0,0.0,0.0,0.0,0.0,0.0,0.0,0.0,0.0,0.0,0.0,0.0,0.0,0.0,0.0,0.0,0.0,0.0,0.0,0.0,0.0,0.0,0.0,0.0,0.0,0.0,0.0,0.0,0.0,0.0,0.0,0.0,0.0,0.0,0.0,0.0,0.0,0.0,0.0,0.0,0.0,0.0,0.0,0.0,0.0,0.0,0.0,0.0,0.0,0.0,0.0,0.0,0.0,0.0,0.0,0.0,0.0,0.0,0.0,0.0,0.0,0.0,0.0,0.0,0.0,0.0,0.0,0.0,0.0,0.0,0.0,0.0,0.0,0.0,0.0,0.0,0.0,0.0,0.0,0.0,0.0,0.0,0.0,0.0,0.0,0.0,0.0,0.0,0.0,0.0,0.0,0.0,0.0,0.0,0.0,0.0,0.0,0.0,0.0,0.0,0.0,0.0,0.0,0.0,0.0,0.0,0.0,0.0,0.0,0.0,0.0,0.0,0.0,0.0,0.0,0.0,0.0,0.0,0.0,0.0,0.0,0.0,0.0,0.0,0.0,0.0,0.0,0.0,0.0,0.0,0.0,0.0,0.0,0.0,0.0,0.0,0.0,0.0,0.0,0.0,0.0,0.0,0.0,0.0,0.0,0.0,0.0,0.0,0.0,0.0,0.0,0.0,0.0,0.0,0.0,0.0,0.0,0.0,0.0,0.0,0.0,0.0,0.0,0.0,0.0,0.0,0.0,0.0,0.0,0.0,0.0,0.0,0.0,0.0,0.0,0.0,0.0,0.0,0.0,0.0,0.0,0.0,0.0,0.0,0.0,0.0,0.0,0.0,0.0,0.0,0.0,0.0,0.0,0.0,0.0,0.0,0.0,0.0,0.0,0.0,0.0,0.0,0.0,0.0,0.0,0.0,0.0,0.0,0.0,0.0,0.0,0.0,0.0,0.0,0.0,0.0,0.0,0.0,0.0,0.0,0.0,0.0,0.0,0.0,0.0,0.0,0.0,0.0,0.0,0.0,0.0,0.0,0.0,0.0,0.0,0.0,0.0,0.0,0.0,0.0,0.0,0.0,0.0,0.0,0.0,0.0,0.0,0.0,0.0,0.0,0.0,0.0,0.0,0.0,0.0,0.0,0.0,0.0,0.0,0.0,0.0,0.0,0.0,0.0,0.0,0.0,0.0,0.0,0.0,0.0,0.0,0.0,0.0,0.0,0.0,0.0,0.0,0.0,0.0,0.0,0.0,0.0,0.0,0.0,0.0,0.0,0.0,0.0,0.0,0.0,0.0,0.0,0.0,0.0,0.0,0.0,0.0,0.0,0.0,0.0,0.0,0.0,0.0,0.0,0.0,0.0,0.0,0.0,0.0,0.0,0.0,0.0,0.0,0.0,0.0,0.0,0.0,0.0,0.0,0.0,0.0,0.0,0.0,0.0,0.0,0.0,0.0,0.0,0.0,0.0,0.0,0.0,0.0,0.0,0.0,0.0,0.0,0.0,0.0,0.0,0.0,0.0,0.0,0.0,0.0,0.0,0.0,0.0,0.0,0.0,0.0,0.0,0.0,0.0,0.0,0.0,0.0,0.0,0.0,0.0,0.0,0.0,0.0,0.0,0.0,0.0,0.0,0.0,0.0,0.0,0.0,0.0,0.0,0.0,0.0,0.0,0.0,0.0,0.0,0.0,0.0,0.0,0.0,0.0,0.0,0.0,0.0,0.0,0.0,0.0,0.0,0.0,0.0,0.0,0.0,0.0,0.0,0.0,0.0,0.0,0.0,0.0,0.0,0.0,0.0,0.0,0.0,0.0,0.0,0.0,0.0,0.0,0.0,0.0,0.0,0.0,0.0,0.0,0.0,0.0,0.0,0.0,0.0,0.0,0.0,0.0,0.0,0.0,0.0,0.0,0.0,0.0,0.0,0.0,0.0,0.0,0.0,0.0,0.0,0.0,0.0,0.0,0.0,0.0,0.0,0.0,0.0,0.0,0.0,0.0,0.0,0.0,0.0,0.0,0.0,0.0,0.0,0.0,0.0,0.0,0.0,0.0,0.0,0.0,0.0,0.0,0.0,0.0,0.0,0.0,0.0,0.0,0.0,0.0,0.0,0.0,0.0,0.0,0.0,0.0,0.0,0.0,0.0,0.0,0.0,0.0,0.0,0.0,0.0,0.0,0.0,0.0,0.0,0.0,0.0,0.0,0.0,0.0,0.0,0.0,0.0,0.0,0.0,0.0,0.0,0.0,0.0,0.0,0.0,0.0,0.0,0.0,0.0,0.0,0.0,0.0,0.0,0.0,0.0,0.0,0.0,0.0,0.0,0.0,0.0,0.0,0.0,0.0,0.0,0.0,0.0,0.0,0.0,0.0,0.0,0.0,0.0,0.0,0.0,0.0,0.0,0.0,0.0,0.0,0.0,0.0,0.0,0.0,0.0,0.0,0.0,0.0,0.0,0.0,0.0,0.0,0.0,1.1592,0.0,0.0,0.0,1.149,0.0,0.0,0.0,0.0,0.0,0.0,0.0,0.0,0.0,0.0,0.0,0.0,0.0,0.0,0.0,0.0,0.0,0.0,0.0,0.0,0.0,0.0,0.0,0.0,0.0,0.0,0.0,0.0,0.0,0.0,0.0,0.0,0.0,0.0,0.0,0.0,0.0,0.0,0.0,0.0,0.0,0.0,0.0,0.0,0.0,0.0,0.0,0.0,0.0,0.0,0.0,0.0,0.0,0.0,0.0,0.0,0.0,0.0,0.0,0.0,0.0,0.0,0.0,0.0,0.0,0.0,0.0,0.0,0.0,0.0,0.0,0.0,0.0,0.0,0.0,0.0,0.0,0.0,0.0,0.0,0.0,0.0,0.0,0.0,0.0,0.0,0.0,0.0,0.0,0.0,0.0,0.0,0.0,0.0,0.0,0.0,0.0,0.0,0.0,0.0,0.0,0.0,0.0,0.0,0.0,0.0,0.0,0.0,0.0,0.0,1.1591,1.1591,1.1591,1.1591,1.1622,0.0,0.0,0.0,0.0,0.0,0.0,0.0,0.0,0.0,0.0,0.0,0.0,0.0,0.0,0.0,0.0,0.0,0.0,0.0,0.0,0.0,0.0,0.0,0.0,0.0,0.0,0.0,0.0,0.0,0.0,0.0,0.0,0.0,0.0,0.0,0.0,0.0,0.0,0.0,0.0,0.0,0.0,0.0,0.0,0.0,0.0,0.0,0.0,0.0,0.0,0.0,0.0,0.0,0.0,0.0,0.0,0.0,0.0,0.0,0.0,0.0,0.0,0.0,0.0,0.0,0.0,0.0,0.0,0.0,0.0,0.0,0.0,0.0,0.0,0.0,0.0,0.0,0.0,0.0,0.0,0.0,0.0,0.0,0.0,0.0,0.0,0.0,0.0,0.0,0.0,0.0,0.0,0.0,0.0,0.0,0.0,0.0,0.0,0.0,0.0,0.0,0.0,0.0,0.0,0.0,0.0,0.0,0.0,0.0,0.0,0.0,0.0,1.1591,1.1747,1.2042,0.0,0.0,0.0,0.0,0.0,0.0,0.0,0.0,0.0,0.0,0.0,0.0,0.0,0.0,0.0,0.0,0.0,0.0,0.0,0.0,0.0,0.0,0.0,0.0,0.0,0.0,0.0,0.0,0.0,0.0,0.0,0.0,0.0,0.0,0.0,0.0,0.0,0.0,0.0,0.0,0.0,0.0,0.0,0.0,0.0,0.0,0.0,0.0,0.0,0.0,0.0,0.0,0.0,0.0,0.0,0.0,0.0,0.0,0.0,0.0,0.0,0.0,0.0,0.0,0.0,0.0,0.0,0.0,0.0,0.0,0.0,0.0,0.0,0.0,0.0,0.0,0.0,0.0,0.0,0.0,0.0,0.0,0.0,0.0,0.0,0.0,0.0,0.0,0.0,0.0,0.0,0.0,0.0,0.0,0.0,0.0,0.0,0.0,0.0,0.0,0.0,0.0,0.0,0.0,0.0,0.0,0.0,0.0,0.0,0.0,1.1591,1.1591,1.1591,0.0,1.3253,0.0,0.0,0.0,0.0,0.0,0.0,0.0,0.0,0.0,0.0,0.0,0.0,0.0,0.0,0.0,0.0,0.0,0.0,0.0,0.0,0.0,0.0,0.0,0.0,0.0,0.0,0.0,0.0,0.0,0.0,0.0,0.0,0.0,0.0,0.0,0.0,0.0,0.0,0.0,0.0,0.0,0.0,0.0,0.0,0.0,0.0,0.0,0.0,0.0,0.0,0.0,0.0,0.0,0.0,0.0,0.0,0.0,0.0,0.0,0.0,0.0,0.0,0.0,0.0,0.0,0.0,0.0,0.0,0.0,0.0,0.0,0.0,0.0,0.0,0.0,0.0,0.0,0.0,0.0,0.0,0.0,0.0,0.0,0.0,0.0,0.0,0.0,0.0,0.0,0.0,0.0,0.0,0.0,0.0,0.0,0.0,0.0,0.0,0.0,0.0,0.0,0.0,0.0,0.0,0.0,0.0,0.0,0.0,0.0,0.0,1.1591,1.1591,1.1591,1.2182,0.0,0.0,0.0,0.0,0.0,0.0,0.0,0.0,0.0,0.0,0.0,0.0,0.0,0.0,0.0,0.0,0.0,0.0,0.0,0.0,0.0,0.0,0.0,0.0,0.0,0.0,0.0,0.0,0.0,0.0,0.0,0.0,0.0,0.0,0.0,0.0,0.0,0.0,0.0,0.0,0.0,0.0,0.0,0.0,0.0,0.0,0.0,0.0,0.0,0.0,0.0,0.0,0.0,0.0,0.0,0.0,0.0,0.0,0.0,0.0,0.0,0.0,0.0,0.0,0.0,0.0,0.0,0.0,0.0,0.0,0.0,0.0,0.0,0.0,0.0,0.0,0.0,0.0,0.0,0.0,0.0,0.0,0.0,0.0,0.0,0.0,0.0,0.0,0.0,0.0,0.0,0.0,0.0,0.0,0.0,0.0,0.0,0.0,0.0,0.0,0.0,0.0,0.0,0.0,0.0,0.0,0.0,0.0,0.0,0.0,1.1591,1.1685,1.1841,1.2011,1.2643,1.3752,0.0,0.0,0.0,0.0,0.0,0.0,0.0,0.0,0.0,0.0,0.0,0.0,0.0,0.0,0.0,0.0,0.0,0.0,0.0,0.0,0.0,0.0,0.0,0.0,0.0,0.0,0.0,0.0,0.0,0.0,0.0,0.0,0.0,0.0,0.0,0.0,0.0,0.0,0.0,0.0,0.0,0.0,0.0,0.0,0.0,0.0,0.0,0.0,0.0,0.0,0.0,0.0,0.0,0.0,0.0,0.0,0.0,0.0,0.0,0.0,0.0,0.0,0.0,0.0,0.0,0.0,0.0,0.0,0.0,0.0,0.0,0.0,0.0,0.0,0.0,0.0,0.0,0.0,0.0,0.0,0.0,0.0,0.0,0.0,0.0,0.0,0.0,0.0,0.0,0.0,0.0,0.0,0.0,0.0,0.0,0.0,0.0,0.0,0.0,0.0,0.0,0.0,0.0,0.0,0.0,0.0,0.0,0.0,1.1607,1.1591,1.1872,1.2443,1.3085,1.3752,0.0,0.0,0.0,0.0,0.0,0.0,0.0,0.0,0.0,0.0,0.0,0.0,0.0,0.0,0.0,0.0,0.0,0.0,0.0,0.0,0.0,0.0,0.0,0.0,0.0,0.0,0.0,0.0,0.0,0.0,0.0,0.0,0.0,0.0,0.0,0.0,0.0,0.0,0.0,0.0,0.0,0.0,0.0,0.0,0.0,0.0,0.0,0.0,0.0,0.0,0.0,0.0,0.0,0.0,0.0,0.0,0.0,0.0,0.0,0.0,0.0,0.0,0.0,0.0,0.0,0.0,0.0,0.0,0.0,0.0,0.0,0.0,0.0,0.0,0.0,0.0,0.0,0.0,0.0,0.0,0.0,0.0,0.0,0.0,0.0,0.0,0.0,0.0,0.0,0.0,0.0,0.0,0.0,0.0,0.0,0.0,0.0,0.0,0.0,0.0,0.0,0.0,0.0,0.0,0.0,0.0,0.0,0.0,0.0,1.2182,1.1794,1.1888,1.2489,1.2734,1.3388,0.0,0.0,0.0,0.0,0.0,0.0,0.0,0.0,0.0,0.0,0.0,0.0,0.0,0.0,0.0,0.0,0.0,0.0,0.0,0.0,0.0,0.0,0.0,0.0,0.0,0.0,0.0,0.0,0.0,0.0,0.0,0.0,0.0,0.0,0.0,0.0,0.0,0.0,0.0,0.0,0.0,0.0,0.0,0.0,0.0,0.0,0.0,0.0,0.0,0.0,0.0,0.0,0.0,0.0,0.0,0.0,0.0,0.0,0.0,0.0,0.0,0.0,0.0,0.0,0.0,0.0,0.0,0.0,0.0,0.0,0.0,0.0,0.0,0.0,0.0,0.0,0.0,0.0,0.0,0.0,0.0,0.0,0.0,0.0,0.0,0.0,0.0,0.0,0.0,0.0,0.0,0.0,0.0,0.0,0.0,0.0,0.0,0.0,0.0,0.0,0.0,0.0,0.0,0.0,0.0,0.0,0.0,0.0,0.0,1.2741,1.268,1.2948,1.3526,1.3425,1.3878,0.0,0.0,0.0,0.0,0.0,0.0,0.0,0.0,0.0,0.0,0.0,0.0,0.0,0.0,0.0,0.0,0.0,0.0,0.0,0.0,0.0,0.0,0.0,0.0,0.0,0.0,0.0,0.0,0.0,0.0,0.0,0.0,0.0,0.0,0.0,0.0,0.0,0.0,0.0,0.0,0.0,0.0,0.0,0.0,0.0,0.0,0.0,0.0,0.0,0.0,0.0,0.0,0.0,0.0,0.0,0.0,0.0,0.0,0.0,0.0,0.0,0.0,0.0,0.0,0.0,0.0,0.0,0.0,0.0,0.0,0.0,0.0,0.0,0.0,0.0,0.0,0.0,0.0,0.0,0.0,0.0,0.0,0.0,0.0,0.0,0.0,0.0,0.0,0.0,0.0,0.0,0.0,0.0,0.0,0.0,0.0,0.0,0.0,0.0,0.0,0.0,0.0,0.0,0.0,0.0,0.0,0.0,0.0,1.282,1.322,1.4226,1.5031,1.5725,1.526,1.5383,0.0,0.0,0.0,0.0,0.0,0.0,0.0,0.0,0.0,0.0,0.0,0.0,0.0,0.0,0.0,0.0,0.0,0.0,0.0,0.0,0.0,0.0,0.0,0.0,0.0,0.0,0.0,0.0,0.0,0.0,0.0,0.0,0.0,0.0,0.0,0.0,0.0,0.0,0.0,0.0,0.0,0.0,0.0,0.0,0.0,0.0,0.0,0.0,0.0,0.0,0.0,0.0,0.0,0.0,0.0,0.0,0.0,0.0,0.0,0.0,0.0,0.0,0.0,0.0,0.0,0.0,0.0,0.0,0.0,0.0,0.0,0.0,0.0,0.0,0.0,0.0,0.0,0.0,0.0,0.0,0.0,0.0,0.0,0.0,0.0,0.0,0.0,0.0,0.0,0.0,0.0,0.0,0.0,0.0,0.0,0.0,0.0,0.0,0.0,0.0,0.0,0.0,0.0,0.0,0.0,0.0,0.0,0.0,0.0,1.3825,1.5036,1.5581,1.5353,1.5758,1.6008,0.0,0.0,0.0,0.0,0.0,0.0,0.0,0.0,0.0,0.0,0.0,0.0,0.0,0.0,0.0,0.0,0.0,0.0,0.0,0.0,0.0,0.0,0.0,0.0,0.0,0.0,0.0,0.0,0.0,0.0,0.0,0.0,0.0,0.0,0.0,0.0,0.0,0.0,0.0,0.0,0.0,0.0,0.0,0.0,0.0,0.0,0.0,0.0,0.0,0.0,0.0,0.0,0.0,0.0,0.0,0.0,0.0,0.0,0.0,0.0,0.0,0.0,0.0,0.0,0.0,0.0,0.0,0.0,0.0,0.0,0.0,0.0,0.0,0.0,0.0,0.0,0.0,0.0,0.0,0.0,0.0,0.0,0.0,0.0,0.0,0.0,0.0,0.0,0.0,0.0,0.0,0.0,0.0,0.0,0.0,0.0,0.0,0.0,0.0,0.0,0.0,0.0,0.0,0.0,0.0,0.0,0.0,0.0,0.0,1.6394,1.7273,1.7569,1.7171,1.7373,1.7271,1.6816,0.0,0.0,0.0,0.0,0.0,0.0,0.0,0.0,0.0,0.0,0.0,0.0,0.0,0.0,0.0,0.0,0.0,0.0,0.0,0.0,0.0,0.0,0.0,0.0,0.0,0.0,0.0,0.0,0.0,0.0,0.0,0.0,0.0,0.0,0.0,0.0,0.0,0.0,0.0,0.0,0.0,0.0,0.0,0.0,0.0,0.0,0.0,0.0,0.0,0.0,0.0,0.0,0.0,0.0,0.0,0.0,0.0,0.0,0.0,0.0,0.0,0.0,0.0,0.0,0.0,0.0,0.0,0.0,0.0,0.0,0.0,0.0,0.0,0.0,0.0,0.0,0.0,0.0,0.0,0.0,0.0,0.0,0.0,0.0,0.0,0.0,0.0,0.0,0.0,0.0,0.0,0.0,0.0,0.0,0.0,0.0,0.0,0.0,0.0,0.0,0.0,0.0,0.0,0.0,0.0,0.0,0.0,0.0,2.0333,2.0674,2.0781,2.0605,1.9826,1.9002,0.0,0.0,0.0,0.0,0.0,0.0,0.0,0.0,0.0,0.0,0.0,0.0,0.0,0.0,0.0,0.0,0.0,0.0,0.0,0.0,0.0,0.0,0.0,0.0,0.0,0.0,0.0,0.0,0.0,0.0,0.0,0.0,0.0,0.0,0.0,0.0,0.0,0.0,0.0,0.0,0.0,0.0,0.0,0.0,0.0,0.0,0.0,0.0,0.0,0.0,0.0,0.0,0.0,0.0,0.0,0.0,0.0,0.0,0.0,0.0,0.0,0.0,0.0,0.0,0.0,0.0,0.0,0.0,0.0,0.0,0.0,0.0,0.0,0.0,0.0,0.0,0.0,0.0,0.0,0.0,0.0,0.0,0.0,0.0,0.0,0.0,0.0,0.0,0.0,0.0,0.0,0.0,0.0,0.0,0.0,0.0,0.0,0.0,0.0,0.0,0.0,0.0,0.0,0.0,0.0,0.0,0.0,0.0,0.0,2.2802,2.3551,2.3152,2.1628,2.1005,2.0157,0.0,0.0,0.0,0.0,0.0,0.0,0.0,0.0,0.0,0.0,0.0,0.0,0.0,0.0,0.0,0.0,0.0,0.0,0.0,0.0,0.0,0.0,0.0,0.0,0.0,0.0,0.0,0.0,0.0,0.0,0.0,0.0,0.0,0.0,0.0,0.0,0.0,0.0,0.0,0.0,0.0,0.0,0.0,0.0,0.0,0.0,0.0,0.0,0.0,0.0,0.0,0.0,0.0,0.0,0.0,0.0,0.0,0.0,0.0,0.0,0.0,0.0,0.0,0.0,0.0,0.0,0.0,0.0,0.0,0.0,0.0,0.0,0.0,0.0,0.0,0.0,0.0,0.0,0.0,0.0,0.0,0.0,0.0,0.0,0.0,0.0,0.0,0.0,0.0,0.0,0.0,0.0,0.0,0.0,0.0,0.0,0.0,0.0,0.0,0.0,0.0,0.0,0.0,0.0,0.0,0.0,0.0,0.0,2.3596,2.4339,2.52,2.5136,2.4084,2.2553,2.1348,0.0,0.0,0.0,0.0,0.0,0.0,0.0,0.0,0.0,0.0,0.0,0.0,0.0,0.0,0.0,0.0,0.0,0.0,0.0,0.0,0.0,0.0,0.0,0.0,0.0,0.0,0.0,0.0,0.0,0.0,0.0,0.0,0.0,0.0,0.0,0.0,0.0,0.0,0.0,0.0,0.0,0.0,0.0,0.0,0.0,0.0,0.0,0.0,0.0,0.0,0.0,0.0,0.0,0.0,0.0,0.0,0.0,0.0,0.0,0.0,0.0,0.0,0.0,0.0,0.0,0.0,0.0,0.0,0.0,0.0,0.0,0.0,0.0,0.0,0.0,0.0,0.0,0.0,0.0,0.0,0.0,0.0,0.0,0.0,0.0,0.0,0.0,0.0,0.0,0.0,0.0,0.0,0.0,0.0,0.0,0.0,0.0,0.0,0.0,0.0,0.0,0.0,0.0,0.0,0.0,0.0,0.0,0.0,2.5082,2.5239,2.6001,2.6582,2.6914,2.4202,2.2463,0.0,0.0,0.0,0.0,0.0,0.0,0.0,0.0,0.0,0.0,0.0,0.0,0.0,0.0,0.0,0.0,0.0,0.0,0.0,0.0,0.0,0.0,0.0,0.0,0.0,0.0,0.0,0.0,0.0,0.0,0.0,0.0,0.0,0.0,0.0,0.0,0.0,0.0,0.0,0.0,0.0,0.0,0.0,0.0,0.0,0.0,0.0,0.0,0.0,0.0,0.0,0.0,0.0,0.0,0.0,0.0,0.0,0.0,0.0,0.0,0.0,0.0,0.0,0.0,0.0,0.0,0.0,0.0,0.0,0.0,0.0,0.0,0.0,0.0,0.0,0.0,0.0,0.0,0.0,0.0,0.0,0.0,0.0,0.0,0.0,0.0,0.0,0.0,0.0,0.0,0.0,0.0,0.0,0.0,0.0,0.0,0.0,0.0,0.0,0.0,0.0,0.0,0.0,0.0,0.0,0.0,0.0,0.0,2.5059,2.6099,2.6289,2.6582,2.6967,2.4909,2.3562,0.0,0.0,0.0,0.0,0.0,0.0,0.0,0.0,0.0,0.0,0.0,0.0,0.0,0.0,0.0,0.0,0.0,0.0,0.0,0.0,0.0,0.0,0.0,0.0,0.0,0.0,0.0,0.0,0.0,0.0,0.0,0.0,0.0,0.0,0.0,0.0,0.0,0.0,0.0,0.0,0.0,0.0,0.0,0.0,0.0,0.0,0.0,0.0,2.4913,0.0,0.0,0.0,0.0,0.0,0.0,0.0,0.0,0.0,0.0,0.0,0.0,0.0,0.0,0.0,0.0,0.0,0.0,0.0,0.0,0.0,0.0,0.0,0.0,0.0,0.0,0.0,0.0,0.0,0.0,0.0,0.0,0.0,0.0,0.0,0.0,0.0,0.0,0.0,0.0,0.0,0.0,0.0,0.0,0.0,0.0,0.0,0.0,0.0,0.0,0.0,0.0,0.0,0.0,0.0,0.0,0.0,0.0,0.0,2.5254,2.6348,2.6582,2.6847,2.7111,2.6095,2.4973,0.0,0.0,0.0,0.0,0.0,0.0,0.0,0.0,0.0,0.0,0.0,0.0,0.0,0.0,0.0,0.0,0.0,0.0,0.0,0.0,0.0,0.0,0.0,0.0,0.0,0.0,0.0,0.0,0.0,0.0,0.0,0.0,0.0,0.0,0.0,0.0,0.0,0.0,0.0,0.0,0.0,0.0,0.0,0.0,0.0,0.0,0.0,0.0,0.0,0.0,0.0,0.0,0.0,0.0,0.0,0.0,0.0,0.0,0.0,0.0,0.0,0.0,0.0,0.0,0.0,0.0,0.0,0.0,0.0,0.0,0.0,0.0,0.0,0.0,0.0,0.0,0.0,0.0,0.0,0.0,0.0,0.0,0.0,0.0,0.0,0.0,0.0,0.0,0.0,0.0,0.0,0.0,0.0,0.0,0.0,0.0,0.0,0.0,0.0,0.0,0.0,0.0,0.0,0.0,0.0,0.0,0.0,2.4636,2.5732,2.6814,2.7043,2.7308,2.7578,2.7342,2.6264,2.4376,0.0,0.0,0.0,0.0,0.0,0.0,0.0,0.0,0.0,0.0,0.0,0.0,0.0,0.0,0.0,0.0,0.0,0.0,0.0,0.0,0.0,0.0,0.0,0.0,0.0,0.0,0.0,0.0,0.0,0.0,0.0,0.0,0.0,0.0,0.0,0.0,0.0,0.0,2.1204,2.2537,0.0,0.0,0.0,0.0,0.0,0.0,0.0,0.0,2.6618,0.0,0.0,0.0,0.0,0.0,0.0,0.0,0.0,0.0,0.0,0.0,0.0,0.0,0.0,0.0,0.0,0.0,0.0,0.0,0.0,0.0,0.0,0.0,0.0,0.0,0.0,0.0,0.0,0.0,0.0,0.0,0.0,0.0,0.0,0.0,0.0,0.0,0.0,0.0,0.0,0.0,0.0,0.0,0.0,0.0,0.0,0.0,0.0,0.0,0.0,0.0,0.0,0.0,0.0,0.0,0.0,2.5076,2.5428,2.6682,2.8852,2.8239,2.8107,2.8423,2.7839,2.6808,2.5315,0.0,0.0,0.0,0.0,0.0,0.0,0.0,0.0,0.0,0.0,0.0,0.0,0.0,0.0,0.0,0.0,0.0,0.0,0.0,0.0,0.0,0.0,0.0,0.0,0.0,0.0,0.0,0.0,0.0,0.0,0.0,0.0,0.0,0.0,0.0,0.0,0.0,0.0,0.0,2.4507,2.5254,0.0,0.0,0.0,0.0,0.0,0.0,0.0,0.0,2.9839,0.0,0.0,0.0,0.0,0.0,0.0,0.0,0.0,0.0,0.0,0.0,0.0,0.0,0.0,0.0,0.0,0.0,0.0,0.0,0.0,0.0,0.0,0.0,0.0,0.0,0.0,0.0,0.0,0.0,0.0,0.0,0.0,0.0,0.0,0.0,0.0,0.0,0.0,0.0,0.0,0.0,0.0,0.0,0.0,0.0,0.0,0.0,0.0,0.0,0.0,0.0,0.0,0.0,0.0,0.0,2.5503,2.6611,2.8119,2.9964,2.9612,2.9387,2.9454,2.8711,2.7439,0.0,0.0,0.0,0.0,0.0,0.0,0.0,0.0,0.0,0.0,0.0,0.0,0.0,0.0,0.0,0.0,0.0,0.0,0.0,0.0,0.0,0.0,0.0,0.0,0.0,0.0,0.0,0.0,0.0,0.0,0.0,0.0,0.0,0.0,0.0,0.0,0.0,0.0,0.0,0.0,2.6599,2.7361,2.9114,0.0,0.0,0.0,0.0,0.0,0.0,3.1686,3.1658,0.0,0.0,0.0,0.0,0.0,0.0,0.0,0.0,0.0,0.0,0.0,0.0,0.0,0.0,0.0,0.0,0.0,0.0,0.0,0.0,0.0,0.0,0.0,0.0,0.0,0.0,0.0,0.0,0.0,0.0,0.0,0.0,0.0,0.0,0.0,0.0,0.0,0.0,0.0,0.0,0.0,0.0,0.0,0.0,0.0,0.0,0.0,0.0,0.0,0.0,0.0,0.0,0.0,0.0,0.0,2.5991,2.7867,2.9501,3.0946,3.1003,3.0883,3.0615,2.9463,2.8054,0.0,0.0,0.0,0.0,0.0,0.0,0.0,0.0,0.0,0.0,0.0,0.0,0.0,0.0,0.0,0.0,0.0,0.0,0.0,0.0,0.0,0.0,0.0,0.0,0.0,0.0,0.0,0.0,0.0,0.0,0.0,0.0,0.0,0.0,0.0,0.0,0.0,0.0,0.0,0.0,0.0,2.9317,3.0947,3.1048,0.0,0.0,0.0,0.0,3.2918,3.3238,0.0,0.0,0.0,0.0,0.0,0.0,0.0,0.0,0.0,0.0,0.0,0.0,0.0,0.0,0.0,0.0,0.0,0.0,0.0,0.0,0.0,0.0,0.0,0.0,0.0,0.0,0.0,0.0,0.0,0.0,0.0,0.0,0.0,0.0,0.0,0.0,0.0,0.0,0.0,0.0,0.0,0.0,0.0,0.0,0.0,0.0,0.0,0.0,0.0,0.0,0.0,0.0,0.0,0.0,0.0,0.0,2.6995,2.8816,3.0504,3.2048,3.2435,3.2443,3.206,2.9831,2.833,0.0,0.0,0.0,0.0,0.0,0.0,0.0,0.0,0.0,0.0,0.0,0.0,0.0,0.0,0.0,0.0,0.0,0.0,0.0,0.0,0.0,0.0,0.0,0.0,0.0,0.0,0.0,0.0,0.0,0.0,0.0,0.0,0.0,0.0,0.0,0.0,0.0,0.0,0.0,0.0,0.0,3.0244,3.1378,3.1813,3.2221,0.0,0.0,3.4858,3.6968,3.7214,0.0,0.0,0.0,0.0,0.0,0.0,0.0,0.0,0.0,0.0,0.0,0.0,0.0,0.0,0.0,0.0,0.0,0.0,0.0,0.0,0.0,0.0,0.0,0.0,0.0,0.0,0.0,0.0,0.0,0.0,0.0,0.0,0.0,0.0,0.0,0.0,0.0,0.0,0.0,0.0,0.0,0.0,0.0,0.0,0.0,0.0,0.0,0.0,0.0,0.0,0.0,0.0,0.0,0.0,0.0,2.5812,2.7572,3.0173,3.1978,3.2992,3.3393,3.368,3.3862,3.1179,2.9473,0.0,0.0,0.0,0.0,0.0,0.0,0.0,0.0,0.0,0.0,0.0,0.0,0.0,0.0,0.0,0.0,0.0,0.0,0.0,0.0,0.0,0.0,0.0,0.0,0.0,0.0,0.0,0.0,0.0,0.0,0.0,0.0,0.0,0.0,0.0,0.0,0.0,0.0,0.0,0.0,0.0,0.0,3.2828,3.3831,0.0,0.0,0.0,3.6436,3.6844,0.0,0.0,0.0,0.0,0.0,0.0,0.0,0.0,0.0,0.0,0.0,0.0,0.0,0.0,0.0,0.0,0.0,0.0,0.0,0.0,0.0,0.0,0.0,0.0,0.0,0.0,0.0,0.0,0.0,0.0,0.0,0.0,0.0,0.0,0.0,0.0,0.0,0.0,0.0,0.0,0.0,0.0,0.0,0.0,0.0,0.0,0.0,0.0,0.0,0.0,0.0,0.0,0.0,0.0,0.0,0.0,0.0,2.8132,3.1567,3.3746,3.4551,3.51,3.5646,3.6102,3.3378,0.0,0.0,0.0,0.0,0.0,0.0,0.0,0.0,0.0,0.0,0.0,0.0,0.0,0.0,0.0,0.0,0.0,0.0,0.0,0.0,0.0,0.0,0.0,0.0,0.0,0.0,0.0,0.0,0.0,0.0,0.0,0.0,0.0,0.0,0.0,0.0,0.0,0.0,0.0,0.0,0.0,0.0,3.4434,3.4922,3.6171,3.7241,0.0,0.0,3.8387,3.8119,4.0193,4.0786,0.0,0.0,0.0,0.0,0.0,0.0,0.0,0.0,0.0,0.0,0.0,0.0,0.0,0.0,0.0,0.0,0.0,0.0,0.0,0.0,0.0,0.0,0.0,0.0,0.0,0.0,0.0,0.0,0.0,0.0,0.0,0.0,0.0,0.0,0.0,0.0,0.0,0.0,0.0,0.0,0.0,0.0,0.0,0.0,0.0,0.0,0.0,0.0,0.0,0.0,0.0,0.0,0.0,0.0,0.0,2.9009,3.2999,3.5794,3.7186,3.8297,3.8925,3.9055,3.6658,3.4403,0.0,0.0,0.0,0.0,0.0,0.0,0.0,0.0,0.0,0.0,0.0,0.0,0.0,0.0,0.0,0.0,0.0,0.0,0.0,0.0,0.0,0.0,0.0,0.0,0.0,0.0,0.0,0.0,0.0,0.0,0.0,0.0,0.0,0.0,0.0,0.0,0.0,0.0,0.0,0.0,0.0,3.5719,3.7655,3.8612,4.0028,0.0,0.0,4.1249,4.3148,4.3617,4.2905,4.0263,0.0,0.0,0.0,0.0,0.0,0.0,0.0,0.0,0.0,0.0,0.0,0.0,0.0,0.0,0.0,0.0,0.0,0.0,0.0,0.0,0.0,0.0,0.0,0.0,0.0,0.0,0.0,0.0,0.0,0.0,0.0,0.0,0.0,0.0,0.0,0.0,0.0,0.0,0.0,0.0,0.0,0.0,0.0,0.0,0.0,0.0,0.0,0.0,0.0,0.0,0.0,0.0,0.0,2.8712,2.9255,3.4516,3.7202,3.7043,3.9115,4.0144,3.9987,3.8331,3.6445,0.0,0.0,0.0,0.0,0.0,0.0,0.0,0.0,0.0,0.0,0.0,0.0,0.0,0.0,0.0,0.0,0.0,0.0,0.0,0.0,0.0,0.0,0.0,0.0,0.0,0.0,0.0,0.0,2.3936,2.4368,2.4124,0.0,0.0,0.0,0.0,0.0,0.0,0.0,0.0,0.0,0.0,3.8796,4.0986,4.2339,0.0,0.0,4.4086,4.36,4.3408,4.4037,4.3536,4.0583,4.0089,0.0,0.0,0.0,0.0,0.0,0.0,0.0,0.0,0.0,0.0,0.0,0.0,0.0,0.0,0.0,0.0,0.0,0.0,0.0,0.0,0.0,0.0,0.0,0.0,0.0,0.0,0.0,0.0,0.0,0.0,0.0,0.0,0.0,0.0,0.0,0.0,0.0,0.0,0.0,0.0,0.0,0.0,0.0,0.0,0.0,0.0,0.0,0.0,0.0,0.0,0.0,0.0,3.0048,3.0324,3.6243,3.896,3.8213,4.0548,4.1702,4.1566,4.0376,3.8748,0.0,0.0,0.0,0.0,0.0,0.0,0.0,0.0,0.0,0.0,0.0,0.0,0.0,0.0,0.0,0.0,0.0,0.0,0.0,0.0,0.0,0.0,0.0,0.0,0.0,0.0,0.0,0.0,2.563,2.6219,2.6153,0.0,0.0,0.0,0.0,0.0,0.0,0.0,0.0,0.0,0.0,4.1934,4.3748,4.5082,4.5916,4.6021,4.5808,4.5264,4.4269,4.4974,4.4778,4.2353,0.0,0.0,0.0,0.0,0.0,0.0,0.0,0.0,0.0,0.0,0.0,0.0,0.0,0.0,0.0,0.0,0.0,0.0,0.0,0.0,0.0,0.0,0.0,0.0,0.0,0.0,0.0,0.0,0.0,0.0,0.0,0.0,0.0,0.0,0.0,0.0,0.0,0.0,0.0,0.0,0.0,0.0,0.0,0.0,0.0,0.0,0.0,0.0,0.0,0.0,0.0,0.0,0.0,0.0,3.2593,3.8188,4.1345,4.1734,4.3074,4.3923,4.4381,4.2958,4.1553,4.0322,0.0,0.0,0.0,0.0,0.0,0.0,0.0,0.0,0.0,0.0,0.0,0.0,0.0,0.0,0.0,0.0,0.0,0.0,0.0,0.0,0.0,0.0,0.0,0.0,0.0,0.0,2.2816,2.5267,2.7467,0.0,0.0,0.0,0.0,0.0,0.0,0.0,0.0,0.0,0.0,4.221,4.4881,4.5714,4.6378,4.7016,4.7648,4.6714,4.6104,4.6621,4.692,4.6927,0.0,0.0,0.0,0.0,0.0,0.0,0.0,0.0,0.0,0.0,0.0,0.0,0.0,0.0,0.0,0.0,0.0,0.0,0.0,0.0,0.0,0.0,0.0,0.0,0.0,0.0,0.0,2.1313,2.1313,0.0,0.0,0.0,0.0,0.0,0.0,0.0,0.0,0.0,0.0,0.0,2.756,2.9014,0.0,0.0,0.0,0.0,0.0,0.0,0.0,0.0,0.0,0.0,0.0,0.0,3.3056,3.3821,3.9395,4.2422,4.2517,4.3705,4.4414,4.4589,4.4066,4.276,4.0549,0.0,0.0,0.0,0.0,0.0,0.0,0.0,0.0,0.0,0.0,0.0,0.0,0.0,0.0,0.0,0.0,0.0,0.0,0.0,0.0,0.0,0.0,0.0,0.0,0.0,2.6338,0.0,0.0,0.0,0.0,0.0,0.0,0.0,0.0,0.0,0.0,0.0,3.895,4.1805,4.3726,4.5537,4.7474,4.8074,4.857,0.0,0.0,0.0,0.0,0.0,0.0,0.0,0.0,0.0,0.0,0.0,0.0,0.0,0.0,4.5227,4.3498,4.3865,4.4512,4.4544,0.0,0.0,0.0,0.0,0.0,0.0,0.0,0.0,0.0,0.0,0.0,0.0,0.0,0.0,0.0,0.0,2.4115,0.0,0.0,0.0,0.0,0.0,0.0,0.0,0.0,2.9291,3.0695,3.1255,3.3157,3.4136,0.0,3.418,3.2477,0.0,0.0,0.0,0.0,0.0,0.0,0.0,0.0,3.5243,3.6025,4.1118,4.3717,4.3458,4.441,4.492,4.492,4.492,4.3991,4.2007,3.9622,3.7337,0.0,0.0,0.0,0.0,0.0,0.0,0.0,0.0,0.0,0.0,0.0,0.0,0.0,0.0,0.0,0.0,0.0,0.0,0.0,0.0,0.0,0.0,0.0,2.9832,0.0,0.0,0.0,0.0,0.0,0.0,0.0,0.0,0.0,3.6599,3.9256,4.2092,4.4259,4.5889,4.7306,4.8394,0.0,0.0,0.0,0.0,0.0,0.0,0.0,4.7419,4.7237,4.731,4.7606,4.82,4.8752,4.9275,4.986,0.0,0.0,4.7181,4.7399,4.7997,4.8019,4.8147,4.8267,4.8027,4.8686,4.9337,0.0,0.0,0.0,0.0,0.0,0.0,0.0,0.0,2.6758,2.6337,0.0,2.6438,0.0,0.0,0.0,0.0,0.0,0.0,0.0,0.0,3.4603,3.6134,3.5101,3.7193,3.8751,3.9461,3.659,3.6017,3.7465,3.5286,0.0,0.0,0.0,0.0,0.0,0.0,3.8099,3.9237,4.3279,4.5196,4.4711,4.5196,4.5472,4.5472,4.5472,4.5196,4.4539,4.203,4.0601,4.0374,3.538,0.0,0.0,0.0,0.0,0.0,0.0,0.0,0.0,0.0,0.0,0.0,0.0,0.0,0.0,0.0,0.0,0.0,0.0,0.0,0.0,3.2194,0.0,0.0,0.0,0.0,0.0,0.0,0.0,0.0,0.0,0.0,4.0322,4.2332,4.4385,4.5776,0.0,0.0,0.0,0.0,5.0417,4.8932,4.8706,4.8706,4.8735,4.943,5.0371,5.1553,0.0,0.0,5.3204,5.2187,5.1415,5.1439,5.2516,5.251,5.0055,4.9696,4.9696,4.9726,5.0242,5.0219,4.9845,5.087,5.1624,3.0511,0.0,0.0,0.0,0.0,2.8036,2.8871,3.0248,3.0248,3.0105,2.988,3.0125,0.0,0.0,0.0,0.0,0.0,0.0,3.3719,3.5696,3.7417,3.857,3.9186,4.0722,4.1622,4.189,4.1802,4.2058,4.2519,4.1849,3.89,3.3814,0.0,0.0,0.0,0.0,3.9531,4.1326,4.3648,4.5342,4.6371,4.5367,4.507,4.5472,4.5497,4.5426,4.5246,4.4037,4.2507,4.0601,3.8994,0.0,0.0,0.0,0.0,0.0,0.0,0.0,0.0,0.0,0.0,0.0,0.0,0.0,0.0,0.0,0.0,0.0,0.0,0.0,3.2326,3.5447,3.6855,0.0,0.0,0.0,0.0,0.0,0.0,0.0,0.0,0.0,4.574,4.5618,4.5937,0.0,0.0,4.8441,4.8231,4.9339,5.0218,5.0217,0.0,0.0,0.0,5.1268,5.1334,5.141,5.2402,5.3528,5.4486,5.467,5.4935,5.5299,5.5718,5.5713,5.5085,5.4516,5.4366,5.476,5.4999,5.5089,5.4995,5.5568,5.6081,3.3642,3.2615,3.0647,3.0194,3.0743,3.0763,3.1656,3.3156,3.3156,3.2979,3.267,3.302,3.2235,3.0635,3.0663,0.0,0.0,0.0,3.6415,3.9244,4.0007,4.0958,4.207,4.3729,4.4492,4.4522,4.4738,4.5196,4.5894,4.4744,4.254,3.9168,0.0,0.0,3.8356,4.0095,4.1822,4.3492,4.4897,4.6195,4.7375,4.622,4.5643,4.5799,4.5799,4.5723,4.5497,4.5146,4.4091,4.2181,4.1076,3.8994,0.0,0.0,0.0,0.0,0.0,0.0,0.0,0.0,0.0,0.0,0.0,2.8175,0.0,0.0,0.0,0.0,3.4467,3.5447,3.7569,3.9278,0.0,0.0,0.0,0.0,0.0,0.0,0.0,4.3665,4.5842,4.7759,4.8799,4.8687,4.8652,4.9209,4.9651,4.9935,5.0005,0.0,5.2297,5.2567,5.2718,5.2935,5.3324,5.3525,5.3565,5.3569,5.4192,5.4965,5.5777,5.6521,5.7064,5.7423,5.7723,5.7992,5.8231,5.7988,5.7539,5.7184,5.7543,5.7812,5.7573,5.8231,5.8979,3.6131,3.5852,3.2505,3.1909,3.3173,3.3214,3.408,3.5428,3.5469,3.5066,3.4392,3.5138,3.458,3.3029,3.3165,0.0,0.0,3.6846,3.8416,4.1412,4.261,4.3433,4.4026,4.6129,4.7174,4.7118,4.5962,4.6269,4.7689,4.5227,4.4761,4.6271,4.4317,4.3014,4.2462,4.3363,4.4418,4.5547,4.6496,4.7299,4.7883,4.745,4.6948,4.6401,4.6376,4.6125,4.5598,4.5547,4.5296,4.4614,4.2283,4.08,4.045,0.0,0.0,0.0,0.0,0.0,0.0,0.0,0.0,0.0,0.0,0.0,0.0,0.0,0.0,0.0,4.1031,0.0,4.4751,4.3272,0.0,0.0,0.0,4.3592,4.5031,4.5853,4.655,4.7102,0.0,0.0,5.0329,0.0,5.2075,5.195,5.2811,5.3355,5.3015,5.4442,5.5619,5.5248,5.5359,5.5474,5.5568,5.5987,5.6555,5.7184,5.7363,5.7363,5.7573,5.7962,5.8324,5.8534,5.8892,5.9428,6.0057,6.0057,5.9578,5.7842,5.8441,5.9042,5.8623,5.9398,6.0386,3.6639,3.6577,3.5686,3.5139,3.484,3.5191,3.5583,3.5976,3.6328,3.6349,3.6163,3.637,3.6225,3.5884,3.7271,3.8808,4.0425,4.1735,4.3534,4.5595,4.595,4.6345,4.6929,4.7482,4.7701,4.7701,4.7396,4.7477,4.7851,4.7227,4.6872,4.6898,4.6371,4.5447,4.4091,4.4292,4.4966,4.61,4.6346,4.6954,4.7883,4.8209,4.7908,4.6948,4.6898,4.6647,4.615,4.6125,4.5849,4.5296,4.4644,4.3338,4.1202,3.8843,0.0,0.0,0.0,0.0,0.0,0.0,0.0,0.0,0.0,3.4157,3.2212,0.0,3.8691,0.0,4.404,4.5943,4.4907,4.5742,0.0,0.0,4.5419,4.6251,4.7332,4.8869,4.9988,5.0327,5.1454,5.2555,5.3558,5.3946,5.4547,5.5598,5.4733,5.4087,5.4314,5.53,5.6235,5.6645,5.7124,5.7576,5.8022,5.8291,5.877,5.9967,5.9697,5.9697,6.0715,6.0625,6.0565,6.0984,6.0835,6.0745,6.0894,6.0864,6.0775,6.0266,6.0388,6.0595,6.0418,6.1044,6.1672,3.8026,3.7993,3.7993,3.7579,3.6917,3.6784,3.6846,3.7085,3.7961,3.8464,3.872,3.9563,3.9942,4.0028,4.1015,4.2189,4.349,4.4314,4.5648,4.7394,4.7224,4.7525,4.8284,4.8535,4.8786,4.9012,4.9289,4.9414,4.9414,4.9414,4.9264,4.8955,4.8987,4.8259,4.6853,4.5874,4.5769,4.6647,4.7154,4.7707,4.8284,4.8642,4.8134,4.6798,4.6747,4.6245,4.5246,4.5422,4.5196,4.4446,4.4396,4.3765,4.2404,4.0568,3.9098,0.0,0.0,0.0,0.0,0.0,0.0,0.0,0.0,0.0,0.0,0.0,4.2166,0.0,4.5987,0.0,4.6268,4.7391,4.8056,4.7696,4.8803,4.9883,5.0696,5.2079,5.3053,5.3204,5.3981,5.4882,5.5928,5.6475,5.7116,5.8291,5.7752,5.7132,5.6877,5.7643,5.8501,5.886,5.9219,5.9521,5.9967,5.9997,6.0236,6.0894,6.0805,6.0805,6.1523,6.1613,6.1762,6.2391,6.269,6.2841,6.2841,6.311,6.3288,6.3258,6.3049,6.266,6.2121,6.275,6.3528,3.9606,3.9757,3.9778,3.9665,3.9395,3.863,3.8417,3.8653,4.0072,4.0935,4.1452,4.3162,4.3903,4.3903,4.4067,4.483,4.595,4.5706,4.6546,4.8153,4.7726,4.8109,4.9145,4.9565,5.0067,5.0544,5.1046,5.1306,5.1306,5.1306,5.1247,5.1172,5.1172,5.0645,4.9565,4.7682,4.6873,4.7224,4.8335,4.8919,4.8919,4.8768,4.7933,4.6471,4.6351,4.5598,4.4116,4.4389,4.4224,4.3462,4.3411,4.3683,4.4305,4.2363,4.1382,0.0,4.0354,0.0,0.0,0.0,0.0,0.0,0.0,0.0,0.0,4.4571,4.5156,4.5473,4.776,4.9006,4.8566,4.9088,5.0104,5.1722,5.2709,5.3473,5.4166,5.5103,5.5732,5.5844,5.6146,5.6812,5.7999,5.8874,5.9608,6.0057,6.0595,6.0478,5.9817,6.0266,6.0894,6.1224,6.1373,6.1493,6.1525,6.1583,6.1674,6.1644,6.1762,6.1614,6.1942,6.2271,6.272,6.3408,6.4246,6.4845,6.4994,6.5383,6.5742,6.5562,6.5203,6.4635,6.3857,6.4276,6.5473,4.0204,4.1284,4.1284,4.1926,4.2911,4.2741,4.1837,4.0627,4.2398,4.3248,4.3372,4.3726,4.3903,4.3969,4.5042,4.5893,4.6593,4.7636,4.8764,4.9909,4.9809,5.0167,5.0828,5.0921,5.1021,5.1122,5.1222,5.1306,5.1306,5.1306,5.1046,5.0561,5.0594,5.0243,4.9615,0.0,0.0,0.0,4.8862,4.9439,4.9446,4.8535,4.7732,4.6973,4.6522,0.0,4.5196,4.4819,4.4951,4.5633,4.5689,0.0,0.0,0.0,0.0,0.0,0.0,0.0,0.0,0.0,0.0,0.0,4.5693,4.5432,4.4597,4.6135,4.8061,5.006,5.1248,5.202,5.2397,5.301,5.3434,5.3549,5.4153,5.4802,5.5423,5.6562,5.7559,5.8313,5.8901,5.9583,6.0273,6.0657,6.0747,6.0984,6.1493,6.1792,6.1583,6.1343,6.1343,6.1852,6.275,6.3408,6.3438,6.3798,6.4007,6.4246,6.4246,6.4396,6.4755,6.4516,6.4635,6.5233,6.5203,6.5024,6.5024,6.5114,6.5353,6.5233,6.5562,6.5712,6.5503,6.5652,6.5742,4.2405,0.0,4.3752,4.4534,0.0,4.6508,4.6126,4.502,4.5174,4.599,4.7115,4.7437,4.7557,4.759,4.8248,4.8715,4.9018,4.9731,5.0351,5.0845,5.0845,5.1147,5.1674,5.1674,5.1825,5.2076,5.2076,5.2076,5.2101,5.2101,5.1916,5.164,5.1615,5.1523,5.1247,5.1222,5.0544,4.9163,4.9715,4.9992,4.9992,4.9439,4.8579,4.7525,0.0,0.0,0.0,0.0,0.0,0.0,0.0,0.0,0.0,0.0,0.0,4.8443,4.775,4.7546,4.8139,4.8248,4.8846,5.0297,5.0695,5.0179,4.8653,4.9824,5.1265,5.2836,5.3355,5.3698,5.4176,5.5078,5.5652,5.568,5.6635,5.7385,5.7773,5.8709,5.9533,5.9972,6.0386,6.0835,6.1523,6.1583,6.1882,6.245,6.281,6.3139,6.3408,6.2959,6.278,6.3409,6.3977,6.4456,6.4545,6.4725,6.5024,6.4994,6.4994,6.5144,6.5473,6.5233,6.5233,6.5862,6.5981,6.5981,6.5981,6.6251,6.646,6.646,6.649,6.664,6.6849,6.6729,6.652,4.5066,4.6425,4.6462,4.7146,4.8345,4.9643,5.0101,4.983,0.0,0.0,0.0,5.1373,5.1523,5.1423,5.1456,5.1498,5.1574,5.1574,5.1674,5.1883,5.1875,5.2101,5.2528,5.2528,5.2779,5.3206,5.3196,5.3231,5.3196,5.3206,5.3206,5.3206,5.3171,5.3181,5.302,5.3046,5.2318,5.0888,5.0536,5.0386,5.0361,5.0117,4.9314,4.7933,4.8055,4.7698,4.6868,4.7938,4.8435,4.8214,4.8707,4.9327,4.9988,4.9609,4.9712,5.0614,5.0685,5.1174,5.2169,5.2256,5.2981,5.4722,5.4925,5.4458,5.3207,5.3559,5.4113,5.4751,5.5066,5.5373,5.5557,5.672,5.759,5.7864,5.9059,5.9848,5.9964,6.0755,6.1255,6.1433,6.1583,6.1882,6.257,6.269,6.2959,6.3887,6.4126,6.4425,6.4904,6.4515,6.4246,6.4725,6.4994,6.5174,6.5174,6.5353,6.5323,6.5473,6.5413,6.5353,6.5353,6.5353,6.5562,6.6131,6.664,6.6879,6.6999,6.7299,6.7808,6.7838,6.7419,6.7148,6.7628,6.7389,6.7119,4.7294,4.8642,4.8642,4.9479,5.0828,5.1469,5.2245,5.2953,5.1854,5.1806,5.2544,5.2619,5.2393,5.1975,5.2,5.2251,5.2678,5.2703,5.3206,0.0,5.4145,5.417,5.4245,5.4245,5.4295,5.4371,5.4371,5.4371,5.4371,5.4336,5.4371,5.4346,5.4371,5.4059,5.3632,5.3582,5.3256,5.2544,5.1147,5.0386,5.0361,4.9012,4.8159,4.7939,4.8587,4.8856,4.873,4.9513,5.0323,5.1153,5.1287,5.2026,5.3615,5.3637,5.3919,5.4519,5.4604,5.4691,5.4865,5.4894,5.5215,5.6084,5.6607,5.6374,5.5155,5.5097,5.5416,5.6113,5.7352,5.8221,5.8306,5.9089,5.9783,6.0067,6.0359,6.059,6.0962,6.1614,6.2241,6.275,6.3288,6.3797,6.4276,6.4456,6.4486,6.4785,6.4904,6.5114,6.5592,6.5293,6.4934,6.5054,6.5473,6.5832,6.5922,6.637,6.655,6.67,6.664,6.655,6.655,6.655,6.661,6.6789,6.6909,6.6969,6.6999,6.7059,6.7178,6.7208,6.7059,6.7059,6.7239,6.712,6.709,4.9389,5.072,5.0791,5.166,5.3115,5.3366,5.3884,5.4561,5.411,5.3858,5.3808,5.3833,5.3683,5.3457,5.3432,5.3582,5.3808,5.3833,5.4084,5.4572,5.4597,5.4597,5.4597,5.4597,5.4597,5.4597,5.4597,5.4597,5.4597,5.4597,5.4446,5.411,5.3808,5.3532,5.3271,5.3246,5.3121,5.2895,5.2142,5.1615,5.1322,5.0569,5.0042,4.9773,5.0782,5.1345,5.1402,5.309,5.4276,5.4739,5.5111,5.5701,5.6464,5.6229,5.6142,5.6432,5.6432,5.6432,5.6432,5.6781,5.7213,5.7674,5.8256,5.8457,5.8041,5.7383,5.7386,5.8336,5.9009,5.9415,5.9758,6.0489,6.1222,6.1893,6.225,6.2637,6.3141,6.3468,6.3768,6.4096,6.4395,6.4665,6.4964,6.4994,6.5174,6.5443,6.5802,6.6191,6.649,6.6281,6.6101,6.6131,6.634,6.652,6.655,6.6759,6.6969,6.6999,6.6999,6.6999,6.6999,6.6999,6.6999,6.6999,6.6999,6.6999,6.6999,6.6999,6.6999,6.6999,6.6999,6.6999,6.7,6.7457,6.7729,5.1664,5.2743,5.2743,5.3526,5.4737,5.4647,5.5049,5.5717,5.5616,5.539,5.5175,5.5024,5.4898,5.4798,5.4924,5.4898,5.4823,5.4924,5.4974,5.4974,5.4974,5.4938,5.4974,5.4938,5.4974,5.4974,5.4974,5.4974,5.4938,5.4974,5.4712,5.426,5.3858,5.3607,5.3447,5.3482,5.358,5.3764,5.3799,5.3222,5.216,5.2279,5.2176,5.187,5.3339,5.4235,5.4303,5.651,5.7746,5.7748,5.8233,5.8523,5.8493,5.8058,5.7768,5.7768,5.7739,5.7739,5.7797,5.8463,5.9015,5.9448,6.0091,6.0675,6.1025,6.0208,5.9829,6.0526,6.0644,6.0878,6.149,6.2048,6.2669,6.3469,6.3947,6.4306,6.4874,6.4994,6.5084,6.5174,6.5203,6.5263,6.5383,6.5443,6.5682,6.6221,6.667,6.6969,6.6999,6.6999,6.6999,6.6999,6.6999,6.6969,6.6999,6.6969,6.6999,6.6999,6.6999,6.6999,6.6999,6.6999,6.6999,6.6999,6.6999,6.6999,6.7029,6.7305,6.7457,6.7548,6.7789,6.7999,6.8058,6.8621,6.8797,5.4242,5.4384,5.4373,5.4731,5.5239,5.4823,5.5501,5.6634,5.6308,5.6394,5.6584,5.6269,5.5742,5.5415,5.5817,5.5742,5.5365,5.5817,5.6018,5.6018,5.6068,5.6043,5.6018,5.6018,5.6068,5.6018,5.5993,5.5968,5.5942,5.5968,5.5956,5.5993,5.5917,5.5577,5.52,5.5125,5.5547,5.6391,5.6459,5.5022,5.2346,5.2818,5.3192,5.3172,5.5616,5.6938,5.687,5.8339,5.9131,5.9102,5.919,5.9219,5.9219,5.9161,5.9103,5.9132,5.9132,5.9132,5.9219,5.9976,6.0794,6.1409,6.2233,6.309,6.3951,6.3741,6.3029,6.2381,6.2765,6.3328,6.413,6.4398,6.4516,6.4695,6.4845,6.4934,6.5084,6.4994,6.5233,6.5862,6.5922,6.6131,6.655,6.664,6.6729,6.6759,6.6879,6.6999,6.6999,6.6999,6.6999,6.6999,6.6999,6.6999,6.6999,6.6999,6.6999,6.6999,6.6999,6.6999,6.6999,6.6999,6.6999,6.6999,6.7122,6.7183,6.7366,6.7789,6.8621,6.8715,6.9271,7.0186,7.0265,7.0501,7.0221,5.5541,5.5541,5.5541,5.5666,5.5817,5.5641,5.5917,5.6495,5.6319,5.6344,5.652,5.6294,5.6057,5.5892,5.6118,5.6093,5.5892,5.6118,5.6219,5.6219,5.6219,5.6219,5.6219,5.6219,5.6219,5.6219,5.6219,5.6219,5.6143,5.5892,5.5717,5.5691,5.5415,5.5578,5.6171,5.6215,5.679,5.8019,5.806,5.7444,5.6345,5.6132,5.6078,5.6214,5.757,5.8365,5.8487,5.9665,6.0409,6.0409,6.0438,6.0409,6.0409,6.0438,6.0584,6.0962,6.152,6.1814,6.1873,6.2407,6.2881,6.3386,6.3771,6.4248,6.4755,6.4695,6.4516,6.4457,6.4308,6.4397,6.4785,6.4964,6.5144,6.5473,6.5562,6.5712,6.6161,6.6191,6.6311,6.655,6.661,6.667,6.6909,6.6999,6.6999,6.6999,6.6999,6.6999,6.6999,6.6999,6.6999,6.6999,6.6999,6.6999,6.6999,6.6999,6.6999,6.6999,6.6999,6.6999,6.7091,6.6999,6.6999,6.706,6.7669,6.8059,6.8118,6.9003,6.9842,7.0128,7.0575,7.1486,7.2221,7.2944,7.3027,5.6219,5.6219,5.6219,5.6219,5.6219,5.6219,5.6294,5.6383,5.6445,5.6408,5.6408,5.6408,5.6344,5.6244,5.6369,5.6369,5.6244,5.6333,5.6344,5.6219,5.6219,5.6219,5.6219,5.6219,5.6219,5.6219,5.6328,5.6365,5.6351,5.6323,5.6239,5.6198,5.6232,5.6773,5.7715,5.7818,5.8542,5.9851,6.0017,6.0243,6.0489,5.9995,5.9386,5.8966,5.9725,6.0217,6.0217,6.1169,6.1716,6.1716,6.1716,6.1716,6.1716,6.1716,6.198,6.2509,6.3281,6.3728,6.3757,6.4032,6.4423,6.4783,6.4903,6.5143,6.5473,6.5562,6.5742,6.6101,6.5681,6.5382,6.5502,6.5532,6.5802,6.6221,6.6281,6.649,6.6879,6.6999,6.6939,6.6999,6.6939,6.6999,6.6999,6.6999,6.6999,6.6999,6.6999,6.6999,6.6999,6.6999,6.6999,6.6999,6.6999,6.6999,6.6999,6.6999,6.703,6.7457,6.7578,6.7759,6.7849,6.7998,6.7998,6.8798,6.9182,6.9658,7.0075,7.0787,7.2013,7.2277,7.2786,7.3532,7.4442,7.5364,7.5714,5.6219,5.6219,5.6219,5.6219,5.6219,5.6219,5.652,5.686,5.691,5.6935,5.686,5.6885,5.6696,5.6269,5.6696,5.6696,5.6319,5.6696,5.6682,5.6317,5.6255,5.6219,5.6219,5.6219,5.6255,5.6365,5.662,5.6801,5.6812,5.7743,5.8286,5.8234,5.9355,6.0244,6.0389,6.0361,6.1157,6.2384,6.2544,6.3187,6.4317,6.3896,6.2628,6.1228,6.2125,6.272,6.2811,6.2902,6.2964,6.2993,6.2935,6.2935,6.2964,6.2995,6.3178,6.3544,6.391,6.4122,6.4181,6.4513,6.4902,6.5408,6.574,6.619,6.664,6.67,6.6759,6.6909,6.6759,6.6729,6.6759,6.667,6.6759,6.6849,6.6909,6.6939,6.6969,6.6999,6.6999,6.6999,6.6999,6.6999,6.6999,6.6999,6.6999,6.6999,6.6999,6.6999,6.6999,6.6999,6.6999,6.6999,6.6999,6.6999,6.6999,6.6999,6.7487,6.7819,6.8028,6.8829,6.9839,7.0431,7.0293,7.0482,7.0979,7.155,7.2153,7.3329,7.4862,7.5595,7.5964,7.6608,7.6781,7.6973,7.7252,5.6219,5.6219,5.6219,5.6219,5.6219,5.6219,5.6319,5.6495,5.6483,5.6495,5.652,5.652,5.6504,5.6583,5.6785,5.676,5.6609,5.6785,5.6906,5.6946,5.6946,5.6982,5.6982,5.6982,5.6982,5.6982,5.7127,5.7199,5.7343,5.8453,5.8991,5.9052,6.0215,6.1341,6.2109,6.2109,6.284,6.4332,6.43,6.4457,6.4935,6.4764,6.4248,6.3578,6.3236,6.314,6.314,6.314,6.314,6.314,6.314,6.3173,6.3449,6.3984,6.4344,6.4557,6.5218,6.5639,6.567,6.5946,6.6218,6.6427,6.6579,6.67,6.6939,6.6999,6.6999,6.6999,6.6999,6.6999,6.6999,6.6999,6.6999,6.6999,6.6999,6.6999,6.6999,6.6999,6.6999,6.6999,6.6999,6.6999,6.6999,6.6999,6.6999,6.6999,6.6999,6.6999,6.6999,6.6999,6.6999,6.6999,6.6999,6.6999,6.6999,6.6999,6.7183,6.7396,6.7729,6.8333,6.917,7.0027,7.0033,7.1787,7.2539,7.3545,7.4257,7.5277,7.6914,7.7643,7.8109,7.837,7.896,7.8657,7.8809,5.6282,5.647,5.647,5.6595,5.6746,5.6746,5.6771,5.6746,5.6893,5.693,5.6967,5.7077,5.7297,5.7466,5.7313,5.7346,5.7393,5.7157,5.7127,5.7379,5.7405,5.7405,5.7405,5.7405,5.7405,5.7379,5.7405,5.7641,5.84,5.9611,6.0311,6.0661,6.198,6.3169,6.398,6.3948,6.4493,6.5443,6.5441,6.5314,6.5346,6.5346,6.5346,6.5198,6.4468,6.3937,6.3721,6.3844,6.3877,6.3877,6.4,6.4155,6.4432,6.5094,6.5484,6.5574,6.6238,6.666,6.6691,6.6876,6.6969,6.6999,6.6999,6.6999,6.6999,6.6999,6.6999,6.6999,6.6999,6.6999,6.6999,6.6999,6.6999,6.6999,6.6999,6.6999,6.6999,6.6999,6.6999,6.6999,6.6999,6.6999,6.6999,6.6999,6.6999,6.6999,6.6999,6.6999,6.6999,6.6999,6.6999,6.7029,6.7238,6.7635,6.8183,6.8637,6.9115,6.9351,6.9318,6.9328,7.0022,7.0532,7.1308,7.3012,7.437,7.5506,7.6478,7.7384,7.8159,7.8943,7.9128,7.9271,7.9711,8.0023,7.9862,5.6533,5.6985,5.701,5.7286,5.7725,5.7763,5.7863,5.7863,5.8237,5.831,5.8322,5.8783,5.8829,5.8903,5.8415,5.8418,5.8559,5.7981,5.759,5.7549,5.7487,5.7487,5.7523,5.7523,5.7667,5.7739,5.7559,5.847,6.0131,6.1267,6.2381,6.3692,6.4877,6.5538,6.5913,6.5727,6.5851,6.5976,6.5945,6.5945,6.5976,6.5913,6.5913,6.5913,6.5825,6.5486,6.4975,6.5261,6.5331,6.5421,6.567,6.5947,6.5891,6.6231,6.6446,6.6478,6.6785,6.6968,6.6968,6.6999,6.6999,6.6999,6.6999,6.6999,6.6999,6.6999,6.6999,6.6999,6.6999,6.6999,6.6999,6.6999,6.6999,6.6999,6.6999,6.6999,6.6999,6.6999,6.6999,6.6999,6.6999,6.6999,6.6999,6.6999,6.6999,6.6999,6.6999,6.6999,6.6999,6.6999,6.6999,6.7302,6.7848,6.8577,6.9607,7.0661,7.1384,7.1977,7.185,7.1914,7.3439,7.4231,7.4421,7.5739,7.6722,7.7784,7.8181,7.8997,7.9244,7.9812,7.9964,7.9947,8.0074,8.0209,8.0209,5.7474,5.7625,5.7587,5.7725,5.7913,5.8176,5.8326,5.8363,5.8774,5.8897,5.896,5.9071,5.9256,5.9452,5.9308,5.9413,5.9716,5.9435,5.8921,5.8261,5.8132,5.8132,5.8132,5.8167,5.8647,5.9472,5.9611,6.0414,6.1941,6.3206,6.4081,6.4464,6.5666,6.6319,6.6319,6.6132,6.6101,6.6288,6.6101,6.6007,6.6037,6.6007,6.6007,6.6037,6.6007,6.5882,6.5725,6.5788,6.5851,6.5851,6.5945,6.6101,6.6351,6.666,6.6845,6.6846,6.6937,6.6999,6.6999,6.6999,6.6999,6.6999,6.6999,6.6999,6.6999,6.6999,6.6999,6.6999,6.6999,6.6999,6.6999,6.6999,6.6999,6.6999,6.6999,6.6969,6.6939,6.6969,6.6999,6.6999,6.6999,6.6999,6.6999,6.6999,6.6999,6.6999,6.6969,6.6939,6.7029,6.7152,6.7668,6.8667,6.9243,7.0149,7.1614,7.286,7.3635,7.407,7.4047,7.4272,7.5909,7.6941,7.7238,7.7784,7.8839,7.9474,7.993,8.0107,8.0183,8.0209,8.0099,8.0099,8.0183,8.0209,8.0209,5.8027,5.8202,5.8353,5.853,5.8744,5.916,5.9348,5.9386,5.9761,5.9948,5.9985,6.0134,6.0283,6.0479,6.0334,6.0341,6.0499,6.0326,5.9793,5.9176,5.8889,5.8836,5.8926,5.9149,6.0027,6.1165,6.1436,6.2148,6.3562,6.4432,6.5039,6.5509,6.6259,6.6691,6.6691,6.6506,6.6506,6.6629,6.6506,6.6382,6.6382,6.6382,6.6382,6.6382,6.6382,6.6382,6.6382,6.6382,6.6319,6.6226,6.6288,6.6475,6.6691,6.6907,6.6999,6.6999,6.6999,6.6999,6.6999,6.6999,6.6999,6.6999,6.6999,6.6999,6.6999,6.6999,6.6999,6.6999,6.6999,6.6999,6.6999,6.6999,6.6999,6.6999,6.6999,6.6879,6.6729,6.661,6.661,6.664,6.6819,6.6939,6.6999,6.6999,6.6999,6.6969,6.6789,6.7305,6.7578,6.791,6.9025,7.032,7.1442,7.2572,7.394,7.4988,7.5864,7.6098,7.6156,7.6589,7.7596,7.8051,7.8433,7.8845,7.9693,7.9795,8.0158,8.0158,8.0209,8.0209,8.0209,8.0209,8.0209,8.0209,8.0209,5.8341,5.8844,5.9186,5.9617,6.0074,6.0482,6.0646,6.0761,6.1153,6.1316,6.1417,6.1565,6.1831,6.179,6.1271,6.1126,6.1047,6.0692,6.0483,6.0268,6.002,5.9885,5.9906,6.0677,6.1813,6.2881,6.3046,6.3716,6.4944,6.5166,6.5668,6.6753,6.6846,6.6999,6.6937,6.6968,6.6937,6.6937,6.6937,6.6937,6.6937,6.6968,6.6937,6.6937,6.6937,6.6907,6.6907,6.6907,6.6814,6.6599,6.6784,6.6907,6.6968,6.6999,6.6999,6.6999,6.6999,6.6999,6.6999,6.6999,6.6999,6.6999,6.6999,6.6999,6.6999,6.6999,6.6999,6.6999,6.6999,6.6999,6.6999,6.6999,6.6969,6.6909,6.6819,6.658,6.6041,6.5951,6.5951,6.6041,6.649,6.6849,6.67,6.67,6.6759,6.685,6.6642,6.7698,6.8874,6.9595,7.0513,7.1863,7.3378,7.4699,7.5984,7.6843,7.7649,7.7881,7.7913,7.8262,7.8697,7.9046,7.9301,7.9777,8.0082,8.0158,8.0209,8.0209,8.0209,8.0209,8.0209,8.0209,8.0209,8.0209,8.0209,5.9502,6.0151,5.9973,6.0151,6.0584,6.1003,6.1193,6.1268,6.1672,6.1823,6.186,6.1935,6.201,6.1984,6.1853,6.1764,6.1697,6.1629,6.154,6.1621,6.2101,6.1997,6.2028,6.3011,6.4138,6.4986,6.5095,6.5568,6.6413,6.6382,6.6629,6.6968,6.6999,6.6999,6.6999,6.6999,6.6999,6.6999,6.6999,6.6999,6.6999,6.6999,6.6999,6.6999,6.6999,6.6999,6.6999,6.6999,6.6968,6.6907,6.6937,6.6999,6.6999,6.6999,6.6999,6.6999,6.6999,6.6999,6.6999,6.6999,6.6999,6.6999,6.6999,6.6999,6.6999,6.6999,6.6999,6.6999,6.6999,6.6999,6.6999,6.6969,6.6789,6.637,6.6251,6.5951,6.5413,6.5263,6.5263,6.5293,6.5443,6.5592,6.5622,6.5682,6.5892,6.6432,6.7335,6.8622,7.0097,7.1415,7.2382,7.3932,7.5427,7.6698,7.7841,7.8722,7.9324,7.9574,7.9558,7.9473,7.9676,7.9795,7.993,8.0183,8.0158,8.0209,8.0209,8.0209,8.0209,8.0209,8.0209,8.0209,8.0209,8.0209,8.0209,6.0278,6.0698,6.066,6.0775,6.1041,6.1457,6.1646,6.171,6.1898,6.201,6.201,6.201,6.201,6.201,6.201,6.201,6.2085,6.263,6.2937,6.3262,6.4768,6.5069,6.4762,6.531,6.6137,6.7107,6.7177,6.7236,6.7384,6.7419,6.7268,6.7029,6.6999,6.6999,6.6999,6.6999,6.6999,6.6999,6.6999,6.6999,6.6999,6.6999,6.6999,6.6999,6.6999,6.6999,6.6999,6.6999,6.6999,6.6999,6.6999,6.6999,6.6999,6.6999,6.6999,6.6999,6.6999,6.6999,6.6999,6.6999,6.6999,6.6999,6.6999,6.6999,6.6999,6.6999,6.6999,6.6999,6.6999,6.6999,6.6939,6.6759,6.6281,6.5682,6.5353,6.5024,6.4605,6.4605,6.4575,6.4605,6.4815,6.4994,6.5024,6.5203,6.5862,6.673,6.7988,6.9868,7.1806,7.3055,7.4448,7.6044,7.7094,7.8179,7.8741,7.941,7.9742,8.0074,8.015,8.0209,8.0209,8.0209,8.0209,8.0209,8.0209,8.0209,8.0209,8.0209,8.0209,8.0209,8.0209,8.0209,8.0209,8.0209,8.0209,6.0698,6.0748,6.1075,6.1316,6.1469,6.1782,6.1868,6.201,6.201,6.201,6.201,6.201,6.201,6.201,6.201,6.201,6.2059,6.3379,6.4383,6.536,6.6946,6.7776,6.7322,6.7363,6.7965,6.8776,6.9062,6.8612,6.8257,6.8107,6.7748,6.7328,6.7148,6.7059,6.7029,6.6999,6.6999,6.6999,6.6999,6.6999,6.6999,6.6999,6.6999,6.6999,6.6999,6.6999,6.6999,6.6999,6.6999,6.6999,6.6999,6.6999,6.6999,6.6999,6.6999,6.6999,6.6999,6.6999,6.6999,6.6999,6.6999,6.6999,6.6999,6.6999,6.6999,6.6999,6.6999,6.6999,6.6999,6.6939,6.67,6.6281,6.5652,6.4964,6.4336,6.3977,6.3917,6.3917,6.3887,6.3917,6.4455,6.4725,6.5084,6.5652,6.655,6.7802,6.9321,7.1872,7.3798,7.5244,7.6685,7.8239,7.9005,7.9495,7.9734,7.9947,8.0023,8.0209,8.0209,8.0209,8.0209,8.0209,8.0209,8.0209,8.0209,8.0209,8.0209,8.0209,8.0209,8.0209,8.0209,8.0209,8.0209,8.0209,8.0209,6.0446,6.0944,6.0253,6.0702,6.1704,6.1465,6.1555,6.201,6.201,6.201,6.201,6.201,6.201,6.201,6.2085,6.201,6.2358,6.3792,6.5324,6.777,6.818,6.9332,6.9666,6.98,6.9819,6.9871,6.9752,6.9393,6.8914,6.8734,6.8466,6.7868,6.7778,6.7538,6.7089,6.7089,6.6999,6.6999,6.6999,6.6999,6.6999,6.6999,6.6999,6.6999,6.6999,6.6999,6.6999,6.6999,6.6999,6.6999,6.6999,6.6999,6.6999,6.6999,6.6999,6.6999,6.6999,6.6999,6.6999,6.6999,6.6999,6.6999,6.7059,6.6999,6.6999,6.7059,6.7059,6.6999,6.6969,6.6909,6.64,6.5652,6.4994,6.4395,6.3737,6.3347,6.3317,6.3317,6.3347,6.3407,6.3497,6.3736,6.4274,6.5931,6.7214,6.8745,7.1213,7.3983,7.5712,7.7199,7.8317,7.9544,7.9699,7.9904,7.9955,8.0057,8.0158,8.0209,8.0209,8.0209,8.0209,8.0209,8.0209,8.0209,8.0209,8.0209,8.0209,8.0209,8.0209,8.0209,8.0209,8.0209,8.0209,8.0209,8.0209,6.0858,6.1413,6.0653,6.0951,6.1842,6.1659,6.1685,6.1958,6.201,6.201,6.201,6.201,6.201,6.2085,6.2704,6.3048,6.3573,6.536,6.753,6.9349,6.9748,7.0173,7.0661,7.0889,7.0709,7.044,7.041,7.0051,6.9632,6.9393,6.9123,6.8526,6.8496,6.8137,6.7568,6.7479,6.7268,6.7029,6.6999,6.6999,6.6999,6.6999,6.6999,6.6999,6.6999,6.6999,6.6999,6.6999,6.6999,6.6999,6.6999,6.6999,6.6999,6.6999,6.6999,6.6999,6.6999,6.6999,6.6999,6.6999,6.6999,6.7029,6.7299,6.7449,6.7567,6.7717,6.7926,6.7926,6.7867,6.7597,6.658,6.5503,6.4755,6.4066,6.3467,6.3138,6.3108,6.3108,6.3108,6.3108,6.3168,6.4141,6.5174,6.6915,6.9095,7.1143,7.3032,7.5652,7.7053,7.8422,7.9038,7.9827,7.9929,8.0031,8.0057,8.0107,8.0183,8.0209,8.0209,8.0209,8.0209,8.0209,8.0209,8.0209,8.0209,8.0209,8.0209,8.0209,8.0209,8.0209,8.0209,8.0209,8.0209,8.0209,8.0209,6.1398,6.179,6.1215,6.1346,6.1932,6.1906,6.188,6.201,6.201,6.201,6.2123,6.2198,6.2556,6.2704,6.3938,6.4563,6.5573,6.7116,6.9153,7.0498,7.0629,7.0726,7.0919,7.0889,7.0889,7.0919,7.0829,7.053,7.0231,7.0081,6.9782,6.9243,6.9153,6.8764,6.8317,6.8137,6.7868,6.7328,6.7238,6.7119,6.7029,6.6999,6.6999,6.6999,6.6999,6.7119,6.7178,6.7238,6.7238,6.7298,6.7298,6.7298,6.7268,6.7029,6.7089,6.7119,6.7238,6.7358,6.7508,6.7448,6.7448,6.7328,6.7808,6.8107,6.8256,6.8495,6.8734,6.8854,6.8734,6.8286,6.7119,6.5981,6.4934,6.4126,6.3467,6.3224,6.3338,6.3425,6.3689,6.351,6.4188,6.5285,6.7031,6.8867,7.1246,7.3517,7.5359,7.6984,7.8344,7.9272,7.9753,8.0006,8.0082,8.0107,8.0133,8.0133,8.0209,8.0209,8.0209,8.0209,8.0209,8.0209,8.0209,8.0209,8.0209,8.0209,8.0209,8.0209,8.0209,8.0209,8.0209,8.0209,8.0209,8.0209,8.0209,6.1126,6.1215,6.0614,6.098,6.1853,6.1476,6.1581,6.1958,6.2085,6.201,6.2209,6.3306,6.3828,6.4201,6.5396,6.6636,6.7736,6.8784,6.9615,7.0726,7.0919,7.0919,7.0919,7.0919,7.0919,7.0919,7.0919,7.0799,7.0739,7.0709,7.035,6.9931,6.9844,6.9482,6.9004,6.8794,6.8495,6.7926,6.7807,6.7628,6.7298,6.7208,6.7208,6.7208,6.7238,6.7418,6.7748,6.7868,6.8107,6.8585,6.8675,6.8645,6.8345,6.7597,6.7388,6.7748,6.7868,6.8017,6.8345,6.8555,6.8615,6.8675,6.8764,6.8824,6.8854,6.8974,6.9213,6.9153,6.9004,6.8495,6.7148,6.634,6.5323,6.4336,6.3821,6.3687,6.4368,6.4981,6.5363,6.5343,6.6016,6.7105,6.927,7.129,7.3392,7.5421,7.708,7.8192,7.9175,7.9736,8.0031,8.0158,8.0183,8.0183,8.0209,8.0183,8.0209,8.0209,8.0209,8.0209,8.0209,8.0209,8.0209,8.0209,8.0209,8.0209,8.0209,8.0209,8.0209,8.0209,8.0209,8.0209,8.0209,8.0209,8.0209,6.1293,6.1476,6.0927,6.1189,6.1842,6.1685,6.1711,6.2097,6.2778,6.3122,6.3573,6.4635,6.5324,6.5751,6.6943,6.8417,6.9453,6.9847,7.0272,7.0856,7.0919,7.0919,7.0919,7.0919,7.0919,7.0919,7.0919,7.0919,7.0919,7.0889,7.0739,7.056,7.047,7.0141,6.9662,6.9482,6.9123,6.8645,6.8465,6.8345,6.8046,6.8016,6.8016,6.8016,6.8016,6.8196,6.8375,6.8495,6.8645,6.8914,6.8974,6.9004,6.8734,6.8286,6.7807,6.8375,6.8526,6.8615,6.8944,6.9004,6.8944,6.9034,6.9303,6.9482,6.9602,6.9782,6.9901,6.9901,6.9604,6.9123,6.8166,6.7148,6.6101,6.5323,6.4953,6.525,6.5934,6.7041,6.7708,6.7985,6.848,6.9911,7.2188,7.4069,7.5748,7.7378,7.8819,7.9495,7.9929,8.0082,8.0209,8.0209,8.0209,8.0209,8.0209,8.0209,8.0209,8.0209,8.0209,8.0209,8.0209,8.0209,8.0209,8.0209,8.0209,8.0209,8.0209,8.0209,8.0209,8.0209,8.0209,8.0209,8.0209,8.0209,8.0209,6.145,6.1958,6.1372,6.145,6.1958,6.201,6.201,6.2284,6.3536,6.412,6.4455,6.5998,6.6845,6.7254,6.8417,6.9781,7.0886,7.0824,7.0824,7.0856,7.0919,7.0919,7.0919,7.0919,7.0919,7.0919,7.0919,7.0919,7.0919,7.0919,7.0919,7.0829,7.0859,7.0709,7.026,7.0203,6.9752,6.9393,6.9183,6.9153,6.9034,6.9004,6.9004,6.9004,6.9004,6.9004,6.9153,6.9183,6.9183,6.9243,6.9243,6.9243,6.9123,6.8675,6.8704,6.9213,6.9153,6.9093,6.9243,6.9453,6.9572,6.9632,6.9931,7.0111,7.0231,7.047,7.0799,7.0829,7.05,6.9933,6.9093,6.8136,6.7208,6.6733,6.6872,6.7425,6.8143,6.9383,7.1258,7.1504,7.1446,7.2584,7.4706,7.6049,7.755,7.8065,7.9469,7.9649,8.0031,8.0133,8.0209,8.0209,8.0209,8.0209,8.0209,8.0209,8.0209,8.0209,8.0209,8.0209,8.0209,8.0209,8.0209,8.0209,8.0209,8.0209,8.0209,8.0209,8.0209,8.0209,8.0209,8.0209,8.0209,8.0209,8.0209,6.145,6.1958,6.1372,6.145,6.1958,6.2059,6.2048,6.2284,6.3792,6.4201,6.4779,6.7116,6.8417,6.875,6.9847,7.0661,7.0856,7.0919,7.0919,7.0919,7.0919,7.0919,7.0919,7.0919,7.0919,7.0919,7.0919,7.0919,7.0919,7.0919,7.0919,7.0919,7.0889,7.0829,7.0709,7.0649,7.047,6.9993,6.9903,6.9602,6.9213,6.9123,6.9123,6.9123,6.9153,6.9363,6.9812,6.9871,6.9871,6.9873,6.9903,6.9903,6.9842,6.9873,7.0081,7.0141,6.9812,6.9273,6.9812,7.0201,7.044,7.041,7.0649,7.0769,7.0739,7.0769,7.0919,7.0919,7.0769,7.0661,7.0095,6.931,6.8528,6.8516,6.8893,6.9537,7.0305,7.2185,7.4058,7.5101,7.5069,7.5658,7.7014,7.8144,7.9169,7.9554,7.9853,8.0006,8.0107,8.0183,8.0209,8.0209,8.0209,8.0209,8.0209,8.0209,8.0209,8.0209,8.0209,8.0209,8.0209,8.0209,8.0209,8.0209,8.0209,8.0209,8.0209,8.0209,8.0209,8.0209,8.0209,8.0209,8.0209,8.0209,8.0209,6.0771,6.1006,6.1084,6.1241,6.1614,6.2693,6.3232,6.3755,6.5715,6.6769,6.7151,6.8918,6.9946,7.0075,7.0694,7.0856,7.0919,7.0919,7.0919,7.0919,7.0919,7.0919,7.0919,7.0919,7.0919,7.0919,7.0919,7.0919,7.0919,7.0919,7.0919,7.0919,7.0919,7.0889,7.0919,7.0919,7.0739,7.056,7.047,7.038,7.0141,7.0081,7.0051,7.0051,7.0051,7.0201,7.038,7.05,7.05,7.05,7.05,7.05,7.041,7.0201,7.0143,7.0231,6.9901,6.9901,7.041,7.0769,7.0859,7.0919,7.0919,7.0889,7.0919,7.0921,7.0921,7.0919,7.0919,7.1064,7.14,7.0948,7.1047,7.1159,7.1511,7.2122,7.3183,7.5153,7.6849,7.7795,7.8496,7.8471,7.8514,7.9001,7.9606,7.9845,8.0006,8.0082,8.0158,8.0183,8.0209,8.0209,8.0209,8.0209,8.0209,8.0209,8.0209,8.0209,8.0209,8.0209,8.0209,8.0209,8.0209,8.0209,8.0209,8.0209,8.0209,8.0209,8.0209,8.0209,8.0209,8.0209,8.0209,8.0242,8.0378,6.0325,6.0582,6.1004,6.1373,6.1821,6.3551,6.4442,6.5074,6.7261,6.8475,6.9057,7.014,7.0824,7.0919,7.0856,7.0919,7.0919,7.0919,7.0919,7.0919,7.0919,7.0919,7.0919,7.0919,7.0919,7.0919,7.0919,7.0919,7.0919,7.0919,7.0919,7.0919,7.0919,7.0919,7.0919,7.0919,7.0859,7.0829,7.0829,7.0829,7.0799,7.0829,7.0829,7.0859,7.0889,7.0919,7.0919,7.0889,7.0859,7.059,7.053,7.05,7.047,7.0203,7.0141,7.029,7.0231,7.038,7.0679,7.0889,7.0919,7.0919,7.0919,7.0919,7.0954,7.1051,7.1375,7.1535,7.2046,7.2518,7.2922,7.2795,7.3031,7.3755,7.4646,7.5242,7.5885,7.7231,7.818,7.8713,7.9271,7.9618,7.9677,7.9786,8.0006,8.0158,8.0209,8.0209,8.0209,8.0209,8.0209,8.0209,8.0209,8.0209,8.0209,8.0209,8.0209,8.0209,8.0209,8.0209,8.0209,8.0209,8.0209,8.0209,8.0209,8.0209,8.0209,8.0209,8.0209,8.0209,8.0209,8.0209,8.0209,8.031,8.075,6.0711,6.1414,6.1496,6.2188,6.3189,6.4076,6.5173,6.6335,6.7434,6.8352,6.909,7.0173,7.0919,7.0919,7.0919,7.0919,7.0919,7.0919,7.0919,7.0919,7.0919,7.0919,7.0919,7.0919,7.0919,7.0919,7.0919,7.0919,7.0919,7.0919,7.0919,7.0919,7.0919,7.0919,7.0919,7.0919,7.0919,7.0919,7.0919,7.0919,7.0919,7.0919,7.0919,7.0919,7.0919,7.0919,7.0919,7.0919,7.0739,7.029,7.032,7.032,7.035,7.0263,7.032,7.059,7.0679,7.0769,7.0889,7.0919,7.0919,7.0919,7.1018,7.118,7.1247,7.2141,7.2549,7.2736,7.3292,7.4081,7.4498,7.476,7.4921,7.5688,7.6593,7.7058,7.7609,7.8467,7.9337,7.9667,7.9921,8.0074,8.0158,8.0082,8.0082,8.0183,8.0209,8.0209,8.0209,8.0209,8.0209,8.0209,8.0209,8.0209,8.0209,8.0209,8.0209,8.0209,8.0209,8.0209,8.0209,8.0209,8.0209,8.0209,8.0209,8.0209,8.0209,8.0209,8.0209,8.0209,8.0209,8.0276,8.0615,8.0919,8.146,6.1871,6.1646,6.3432,6.4145,6.4208,6.5788,6.7002,6.79,6.9119,6.9775,7.0012,7.0629,7.0919,7.0919,7.0919,7.0919,7.0919,7.0919,7.0919,7.0919,7.0919,7.0919,7.0919,7.0919,7.0919,7.0919,7.0919,7.0919,7.0919,7.0919,7.0919,7.0919,7.0919,7.0919,7.0919,7.0919,7.0919,7.0919,7.0919,7.0919,7.0919,7.0919,7.0919,7.0919,7.0919,7.0919,7.0919,7.0919,7.0739,7.062,7.053,7.05,7.05,7.05,7.062,7.0859,7.0889,7.0919,7.0951,7.0919,7.0919,7.1115,7.1567,7.2077,7.211,7.3231,7.3809,7.4201,7.4678,7.5351,7.6071,7.6411,7.68,7.7615,7.8224,7.8598,7.9027,7.9665,7.987,7.9972,8.0048,8.0183,8.0209,8.0209,8.0183,8.0209,8.0209,8.0209,8.0209,8.0209,8.0209,8.0209,8.0209,8.0209,8.0209,8.0209,8.0209,8.0209,8.0209,8.0209,8.0209,8.0209,8.0209,8.0209,8.0209,8.0209,8.0209,8.0209,8.0209,8.0209,8.031,8.0412,8.0851,8.1494,8.2205,6.332,6.3582,6.5372,6.5721,6.525,6.6767,6.8001,6.8811,6.957,7.032,7.062,7.0769,7.0919,7.0919,7.0919,7.0919,7.0919,7.0919,7.0919,7.0919,7.0919,7.0919,7.0919,7.0919,7.0919,7.0919,7.0919,7.0919,7.0919,7.0919,7.0919,7.0919,7.0919,7.0919,7.0919,7.0919,7.0919,7.0919,7.0919,7.0919,7.0919,7.0919,7.0919,7.0919,7.0919,7.0919,7.0919,7.0919,7.0889,7.0859,7.0859,7.0889,7.0889,7.0919,7.0919,7.0919,7.0919,7.0919,7.0954,7.1279,7.1439,7.1728,7.2736,7.3231,7.3627,7.45,7.5208,7.5499,7.5928,7.6641,7.7615,7.8002,7.8271,7.8895,7.921,7.958,7.9632,7.9998,8.0107,8.015,8.0209,8.0209,8.0209,8.0209,8.0209,8.0209,8.0209,8.0209,8.0209,8.0209,8.0209,8.0209,8.0209,8.0209,8.0209,8.0209,8.0209,8.0209,8.0209,8.0209,8.0209,8.0209,8.0209,8.0209,8.0209,8.0209,8.0209,8.0209,8.0209,8.0209,8.0479,8.0919,8.1866,8.2543,8.3016,6.4986,6.7376,6.6999,6.6513,6.6116,6.6708,6.7832,6.884,6.8582,6.9005,7.0021,7.053,7.0829,7.0829,7.0829,7.0919,7.0919,7.0919,7.0919,7.0919,7.0919,7.0919,7.0919,7.0919,7.0919,7.0919,7.0919,7.0919,7.0919,7.0919,7.0919,7.0919,7.0919,7.0919,7.0919,7.0919,7.0919,7.0919,7.0919,7.0919,7.0919,7.0919,7.0919,7.0919,7.0919,7.0919,7.0919,7.0919,7.0919,7.0919,7.0919,7.0919,7.0919,7.0919,7.0919,7.0919,7.0919,7.0951,7.1018,7.214,7.2674,7.2767,7.3627,7.4589,7.4914,7.5762,7.6673,7.6897,7.7757,7.8578,7.9198,7.9459,7.9614,7.9742,7.9998,8.0099,8.0133,8.0158,8.0183,8.0209,8.0209,8.0209,8.0209,8.0209,8.0209,8.0209,8.0209,8.0209,8.0209,8.0209,8.0209,8.0209,8.0209,8.0209,8.0209,8.0209,8.0209,8.0209,8.0209,8.0209,8.0209,8.0209,8.0209,8.0209,8.0209,8.0209,8.0209,8.0242,8.0615,8.1054,8.1257,8.1791,8.2746,8.349,8.3828,6.7197,6.7762,6.8569,6.8543,6.8014,6.8186,6.8615,6.8914,6.8794,6.8914,6.9393,7.0021,7.029,7.038,7.0739,7.0919,7.0919,7.0919,7.0919,7.0919,7.0919,7.0919,7.0919,7.0919,7.0919,7.0919,7.0919,7.0919,7.0919,7.0919,7.0919,7.0919,7.0919,7.0919,7.0919,7.0919,7.0919,7.0919,7.0919,7.0919,7.0919,7.0919,7.0919,7.0919,7.0919,7.0919,7.0919,7.0919,7.0919,7.0919,7.0919,7.0919,7.0919,7.0919,7.0921,7.0921,7.0954,7.1343,7.2424,7.375,7.4351,7.4201,7.4707,7.5906,7.6106,7.7319,7.7981,7.8277,7.8902,7.9459,7.9673,7.9878,8.0031,8.0057,8.0183,8.0183,8.0183,8.0183,8.0209,8.0209,8.0209,8.0209,8.0209,8.0209,8.0209,8.0209,8.0209,8.0209,8.0209,8.0209,8.0209,8.0209,8.0209,8.0209,8.0209,8.0209,8.0209,8.0209,8.0209,8.0209,8.0209,8.0209,8.0209,8.0209,8.0209,8.0209,8.0412,8.075,8.1562,8.2035,8.2306,8.2543,8.3253,8.3896,8.4275,6.8752,6.8932,6.9873,6.9931,6.9363,6.9123,6.8884,6.8734,6.8884,6.9004,6.9153,6.9692,7.0171,7.038,7.0679,7.0919,7.0919,7.0919,7.0919,7.0919,7.0919,7.0919,7.0919,7.0919,7.0919,7.0919,7.0919,7.0919,7.0919,7.0919,7.0919,7.0919,7.0919,7.0919,7.0919,7.0919,7.0919,7.0919,7.0919,7.0919,7.0919,7.0919,7.0919,7.0919,7.0919,7.0919,7.0919,7.0919,7.0919,7.0919,7.0919,7.0889,7.0889,7.0921,7.1148,7.1375,7.214,7.2643,7.3779,7.5149,7.5412,7.4853,7.6306,7.7152,7.7462,7.8257,7.8797,7.9198,7.9588,7.9768,7.9955,8.0183,8.0183,8.0209,8.0209,8.0209,8.0209,8.0209,8.0209,8.0209,8.0209,8.0209,8.0209,8.0209,8.0209,8.0209,8.0209,8.0209,8.0209,8.0209,8.0209,8.0209,8.0209,8.0209,8.0209,8.0209,8.0209,8.0209,8.0209,8.0209,8.0209,8.0209,8.0209,8.0209,8.0242,8.0378,8.0818,8.1384,8.2272,8.3016,8.3456,8.3693,8.3896,8.42,8.4546,6.9615,7.0791,7.0919,7.053,6.9961,6.9453,6.8764,6.8167,6.8734,6.9004,6.9034,6.9692,7.0201,7.0709,7.0859,7.0919,7.0919,7.0919,7.0919,7.0919,7.0919,7.0919,7.0919,7.0919,7.0919,7.0919,7.0919,7.0919,7.0919,7.0919,7.0919,7.0919,7.0919,7.0919,7.0919,7.0919,7.0919,7.0919,7.0919,7.0919,7.0919,7.0919,7.0919,7.0919,7.0919,7.0919,7.0919,7.0919,7.0919,7.0919,7.0919,7.0954,7.0986,7.0986,7.176,7.2767,7.3962,7.45,7.4944,7.622,7.6841,7.6701,7.7681,7.8477,7.8744,7.8909,7.9224,7.951,7.9827,7.9947,8.0158,8.0183,8.0209,8.0209,8.0209,8.0209,8.0209,8.0209,8.0209,8.0209,8.0209,8.0209,8.0209,8.0209,8.0209,8.0209,8.0209,8.0209,8.0209,8.0209,8.0209,8.0209,8.0209,8.0209,8.0209,8.0209,8.0209,8.0209,8.0209,8.0209,8.0209,8.0209,8.0209,8.0209,8.0276,8.0648,8.1562,8.2374,8.3152,8.3761,8.4106,8.4208,8.4208,8.4309,8.458,7.0501,7.0919,7.0919,7.0799,7.062,7.044,6.9722,6.8824,6.8944,6.9004,6.9034,6.9692,7.0141,7.029,7.0679,7.0859,7.0919,7.0919,7.0919,7.0919,7.0919,7.0919,7.0919,7.0919,7.0919,7.0919,7.0919,7.0919,7.0919,7.0919,7.0919,7.0919,7.0919,7.0919,7.0919,7.0919,7.0919,7.0919,7.0919,7.0919,7.0919,7.0919,7.0919,7.0919,7.0919,7.0919,7.0919,7.0919,7.0919,7.0919,7.0889,7.115,7.2236,7.2299,7.2798,7.4081,7.5208,7.6078,7.6249,7.7241,7.7986,7.8203,7.8637,7.8883,7.9206,7.944,7.9596,7.9801,7.9955,8.0133,8.0183,8.0209,8.0209,8.0209,8.0209,8.0209,8.0209,8.0209,8.0209,8.0209,8.0209,8.0209,8.0209,8.0209,8.0209,8.0209,8.0209,8.0209,8.0209,8.0209,8.0209,8.0209,8.0209,8.0209,8.0209,8.0209,8.0209,8.0209,8.0209,8.0209,8.0209,8.0209,8.0209,8.0445,8.0818,8.1697,8.2746,8.3389,8.3795,8.4133,8.4444,8.4512,8.458,8.458,8.458,7.0919,7.0919,7.0919,7.0919,7.0919,7.0889,7.041,6.9782,6.9482,6.9393,6.9423,6.9812,7.0143,7.044,7.0769,7.0919,7.0919,7.0919,7.0919,7.0919,7.0919,7.0919,7.0919,7.0919,7.0919,7.0919,7.0919,7.0919,7.0919,7.0919,7.0919,7.0919,7.0919,7.0919,7.0919,7.0919,7.0919,7.0919,7.0919,7.0919,7.0919,7.0919,7.0919,7.0919,7.0919,7.0919,7.0919,7.0919,7.0889,7.1083,7.115,7.1951,7.3108,7.3597,7.441,7.5646,7.6621,7.7213,7.7489,7.8041,7.8697,7.9041,7.9172,7.9466,7.957,7.975,7.9853,7.998,8.0107,8.0209,8.0209,8.0209,8.0209,8.0209,8.0209,8.0209,8.0209,8.0209,8.0209,8.0209,8.0209,8.0209,8.0209,8.0209,8.0209,8.0209,8.0209,8.0209,8.0209,8.0209,8.0209,8.0209,8.0209,8.0209,8.0209,8.0209,8.0209,8.0209,8.0209,8.0209,8.0209,8.031,8.0445,8.0953,8.1621,8.2509,8.3389,8.3795,8.4167,8.4444,8.458,8.458,8.458,8.458,8.458,7.0919,7.0919,7.0919,7.0919,7.0919,7.0919,7.0859,7.0859,7.026,7.0083,7.0113,7.0081,7.038,7.0739,7.0889,7.0919,7.0919,7.0919,7.0919,7.0919,7.0919,7.0919,7.0919,7.0919,7.0919,7.0919,7.0919,7.0919,7.0919,7.0919,7.0919,7.0919,7.0919,7.0919,7.0919,7.0919,7.0919,7.0919,7.0919,7.0919,7.0919,7.0919,7.0919,7.0919,7.0919,7.0919,7.0919,7.0889,7.0954,7.1407,7.1951,7.2705,7.4021,7.5324,7.6395,7.693,7.7769,7.8101,7.8343,7.8724,7.9041,7.9388,7.9647,7.9827,7.9904,7.9955,8.0031,8.0082,8.0183,8.0209,8.0209,8.0209,8.0209,8.0209,8.0209,8.0209,8.0209,8.0209,8.0209,8.0209,8.0209,8.0209,8.0209,8.0209,8.0209,8.0209,8.0209,8.0209,8.0209,8.0209,8.0209,8.0209,8.0209,8.0209,8.0209,8.0209,8.0209,8.0209,8.0242,8.0412,8.0581,8.0648,8.0716,8.1562,8.2441,8.3016,8.3727,8.4099,8.437,8.4478,8.458,8.458,8.458,8.458,8.458,7.0919,7.0919,7.0919,7.0919,7.0919,7.0919,7.0919,7.0889,7.0769,7.0649,7.0679,7.0679,7.0709,7.0859,7.0919,7.0919,7.0919,7.0919,7.0919,7.0919,7.0919,7.0919,7.0919,7.0919,7.0919,7.0919,7.0919,7.0919,7.0919,7.0919,7.0919,7.0919,7.0919,7.0919,7.0919,7.0919,7.0919,7.0919,7.0919,7.0919,7.0919,7.0919,7.0919,7.0919,7.0919,7.0984,7.1016,7.1016,7.1567,7.2236,7.2549,7.378,7.5646,7.7185,7.7911,7.8155,7.8511,7.8724,7.8883,7.9094,7.9388,7.9596,7.9801,7.9955,8.0082,8.0107,8.0133,8.0183,8.0209,8.0209,8.0209,8.0209,8.0209,8.0209,8.0209,8.0209,8.0209,8.0209,8.0209,8.0209,8.0209,8.0209,8.0209,8.0209,8.0209,8.0209,8.0209,8.0209,8.0209,8.0209,8.0209,8.0209,8.0209,8.0209,8.0209,8.0344,8.0445,8.0445,8.0513,8.0682,8.0953,8.1393,8.1832,8.2577,8.3355,8.3761,8.4065,8.4343,8.4546,8.458,8.458,8.458,8.458,8.458,8.458,7.0919,7.0919,7.0919,7.0919,7.0919,7.0919,7.0919,7.0919,7.0919,7.0919,7.0919,7.0919,7.0919,7.0919,7.0919,7.0919,7.0919,7.0919,7.0919,7.0919,7.0919,7.0919,7.0919,7.0919,7.0919,7.0919,7.0919,7.0919,7.0919,7.0919,7.0919,7.0919,7.0919,7.0919,7.0919,7.0919,7.0919,7.0919,7.0919,7.0919,7.0919,7.0919,7.0919,7.0919,7.0951,7.1145,7.1695,7.1824,7.2518,7.3567,7.4231,7.547,7.7013,7.8128,7.8591,7.8724,7.8909,7.9153,7.9232,7.9414,7.9647,7.9776,7.9955,8.0099,8.0158,8.0158,8.0158,8.0209,8.0209,8.0209,8.0209,8.0209,8.0209,8.0209,8.0209,8.0209,8.0209,8.0209,8.0209,8.0209,8.0209,8.0209,8.0209,8.0209,8.0209,8.0209,8.0209,8.0209,8.0209,8.0209,8.0209,8.0242,8.0276,8.0242,8.0209,8.0513,8.0843,8.0818,8.0851,8.1325,8.1832,8.2441,8.305,8.3422,8.3761,8.414,8.4444,8.458,8.458,8.458,8.458,8.458,8.458,8.458,8.458,7.0919,7.0919,7.0919,7.0919,7.0919,7.0919,7.0919,7.0919,7.0919,7.0919,7.0919,7.0919,7.0919,7.0919,7.0919,7.0919,7.0919,7.0919,7.0919,7.0919,7.0919,7.0919,7.0919,7.0919,7.0919,7.0919,7.0919,7.0919,7.0919,7.0919,7.0919,7.0919,7.0919,7.0919,7.0919,7.0919,7.0919,7.0919,7.0919,7.0919,7.0919,7.0979,7.1009,7.0979,7.1208,7.1819,7.2517,7.3169,7.3719,7.4855,7.5992,7.7097,7.7905,7.8671,7.883,7.9015,7.9284,7.9414,7.9492,7.9699,7.9827,7.9929,8.0107,8.0209,8.0209,8.0209,8.0209,8.0209,8.0209,8.0209,8.0209,8.0209,8.0209,8.0209,8.0209,8.0209,8.0209,8.0209,8.0209,8.0209,8.0209,8.0209,8.0209,8.0209,8.0209,8.0209,8.0209,8.0209,8.0209,8.0209,8.0209,8.0344,8.0479,8.0412,8.0412,8.075,8.1249,8.1494,8.1663,8.2137,8.2678,8.3253,8.3625,8.3761,8.4106,8.4411,8.4512,8.458,8.458,8.458,8.458,8.458,8.458,8.458,8.458,7.0919,7.0919,7.0919,7.0919,7.0919,7.0919,7.0919,7.0919,7.0919,7.0919,7.0919,7.0919,7.0919,7.0919,7.0919,7.0919,7.0919,7.0919,7.0919,7.0919,7.0919,7.0919,7.0919,7.0919,7.0919,7.0919,7.0919,7.0919,7.0919,7.0919,7.0919,7.0919,7.0919,7.0919,7.0919,7.0919,7.0919,7.0919,7.0921,7.0921,7.1228,7.1318,7.1278,7.1698,7.2435,7.276,7.3169,7.3871,7.4944,7.6192,7.7296,7.8128,7.8591,7.8883,7.9041,7.9284,7.9518,7.9699,7.9827,7.9955,8.0057,8.0082,8.0209,8.0209,8.0209,8.0209,8.0209,8.0209,8.0209,8.0209,8.0209,8.0209,8.0209,8.0209,8.0209,8.0209,8.0209,8.0209,8.0209,8.0209,8.0209,8.0209,8.0209,8.0209,8.0209,8.0209,8.0209,8.0209,8.0209,8.0209,8.0276,8.0513,8.075,8.0978,8.1088,8.1291,8.1663,8.2035,8.2441,8.2881,8.3389,8.3937,8.4242,8.4174,8.4275,8.4512,8.458,8.458,8.458,8.458,8.458,8.458,8.458,8.458,8.458]}]]